[[{"header":{"parameterUnit":"m.s-1","parameterCategory":1,"la1":30.6,"la2":28.766,"lo1":-90.7593,"lo2":-88.6598,"dy":0.0162,"dx":0.0183,"nx":116,"ny":114,"refTime":"2024-02-22T18:00:00:Z","depth":0,"parameterNumber":2,"parameterNumberName":"U-component_of_WINDS"},"data":[0.0,0.0,0.0,0.0,0.0,0.0,0.0,0.0,0.0,0.0,0.0,0.0,0.0,0.0,0.0,0.0,0.0,0.0,0.0,0.0,0.0,0.0,0.0,0.0,0.0,0.0,0.0,0.0,0.0,0.0,0.0,0.0,0.0,0.0,0.0,0.0,0.0,0.0,0.0,0.0,0.0,0.0,0.0,0.0,0.0,0.0,0.0,0.0,0.0,0.0,0.0,0.0,0.0,0.0,0.0,0.0,0.0,0.0,0.0,0.0,0.0,0.0,0.0,0.0,0.0,0.0,0.0,0.0,0.0,0.0,0.0,0.0,0.0,0.0,0.0,0.0,0.0,0.0,0.0,0.0,0.0,0.0,0.0,0.0,0.0,0.0,0.0,0.0,0.0,0.0,0.0,0.0,0.0,0.0,0.0,0.0,0.0,0.0,0.0,0.0,0.0,0.0,0.0,0.0,0.0,0.0,0.0,0.0,0.0,0.0,0.0,0.0,0.0,0.0,0.0,0.0,0.0,0.0,0.0,0.0,0.0,0.0,0.0,0.0,0.0,0.0,0.0,0.0,0.0,0.0,0.0,0.0,0.0,0.0,0.0,0.0,0.0,0.0,0.0,0.0,0.0,0.0,0.0,0.0,0.0,0.0,0.0,0.0,0.0,0.0,0.0,0.0,0.0,0.0,0.0,0.0,0.0,0.0,0.0,0.0,0.0,0.0,0.0,0.0,0.0,0.0,0.0,0.0,0.0,0.0,0.0,0.0,0.0,0.0,0.0,0.0,0.0,0.0,0.0,0.0,0.0,0.0,0.0,0.0,0.0,0.0,0.0,0.0,0.0,0.0,0.0,0.0,0.0,0.0,0.0,0.0,0.0,0.0,0.0,0.0,0.0,0.0,0.0,0.0,0.0,0.0,0.0,0.0,0.0,0.0,0.0,0.0,0.0,0.0,0.0,0.0,0.0,0.0,0.0,0.0,0.0,0.0,0.0,0.0,0.0,0.0,0.0,0.0,0.0,0.0,0.0,0.0,0.0,0.0,0.0,0.0,0.0,0.0,0.0,0.0,0.0,0.0,0.0,0.0,0.0,0.0,0.0,0.0,0.0,0.0,0.0,0.0,0.0,0.0,0.0,0.0,0.0,0.0,0.0,0.0,0.0,0.0,0.0,0.0,0.0,0.0,0.0,0.0,0.0,0.0,0.0,0.0,0.0,0.0,0.0,0.0,0.0,0.0,0.0,0.0,0.0,0.0,0.0,0.0,0.0,0.0,0.0,0.0,0.0,0.0,0.0,0.0,0.0,0.0,0.0,0.0,0.0,0.0,0.0,0.0,0.0,0.0,0.0,0.0,0.0,0.0,0.0,0.0,0.0,0.0,0.0,0.0,0.0,0.0,0.0,0.0,0.0,0.0,0.0,0.0,0.0,0.0,0.0,0.0,0.0,0.0,0.0,0.0,0.0,0.0,0.0,0.0,0.0,0.0,0.0,0.0,0.0,0.0,0.0,0.0,0.0,0.0,0.0,0.0,0.0,0.0,0.0,0.0,0.0,0.0,0.0,0.0,0.0,0.0,0.0,0.0,0.0,0.0,0.0,0.0,0.0,0.0,0.0,0.0,0.0,0.0,0.0,0.0,0.0,0.0,0.0,0.0,0.0,0.0,0.0,0.0,0.0,0.0,0.0,0.0,0.0,0.0,0.0,0.0,0.0,0.0,0.0,0.0,0.0,0.0,0.0,0.0,0.0,0.0,0.0,0.0,0.0,0.0,0.0,0.0,0.0,0.0,0.0,0.0,0.0,0.0,0.0,0.0,0.0,0.0,0.0,0.0,0.0,0.0,0.0,0.0,0.0,0.0,0.0,0.0,0.0,0.0,0.0,0.0,0.0,0.0,0.0,0.0,0.0,0.0,0.0,0.0,0.0,0.0,0.0,0.0,0.0,0.0,0.0,0.0,0.0,0.0,0.0,0.0,0.0,0.0,0.0,0.0,0.0,0.0,0.0,0.0,0.0,0.0,0.0,0.0,0.0,0.0,0.0,0.0,0.0,0.0,0.0,0.0,0.0,0.0,0.0,0.0,0.0,0.0,0.0,0.0,0.0,0.0,0.0,0.0,0.0,0.0,0.0,0.0,0.0,0.0,0.0,0.0,0.0,0.0,0.0,0.0,0.0,0.0,0.0,0.0,0.0,0.0,0.0,0.0,0.0,0.0,0.0,0.0,0.0,0.0,0.0,0.0,0.0,0.0,0.0,0.0,0.0,0.0,0.0,0.0,0.0,0.0,0.0,0.0,0.0,0.0,0.0,0.0,0.0,0.0,0.0,0.0,0.0,0.0,0.0,0.0,0.0,0.0,0.0,0.0,0.0,0.0,0.0,0.0,0.0,0.0,0.0,0.0,0.0,0.0,0.0,0.0,0.0,0.0,0.0,0.0,0.0,0.0,0.0,0.0,0.0,0.0,0.0,0.0,0.0,0.0,0.0,0.0,0.0,0.0,0.0,0.0,0.0,0.0,0.0,0.0,0.0,0.0,0.0,0.0,0.0,0.0,0.0,0.0,0.0,0.0,0.0,0.0,0.0,0.0,0.0,0.0,0.0,0.0,0.0,0.0,0.0,0.0,0.0,0.0,0.0,0.0,0.0,0.0,0.0,0.0,0.0,0.0,0.0,0.0,0.0,0.0,0.0,0.0,0.0,0.0,0.0,0.0,0.0,0.0,0.0,0.0,0.0,0.0,0.0,0.0,0.0,0.0,0.0,0.0,0.0,0.0,0.0,0.0,0.0,0.0,0.0,0.0,0.0,0.0,0.0,0.0,0.0,0.0,0.0,0.0,0.0,0.0,0.0,0.0,0.0,0.0,0.0,0.0,0.0,0.0,0.0,0.0,0.0,0.0,0.0,0.0,0.0,0.0,0.0,0.0,0.0,0.0,0.0,0.0,0.0,0.0,0.0,0.0,0.0,0.0,0.0,0.0,0.0,0.0,0.0,0.0,0.0,0.0,0.0,0.0,0.0,0.0,0.0,0.0,0.0,0.0,0.0,0.0,0.0,0.0,0.0,0.0,0.0,0.0,0.0,0.0,0.0,0.0,0.0,0.0,0.0,0.0,0.0,0.0,0.0,0.0,0.0,0.0,0.0,0.0,0.0,0.0,0.0,0.0,0.0,0.0,0.0,0.0,0.0,0.0,0.0,0.0,0.0,0.0,0.0,0.0,0.0,0.0,0.0,0.0,0.0,0.0,0.0,0.0,0.0,0.0,0.0,0.0,0.0,0.0,0.0,0.0,0.0,0.0,0.0,0.0,0.0,0.0,0.0,0.0,0.0,0.0,0.0,0.0,0.0,0.0,0.0,0.0,0.0,0.0,0.0,0.0,0.0,0.0,0.0,0.0,0.0,0.0,0.0,0.0,0.0,0.0,0.0,0.0,0.0,0.0,0.0,0.0,0.0,0.0,0.0,0.0,0.0,0.0,0.0,0.0,0.0,0.0,0.0,0.0,0.0,0.0,0.0,0.0,0.0,0.0,0.0,0.0,0.0,0.0,0.0,0.0,0.0,0.0,0.0,0.0,0.0,0.0,0.0,0.0,0.0,0.0,0.0,0.0,0.0,0.0,0.0,0.0,0.0,0.0,0.0,0.0,0.0,0.0,0.0,0.0,0.0,0.0,0.0,0.0,0.0,0.0,0.0,0.0,0.0,0.0,0.0,0.0,0.0,0.0,0.0,0.0,0.0,0.0,0.0,0.0,0.0,0.0,0.0,0.0,0.0,0.0,0.0,0.0,0.0,0.0,0.0,0.0,0.0,0.0,0.0,0.0,0.0,0.0,0.0,0.0,0.0,0.0,0.0,0.0,0.0,0.0,0.0,0.0,0.0,0.0,0.0,0.0,0.0,0.0,0.0,0.0,0.0,0.0,0.0,0.0,0.0,0.0,0.0,0.0,0.0,0.0,0.0,0.0,0.0,0.0,0.0,0.0,0.0,0.0,0.0,0.0,0.0,0.0,0.0,0.0,0.0,0.0,0.0,0.0,0.0,0.0,0.0,0.0,0.0,0.0,0.0,0.0,0.0,0.0,0.0,0.0,0.0,0.0,0.0,0.0,0.0,0.0,0.0,0.0,0.0,0.0,0.0,0.0,0.0,0.0,0.0,0.0,0.0,0.0,0.0,0.0,0.0,0.0,0.0,0.0,0.0,0.0,0.0,0.0,0.0,0.0,0.0,0.0,0.0,0.0,0.0,0.0,0.0,0.0,0.0,0.0,0.0,0.0,0.0,0.0,0.0,0.0,0.0,0.0,0.0,0.0,0.0,0.0,0.0,0.0,0.0,0.0,0.0,0.0,0.0,0.0,0.0,0.0,0.0,0.0,0.0,0.0,0.0,0.0,0.0,0.0,0.0,0.0,0.0,0.0,0.0,0.0,0.0,0.0,0.0,0.0,0.0,0.0,0.0,0.0,0.0,0.0,0.0,0.0,0.0,0.0,0.0,0.0,0.0,0.0,0.0,0.0,0.0,0.0,0.0,0.0,0.0,0.0,0.0,0.0,0.0,0.0,0.0,0.0,0.0,0.0,0.0,0.0,0.0,0.0,0.0,0.0,0.0,0.0,0.0,0.0,0.0,0.0,0.0,0.0,0.0,0.0,0.0,0.0,0.0,0.0,0.0,0.0,0.0,0.0,0.0,0.0,0.0,0.0,0.0,0.0,0.0,0.0,0.0,0.0,0.0,0.0,0.0,0.0,0.0,0.0,0.0,0.0,0.0,0.0,0.0,0.0,0.0,0.0,0.0,0.0,0.0,0.0,0.0,0.0,0.0,0.0,0.0,0.0,0.0,0.0,0.0,0.0,0.0,0.0,0.0,0.0,0.0,0.0,0.0,0.0,0.0,0.0,0.0,0.0,0.0,0.0,0.0,0.0,0.0,0.0,0.0,0.0,0.0,0.0,0.0,0.0,0.0,0.0,0.0,0.0,0.0,0.0,0.0,0.0,0.0,0.0,0.0,0.0,0.0,0.0,0.0,0.0,0.0,0.0,0.0,0.0,0.0,0.0,0.0,0.0,0.0,0.0,0.0,0.0,0.0,0.0,0.0,0.0,0.0,0.0,0.0,0.0,0.0,0.0,0.0,0.0,0.0,0.0,0.0,0.0,0.0,0.0,0.0,0.0,0.0,0.0,0.0,0.0,0.0,0.0,0.0,0.0,0.0,0.0,0.0,0.0,0.0,0.0,0.0,0.0,0.0,0.0,0.0,0.0,0.0,0.0,0.0,0.0,0.0,0.0,0.0,0.0,0.0,0.0,0.0,0.0,0.0,0.0,0.0,0.0,0.0,0.0,0.0,0.0,0.0,0.0,0.0,0.0,0.0,0.0,0.0,0.0,0.0,0.0,0.0,0.0,0.0,0.0,0.0,0.0,0.0,0.0,0.0,0.0,0.0,0.0,0.0,0.0,0.0,0.0,0.0,0.0,0.0,0.0,0.0,0.0,0.0,0.0,0.0,0.0,0.0,0.0,0.0,0.0,0.0,0.0,0.0,0.0,0.0,0.0,0.0,0.0,0.0,0.0,0.0,0.0,0.0,0.0,0.0,0.0,0.0,0.0,0.0,0.0,0.0,0.0,0.0,0.0,0.0,0.0,0.0,0.0,0.0,0.0,0.0,0.0,0.0,0.0,0.0,0.0,0.0,0.0,0.0,0.0,0.0,0.0,0.0,0.0,0.0,0.0,0.0,0.0,0.0,0.0,0.0,0.0,0.0,0.0,0.0,0.0,0.0,0.0,0.0,0.0,0.0,0.0,0.0,0.0,0.0,0.0,0.0,0.0,0.0,0.0,0.0,0.0,0.0,0.0,0.0,0.0,0.0,0.0,0.0,0.0,0.0,0.0,0.0,0.0,0.0,0.0,0.0,0.0,0.0,0.0,0.0,0.0,0.0,0.0,0.0,0.0,0.0,0.0,0.0,0.0,0.0,0.0,0.0,0.0,0.0,0.0,0.0,0.0,0.0,0.0,0.0,0.0,0.0,0.0,0.0,0.0,0.0,0.0,0.0,0.0,0.0,0.0,0.0,0.0,0.0,0.0,0.0,0.0,0.0,0.0,0.0,0.0,0.0,0.0,0.0,0.0,2.2947,0.0,0.0,0.0,0.0,0.0,0.0,0.0,0.0,0.0,0.0,0.0,0.0,0.0,0.0,0.0,0.0,0.0,0.0,0.0,0.0,0.0,0.0,0.0,0.0,0.0,0.0,0.0,-0.3364,-0.3055,-0.2886,-0.2864,-0.2388,-0.1353,-0.0452,0.0578,0.1778,0.2967,0.3536,0.3459,0.4003,0.4862,0.5958,0.7235,0.8351,0.9412,0.0,0.0,0.0,0.0,0.0,0.0,0.0,0.0,0.0,0.0,0.0,0.0,0.0,0.0,0.0,0.0,0.0,0.0,0.0,0.0,0.0,0.0,0.0,0.0,0.0,0.0,0.0,0.0,0.0,0.0,0.0,0.0,0.0,0.0,0.0,0.0,0.0,0.0,0.0,0.0,0.0,0.0,0.0,0.0,0.0,0.0,0.0,0.0,0.0,0.0,0.0,0.0,0.0,0.0,0.0,0.0,0.0,0.0,0.0,0.0,0.0,0.0,0.0,0.0,0.0,0.0,0.0,0.0,0.0,0.0,0.0,2.3004,0.0,0.0,0.0,0.0,0.0,0.0,0.0,0.0,0.0,0.0,0.0,0.0,0.0,0.0,0.0,0.0,0.0,0.0,0.0,0.0,0.0,0.0,0.0,0.0,-0.4005,-0.3787,-0.3267,-0.2995,-0.3075,-0.3053,-0.2634,-0.1666,-0.0594,0.0646,0.2074,0.3104,0.3598,0.3581,0.4329,0.535,0.6608,0.8106,0.9088,0.0,0.0,0.0,0.0,0.0,0.0,0.0,0.0,0.0,0.0,0.0,0.0,0.0,0.0,0.0,0.0,0.0,0.0,0.0,0.0,0.0,0.0,0.0,0.0,0.0,0.0,0.0,0.0,0.0,0.0,0.0,0.0,0.0,0.0,0.0,0.0,0.0,0.0,0.0,0.0,0.0,0.0,0.0,0.0,0.0,0.0,0.0,0.0,0.0,0.0,0.0,0.0,0.0,0.0,0.0,0.0,0.0,0.0,0.0,0.0,0.0,0.0,0.0,0.0,0.0,2.3898,2.3928,2.3274,2.4678,2.4543,2.3235,2.3235,2.3947,2.4986,2.3755,0.0,0.0,0.0,0.0,0.0,0.0,0.0,0.0,0.0,0.0,0.0,0.0,0.0,0.0,0.0,0.0,0.0,0.0,0.0,0.0,0.0,-0.5108,-0.4523,-0.4478,-0.3619,-0.3062,-0.3082,-0.3211,-0.3122,-0.2879,-0.1039,0.106,0.3306,0.3527,0.3615,0.3581,0.5181,0.6136,0.6481,0.8262,0.0,0.0,0.0,0.0,0.0,0.0,0.0,0.0,0.0,0.0,0.0,0.0,0.0,0.0,0.0,0.0,0.0,0.0,0.0,0.0,0.0,0.0,0.0,0.0,0.0,0.0,0.0,0.0,0.0,0.0,0.0,0.0,0.0,0.0,0.0,0.0,0.0,0.0,0.0,0.0,0.0,0.0,0.0,0.0,0.0,0.0,2.2129,2.3023,0.0,0.0,0.0,0.0,0.0,0.0,0.0,0.0,0.0,0.0,0.0,0.0,0.0,2.2581,2.2466,2.3437,2.3937,2.3937,2.4755,2.5072,2.4976,2.5187,2.5168,2.4957,2.4957,0.0,2.4302,2.4774,0.0,0.0,0.0,0.0,0.0,0.0,0.0,0.0,0.0,0.0,0.0,0.0,0.0,0.0,0.0,0.0,0.0,0.0,0.0,0.0,0.0,-0.4829,-0.4271,-0.4271,-0.3859,-0.3558,-0.3388,-0.3635,-0.3698,-0.3383,-0.249,-0.057,0.2516,0.2598,0.3009,0.3955,0.585,0.6921,0.7161,0.0,0.0,0.0,0.0,0.0,0.0,0.0,0.0,0.0,0.0,0.0,0.0,0.0,0.0,0.0,0.0,0.0,0.0,0.0,0.0,0.0,0.0,0.0,0.0,0.0,0.0,0.0,0.0,0.0,0.0,0.0,0.0,0.0,0.0,0.0,0.0,0.0,0.0,0.0,0.0,0.0,0.0,0.0,0.0,0.0,0.0,2.2625,2.3378,2.3766,2.3471,2.2916,0.0,0.0,0.0,0.0,0.0,0.0,0.0,0.0,0.0,2.3399,2.3477,2.3755,2.4197,2.5063,2.5755,2.6246,2.6582,2.6755,2.6755,2.6755,2.6755,2.6755,2.6755,2.6274,2.5486,2.537,2.5303,2.5303,0.0,0.0,0.0,0.0,2.5303,2.5303,0.0,0.0,0.0,0.0,0.0,0.0,0.0,0.0,0.0,0.0,0.0,0.0,-0.5573,-0.4763,-0.4223,-0.4264,-0.4128,-0.3944,-0.3761,-0.3955,-0.3795,-0.3163,-0.3449,-0.2064,0.1256,0.2169,0.3161,0.4368,0.6235,0.7411,0.0,0.0,0.0,0.0,0.0,0.0,0.0,0.0,0.0,0.0,0.0,0.0,0.0,0.0,0.0,0.0,0.0,0.0,0.0,0.0,0.0,0.0,0.0,0.0,0.0,0.0,0.0,0.0,0.0,0.0,0.0,0.0,0.0,0.0,0.0,0.0,0.0,0.0,0.0,0.0,0.0,0.0,0.0,0.0,0.0,0.0,0.0,2.3235,2.4191,2.4266,2.4266,2.3953,0.0,0.0,0.0,0.0,0.0,0.0,2.4678,2.4449,2.4422,2.4667,2.4937,2.5351,2.5967,2.6621,2.7255,2.789,2.789,2.789,2.789,2.789,2.789,2.789,2.789,2.7525,2.6871,2.5986,2.5495,2.5303,2.5303,2.5303,2.5303,2.5303,2.5303,2.5303,0.0,0.0,0.0,0.0,0.0,0.0,0.0,0.0,0.0,0.0,0.0,-0.5832,-0.6303,-0.5457,-0.4882,-0.5042,-0.4386,-0.4026,-0.4153,-0.3832,-0.3106,-0.1937,-0.2984,-0.2431,0.0045,0.3158,0.4772,0.4745,0.0,0.0,0.0,0.0,0.0,0.0,0.0,0.0,0.0,0.0,0.0,0.0,0.0,0.0,0.0,0.0,0.0,0.0,0.0,0.0,0.0,0.0,0.0,0.0,0.0,0.0,0.0,0.0,0.0,0.0,0.0,0.0,0.0,0.0,0.0,0.0,0.0,0.0,0.0,0.0,0.0,0.0,0.0,0.0,0.0,0.0,0.0,0.0,0.0,0.0,0.0,2.4442,2.4478,0.0,0.0,0.0,0.0,2.307,2.4185,2.4793,2.4526,2.5736,2.6373,2.6187,2.719,2.7736,2.7775,2.7813,2.7852,2.789,2.789,2.789,2.789,2.789,2.789,2.789,2.789,2.7871,2.7775,2.689,2.6063,2.5303,2.5303,2.5303,2.5303,2.5303,2.5303,2.5303,0.0,0.0,0.0,0.0,0.0,0.0,0.0,0.0,-0.7558,-0.7049,-0.6582,-0.6254,-0.6162,-0.5768,-0.5333,-0.5002,-0.4827,-0.4521,-0.402,-0.4268,-0.3299,-0.074,-0.1049,-0.0861,-0.0,0.1144,0.2897,0.5205,0.0,0.0,0.0,0.0,0.0,0.0,0.0,0.0,0.0,0.0,0.0,0.0,0.0,0.0,0.0,0.0,0.0,0.0,0.0,0.0,0.0,0.0,0.0,0.0,0.0,0.0,0.0,0.0,0.0,0.0,0.0,0.0,0.0,0.0,0.0,0.0,0.0,0.0,0.0,0.0,0.0,0.0,0.0,0.0,0.0,0.0,0.0,0.0,0.0,0.0,0.0,2.5059,2.5097,0.0,2.4672,2.4893,2.493,2.4576,2.5468,2.6041,2.6042,2.651,2.6824,2.6885,2.7262,2.7704,2.8217,2.8217,2.8574,2.9237,2.9112,2.9127,2.9237,2.9237,2.9237,2.927,2.944,2.9198,2.864,2.8332,2.739,2.6082,2.5514,2.5303,2.5303,2.5303,2.5649,2.6063,0.0,0.0,0.0,0.0,0.0,0.0,0.0,0.0,-0.7447,-0.7063,-0.66,-0.6256,-0.611,-0.5758,-0.5461,-0.5191,-0.5091,-0.4813,-0.4292,-0.4467,-0.3402,-0.0841,-0.0245,-0.0,-0.0,-0.0,0.1155,0.0,0.0,0.0,0.0,0.0,0.0,0.0,0.0,0.0,0.0,0.0,0.0,0.0,0.0,0.0,1.4151,0.0,0.0,0.0,0.0,0.0,0.0,0.0,0.0,0.0,0.0,0.0,0.0,0.0,0.0,0.0,0.0,0.0,0.0,0.0,0.0,0.0,0.0,0.0,0.0,0.0,0.0,0.0,0.0,0.0,0.0,0.0,0.0,0.0,0.0,0.0,2.5652,2.6153,2.6447,2.6502,2.6248,2.6211,2.6101,2.5823,2.6364,2.6762,2.6898,2.7233,2.7471,2.7589,2.7888,2.8303,2.8829,2.8848,2.9215,2.9908,2.9829,2.9877,2.9999,3.0089,3.0136,3.015,3.0323,3.0083,2.9525,2.9217,2.8448,2.7332,2.6197,2.5553,2.5303,2.5303,2.5851,2.6524,0.0,0.0,0.0,0.0,0.0,0.0,0.0,-0.7405,-0.7021,-0.6979,-0.6303,-0.5956,-0.618,-0.5596,-0.5274,-0.5579,-0.5192,-0.4931,-0.4925,-0.4285,-0.3384,-0.2194,-0.0746,-0.0,-0.0,0.0,0.0,0.0,0.0,0.0,0.0,0.0,0.0,0.0,0.0,0.0,0.0,0.0,0.0,0.0,0.0,0.0,1.4824,0.0,0.0,0.0,0.0,0.0,0.0,0.0,0.0,0.0,0.0,0.0,0.0,0.0,0.0,0.0,0.0,0.0,0.0,0.0,0.0,0.0,0.0,0.0,0.0,0.0,0.0,0.0,0.0,0.0,0.0,0.0,0.0,0.0,2.4792,2.5356,2.6211,2.7688,2.8558,2.8741,2.7952,2.7842,2.7512,2.6778,2.6893,2.7009,2.7046,2.7958,2.8493,2.8493,2.932,2.9754,2.9754,2.9735,2.9716,2.9734,2.9877,2.9984,2.9999,3.0254,3.0367,3.0398,3.0398,3.0398,3.0321,2.9467,2.9102,2.8929,2.7255,2.6082,2.5341,2.5303,2.5841,2.6591,0.0,0.0,0.0,0.0,0.0,0.0,0.0,-0.8028,-0.7363,-0.652,-0.6707,-0.6622,-0.5968,-0.6181,-0.625,-0.5891,-0.5498,-0.5192,-0.5081,-0.4328,-0.2911,-0.0722,-0.0225,0.0,-0.0,0.0,0.0,0.0,0.0,0.0,0.0,0.0,0.0,0.0,0.0,0.0,0.0,0.0,0.0,0.0,0.0,0.0,1.5271,0.0,0.0,0.0,0.0,0.0,0.0,0.0,0.0,0.0,0.0,0.0,0.0,0.0,0.0,0.0,0.0,0.0,0.0,0.0,0.0,0.0,0.0,0.0,0.0,0.0,0.0,0.0,0.0,0.0,0.0,0.0,2.3944,2.4391,2.4537,2.633,2.7886,2.8604,2.9384,2.9787,2.9567,2.9017,2.8833,2.9182,2.9269,2.9531,3.0143,3.0415,3.0572,3.0572,3.0812,3.0923,3.0923,3.0331,3.0163,3.0353,2.9634,2.9456,2.978,2.9864,2.9973,3.0122,3.0311,3.0398,3.0321,2.9467,2.9102,2.8929,2.7255,2.6447,2.6178,2.5534,2.5729,2.6434,0.0,0.0,0.0,0.0,0.0,0.0,0.0,-0.8118,-0.763,-0.6848,-0.723,-0.7223,-0.6419,-0.6747,-0.6683,-0.5991,-0.5471,-0.5084,-0.4863,-0.418,-0.2855,0.0,0.0,0.0,0.0,0.0,0.0,0.0,0.0,0.0,0.0,0.0,0.0,0.0,0.0,0.0,0.0,0.0,0.0,0.0,0.0,0.0,1.6081,1.6494,1.6715,1.696,1.8005,1.8517,1.8795,1.9158,0.0,0.0,0.0,0.0,0.0,0.0,0.0,0.0,0.0,0.0,0.0,0.0,0.0,0.0,0.0,0.0,0.0,0.0,0.0,0.0,0.0,0.0,0.0,0.0,2.5139,2.6036,2.6452,2.8176,2.9519,2.9918,3.1111,3.1655,3.1026,3.068,3.0577,3.0687,3.0705,3.0907,3.1366,3.1384,3.1384,3.1384,3.1384,3.1384,3.1384,3.0944,3.0617,3.0428,2.9902,2.9646,2.957,2.9661,2.9763,2.9877,3.0037,3.0114,3.0075,2.956,2.935,0.0,0.0,0.0,0.0,0.0,2.5933,2.5895,0.0,0.0,0.0,0.0,0.0,0.0,0.0,-0.7953,-0.7765,-0.7381,-0.7611,-0.7589,-0.6984,-0.699,-0.67,-0.5785,-0.523,-0.4796,-0.4563,0.0,0.0,0.0,0.0,0.0,0.0,0.0,0.0,0.0,0.0,0.0,0.0,0.0,0.0,0.0,0.0,0.0,0.0,0.0,0.0,0.0,0.0,0.0,1.7035,1.7461,1.8011,1.8696,1.9555,1.9321,1.8704,1.9535,0.0,0.0,0.0,0.0,0.0,0.0,0.0,0.0,0.0,0.0,0.0,0.0,0.0,0.0,0.0,0.0,0.0,0.0,0.0,0.0,0.0,0.0,0.0,0.0,2.6674,2.8455,2.9627,3.0559,3.122,3.1458,3.3158,3.3749,3.2358,3.2447,3.2339,3.1715,3.1586,3.1568,3.1659,0.0,0.0,0.0,0.0,3.1659,3.1659,3.1568,3.1182,3.0467,3.0635,3.0339,2.9673,2.9758,2.981,2.9828,2.9734,2.9696,2.9677,2.9583,2.9489,2.924,2.7485,2.7082,2.7475,2.7184,2.6318,2.5507,0.0,0.0,0.0,0.0,0.0,0.0,0.0,-0.8201,-0.7559,-0.6594,-0.6999,-0.6952,-0.5759,-0.6187,-0.621,-0.5332,-0.505,-0.4843,0.0,0.0,0.0,0.0,0.0,0.0,0.0,0.0,0.0,0.0,0.0,0.0,0.0,0.0,0.0,0.0,0.0,0.0,0.0,0.0,0.0,0.0,0.0,0.0,1.6938,1.7308,1.7022,1.6723,1.8398,1.9282,1.9628,1.9897,2.0754,2.1444,2.0078,0.0,0.0,0.0,0.0,0.0,0.0,0.0,0.0,0.0,0.0,0.0,0.0,0.0,0.0,0.0,0.0,0.0,0.0,0.0,0.0,2.6877,2.8569,3.0163,3.1545,3.2927,3.3524,3.284,3.3656,3.4057,3.3506,3.2928,3.2816,3.3293,3.2742,3.2651,3.3293,3.333,3.333,3.333,3.333,3.333,3.333,3.2687,3.2302,3.2137,0.0,0.0,3.1309,3.0702,3.0507,3.0639,2.9979,2.9696,2.9639,2.8942,2.8265,2.7719,2.7967,2.7827,2.7412,2.6667,2.6662,2.7064,0.0,0.0,0.0,0.0,0.0,0.0,0.0,-0.848,-0.7957,-0.6967,-0.7443,-0.7471,-0.6406,-0.6745,-0.6538,-0.5329,-0.4766,0.0,0.0,0.0,0.0,0.0,0.0,0.0,0.0,0.0,0.0,0.0,0.0,0.0,0.0,0.0,0.0,0.0,0.0,0.0,0.0,0.0,0.0,0.0,0.0,0.0,1.5525,1.7171,1.7504,1.7225,1.851,1.9209,1.9558,1.9674,2.0247,2.0766,1.9879,1.9132,1.8661,0.0,0.0,0.0,0.0,0.0,0.0,0.0,0.0,0.0,0.0,0.0,0.0,0.0,0.0,2.3259,2.4691,0.0,2.7411,2.9661,3.1326,3.2831,3.432,3.5182,3.5062,3.3432,3.4163,3.4535,3.3993,3.4026,3.4229,3.4611,3.4109,3.3963,3.4394,3.4027,3.3807,3.3807,3.3807,3.399,3.4412,3.3605,3.3201,3.3201,3.2375,3.1845,3.1589,3.1182,3.0843,3.0528,3.0118,2.9709,2.9318,2.889,2.846,2.8143,2.8535,2.8091,2.7191,2.7153,2.7172,2.7248,0.0,0.0,0.0,0.0,0.0,0.0,0.0,-0.8716,-0.8403,-0.7524,-0.7903,-0.7928,-0.7206,-0.7379,-0.6876,-0.5338,0.0,0.0,0.0,0.0,0.0,0.0,0.0,0.0,0.0,0.0,0.0,0.0,0.0,0.0,0.0,0.0,0.0,0.0,0.0,0.0,0.0,0.0,0.0,0.0,0.0,0.0,1.382,1.6339,1.7461,1.7763,1.843,1.8541,1.8423,1.8909,1.9096,1.9024,1.9039,1.8391,1.7704,1.8503,1.7624,0.0,0.0,0.0,0.0,0.0,0.0,0.0,0.0,0.0,2.1622,2.3148,2.397,2.5112,2.7175,2.84,2.9788,3.195,3.3642,3.5199,3.6586,3.6907,3.6265,3.4303,3.4734,3.4938,3.4293,3.4907,3.5349,3.5349,3.509,3.4943,3.4943,3.4428,3.4137,3.4137,3.4238,3.4596,3.5247,3.4614,3.4284,3.4284,3.3458,3.2742,3.2082,3.177,3.1274,3.065,3.0338,2.9843,2.9237,2.9049,2.9085,2.9237,2.9283,2.8679,2.7806,2.8015,2.7699,2.727,0.0,0.0,0.0,0.0,0.0,0.0,0.0,0.0,-0.8316,-0.7194,-0.7361,-0.7296,-0.658,-0.6735,-0.6379,-0.5064,0.0,0.0,0.0,0.0,0.0,0.0,0.0,0.0,0.0,0.0,0.0,0.0,0.0,0.0,0.0,0.0,0.0,0.0,0.0,0.0,0.0,0.0,0.0,0.0,0.0,0.0,1.2302,1.345,1.466,1.5805,1.6399,1.6044,1.5597,1.7415,1.7944,1.7863,1.8406,1.8414,1.8126,1.7949,0.0,1.6481,1.7277,1.8145,1.8968,1.9566,2.0154,2.085,0.0,0.0,2.3655,2.5962,2.7071,2.7846,2.8657,3.0449,3.1984,3.2337,3.4153,3.5791,3.6671,3.7347,3.7432,3.6518,3.5711,3.5062,3.4656,3.473,3.4783,3.4783,3.473,3.4729,3.4729,3.5101,3.5309,3.5309,3.575,3.6064,3.6156,3.6064,3.6009,3.6009,3.5147,3.4679,3.4532,3.3128,3.243,3.2265,3.0815,3.0155,3.0008,2.9287,2.9439,3.0087,3.0342,3.0631,3.0667,2.8788,2.8166,2.8233,0.0,0.0,0.0,0.0,0.0,0.0,0.0,0.0,0.0,-0.7105,-0.7128,-0.7071,-0.6762,-0.6558,-0.622,0.0,0.0,0.0,0.0,0.0,0.0,0.0,0.0,0.0,0.0,0.0,0.0,0.0,0.0,0.0,0.0,0.0,0.0,0.0,0.0,0.0,0.0,0.0,0.0,0.0,0.0,0.0,1.0557,1.1468,1.1975,1.2435,1.3933,1.4328,0.0,0.0,1.5948,1.6471,1.7543,1.6921,1.5995,1.6717,1.5728,0.0,1.6722,1.7813,1.8778,0.0,2.1066,2.1689,2.3292,2.4182,2.5236,2.7403,2.8434,2.935,3.076,3.2114,3.3283,0.0,3.578,3.7077,3.7381,3.7719,3.7466,3.6248,3.5307,3.4932,3.5184,3.5509,3.5706,3.5706,3.5518,3.5401,3.5401,3.5449,3.5349,3.5044,3.553,3.6072,3.6544,3.6072,3.6231,3.6964,3.5642,3.499,3.4954,3.3825,3.3054,3.2559,3.1384,3.0889,3.087,3.054,3.0595,3.0913,3.1015,3.1194,3.1323,3.055,3.0206,3.0123,0.0,0.0,0.0,0.0,0.0,0.0,0.0,0.0,0.0,0.0,-0.6979,-0.6979,-0.6979,-0.6647,0.0,0.0,0.0,0.0,0.0,0.0,0.0,0.0,0.0,0.0,0.0,0.0,0.0,0.0,0.0,0.0,0.0,0.0,0.0,0.0,0.0,0.0,0.0,0.0,0.0,0.0,0.0,0.0,0.8874,0.9592,0.9559,0.9259,1.1416,1.2168,0.0,0.0,1.3525,1.4259,1.5514,1.4923,1.4038,1.5292,1.477,1.4272,1.6574,1.7867,0.0,2.1413,2.2364,2.3251,2.5031,2.5959,2.6992,2.8938,2.9596,3.0304,3.195,3.2644,3.3385,3.4628,3.6089,3.7141,3.752,3.7601,3.711,3.5774,3.4776,3.4404,3.4962,3.5557,3.5872,3.5872,3.5821,3.5811,3.5811,3.5774,3.5581,3.5199,3.5687,3.6267,3.6841,3.6267,3.6453,3.7394,3.5757,3.5005,3.5122,3.4211,3.3476,3.2889,3.2082,3.1733,3.1733,3.1733,3.1861,3.2045,3.2045,3.2192,3.2383,3.2347,3.1948,3.1384,0.0,0.0,0.0,0.0,0.0,0.0,0.0,0.0,0.0,0.0,0.0,0.0,0.0,0.0,0.0,0.0,0.0,0.0,0.0,0.0,0.0,0.0,0.0,0.0,0.0,0.0,0.0,0.0,0.0,0.0,0.0,0.0,0.0,0.0,0.0,0.0,0.0,0.0,0.0,0.0,0.0,0.0,0.7066,0.7778,0.7559,0.7034,0.8933,0.0,0.0,0.0,1.0694,1.1003,1.1797,1.2574,0.0,1.3555,1.4551,1.5748,1.6903,1.8587,2.044,2.223,2.4099,2.5839,2.7186,2.8008,2.9071,3.1102,3.0996,3.0747,3.1492,3.1652,3.1903,3.2577,3.3892,3.5274,3.6658,3.6806,3.6518,3.5723,3.4336,3.344,0.0,3.4117,3.4566,3.4566,3.5226,3.5633,3.5633,3.6071,3.6347,3.6347,3.689,3.7157,3.7175,3.7157,3.7157,3.7195,3.5563,3.5043,3.5457,3.4308,3.3788,3.3715,3.2926,3.2577,3.2577,3.2577,3.3036,3.3733,3.3733,3.4211,3.4789,3.4009,3.2742,3.1384,0.0,0.0,0.0,0.0,0.0,0.0,0.0,0.0,0.0,0.0,0.0,0.0,0.0,0.0,0.0,0.0,0.0,0.0,0.0,0.0,0.0,0.0,0.0,0.0,0.0,0.0,0.0,0.0,0.0,0.0,0.0,0.0,0.0,0.0,0.0,0.0,0.0,0.0,0.0,0.0,0.0,0.0,0.6271,0.6135,0.5706,0.5362,0.0,0.0,0.0,0.0,0.9074,0.9376,1.0306,1.0591,0.0,1.1519,1.3273,1.5258,1.6705,1.8213,2.003,2.2972,2.4619,2.6083,2.8225,2.899,2.9477,3.0114,2.9416,2.8551,2.8338,2.9022,2.9816,3.0508,3.256,3.4168,3.4644,3.5497,3.544,3.3682,3.3419,0.0,0.0,0.0,0.0,3.4421,3.5182,3.5622,3.5622,3.7024,3.724,3.5888,3.6842,3.7149,3.6684,3.6684,3.6843,3.7155,3.5562,3.4761,3.4655,3.3791,3.355,3.3807,3.41,3.4183,3.422,3.4816,3.522,3.5459,3.5459,3.5624,3.5826,3.555,3.511,3.4486,0.0,0.0,0.0,0.0,0.0,0.0,0.0,0.0,0.0,0.0,0.0,0.0,0.0,0.0,0.0,0.0,0.0,0.0,0.0,0.0,0.0,0.0,0.0,0.0,0.0,0.0,0.0,0.0,0.0,0.0,0.0,0.0,0.0,0.0,0.0,0.0,0.0,0.0,0.0,0.0,0.0,0.0,0.5644,0.5006,0.4568,0.0,0.0,0.0,0.0,0.0,0.7816,0.837,0.8889,0.9342,0.9973,1.1495,1.3511,1.5582,1.7279,1.8945,2.0901,2.3836,2.538,2.6755,2.8857,2.9266,2.916,2.8906,2.7799,2.6662,2.6019,2.638,2.7196,2.8342,3.0006,3.1565,3.2736,3.3453,3.3565,3.2869,3.2729,3.2463,0.0,0.0,0.0,3.4015,3.5301,3.6028,3.6028,3.7513,3.7661,3.6079,3.6813,3.6869,3.6114,3.6097,3.6153,3.6207,3.5349,3.4534,3.3804,3.3484,3.3327,3.3368,3.4166,3.451,3.4601,3.5706,3.6159,3.6191,3.6352,3.6431,3.6395,3.6103,3.6024,3.5878,0.0,0.0,0.0,0.0,0.0,0.0,0.0,0.0,0.0,0.0,0.0,0.0,0.0,0.0,0.0,0.0,0.0,0.0,0.0,0.0,0.0,0.0,0.0,0.0,0.0,0.0,0.0,0.0,0.0,0.0,0.0,0.0,0.0,0.0,0.0,0.0,0.0,0.0,0.0,0.0,0.0,0.0,0.5009,0.4398,0.0,0.0,0.0,0.0,0.0,0.0,0.0,0.0,0.7718,0.8951,1.0946,1.3209,1.5061,1.6786,1.8448,2.0668,2.2918,2.4675,2.6282,2.7693,2.8828,2.8729,2.8241,2.756,2.6299,2.5164,0.0,0.0,2.4187,2.6231,2.666,2.7886,3.1166,3.1102,3.1418,0.0,0.0,0.0,0.0,0.0,0.0,3.3525,0.0,3.6806,3.6823,3.7584,3.7652,3.6857,3.6874,3.6502,3.569,3.5639,3.5267,3.4539,3.4981,3.4431,3.3124,3.3476,3.3246,3.2643,3.3404,3.3705,3.3846,3.533,3.5948,3.6022,3.6538,3.6726,3.6636,3.5915,3.5645,3.5728,0.0,0.0,0.0,0.0,0.0,0.0,0.0,0.0,0.0,0.0,0.0,0.0,0.0,0.0,0.0,0.0,0.0,0.0,0.0,0.0,0.0,0.0,0.0,0.0,0.0,0.0,0.0,0.0,0.0,0.0,0.0,0.0,0.0,0.0,0.0,0.0,0.0,0.0,0.0,0.0,0.0,0.0,0.4388,0.0,0.0,0.0,0.0,0.0,0.0,0.0,0.0,0.0,0.0,1.0394,1.1715,1.2307,1.4398,1.6807,1.8282,1.9977,2.1854,2.3824,2.5077,2.5887,2.6185,2.63,2.5959,2.4888,2.3316,2.2041,0.0,0.0,0.0,2.5455,2.7527,0.0,3.1916,3.2971,0.0,3.4266,0.0,3.4651,3.4992,3.5402,0.0,0.0,3.6451,3.7026,3.7584,3.8836,3.8937,3.7652,3.8142,3.7804,3.6502,3.591,3.552,3.5318,3.4873,3.4675,3.4627,3.4189,3.4034,3.4182,3.4959,3.5295,3.5366,3.6465,3.6872,3.6872,3.7038,3.7075,3.711,3.7465,3.7607,3.7607,0.0,0.0,0.0,0.0,0.0,0.0,0.0,0.0,0.0,0.0,0.0,0.0,0.0,0.0,0.0,0.0,0.0,0.0,0.0,0.0,0.0,0.0,0.0,0.0,0.0,0.0,0.0,0.0,0.0,0.0,0.0,0.0,0.0,0.0,0.0,0.0,0.0,0.0,0.0,0.0,0.0,0.0,0.0,0.0,0.0,0.0,0.0,0.0,0.0,0.0,0.0,0.943,1.0706,1.1894,1.2936,1.3739,0.0,1.7775,1.9559,2.0827,2.2085,2.3878,2.4365,2.4403,2.4403,2.4161,2.3581,2.2377,2.1054,0.0,1.9932,2.0517,0.0,0.0,0.0,0.0,3.0477,3.1898,3.309,0.0,3.5016,0.0,3.6052,3.6787,3.7415,0.0,3.7753,3.7939,3.8362,3.9462,3.9546,3.8413,3.8464,3.7956,3.6789,3.6349,3.6129,3.6129,3.5351,3.4967,3.4864,3.4453,3.422,3.4168,0.0,3.53,3.537,3.6151,3.673,3.7026,3.7253,3.7544,3.7877,3.8275,3.8432,3.8391,0.0,0.0,0.0,0.0,0.0,0.0,0.0,0.0,0.0,0.0,0.0,0.0,0.0,0.0,0.0,0.0,0.0,0.0,0.0,0.0,0.0,0.0,0.0,0.0,0.0,0.0,0.0,0.0,0.0,0.0,0.0,0.0,0.0,0.0,0.0,0.0,0.0,0.0,0.0,0.0,0.0,0.0,0.0,0.0,0.0,0.0,0.0,0.0,0.0,0.0,1.0003,1.0266,1.2041,1.3286,1.442,1.5934,1.7386,1.8966,2.0986,2.1911,2.2633,2.4119,2.3755,2.305,2.3031,2.2261,2.1186,2.0067,0.0,1.8849,1.8788,1.9419,2.057,2.253,0.0,2.5944,2.8622,3.0088,3.1615,3.3558,3.4983,3.6075,3.6787,3.7469,3.8136,3.8807,3.8858,3.8908,3.914,3.9732,3.9783,3.9157,3.843,3.7736,3.7077,3.6975,3.6874,3.6772,3.6096,3.5385,3.4641,3.4641,3.4303,3.3744,3.4472,3.4793,3.4861,3.5605,3.6332,3.6971,3.7384,3.7966,3.8491,3.8594,3.8629,3.8601,0.0,0.0,0.0,0.0,0.0,0.0,0.0,0.0,0.0,0.0,0.0,0.0,0.0,0.0,0.0,0.0,0.0,0.0,0.0,0.0,0.0,0.0,0.0,0.0,0.0,0.0,0.0,0.0,0.0,0.0,0.0,0.0,0.0,0.0,0.0,0.0,0.0,0.0,0.0,0.0,0.0,0.0,0.0,0.0,0.0,0.0,0.0,0.0,0.0,0.0,0.9915,1.1885,1.2987,1.4414,1.5722,1.5605,1.677,1.8372,1.9475,2.0315,2.1228,2.2592,2.2099,2.1314,2.1184,2.0291,0.0,0.0,1.8049,1.7747,1.8159,1.9238,2.084,2.3223,2.5538,2.7993,3.0657,3.2153,3.3532,0.0,3.596,3.6723,3.7552,3.7738,0.0,0.0,3.8028,3.8581,3.9834,4.0003,4.002,3.9884,3.9191,3.8751,3.8616,3.8007,3.7398,3.6772,3.6637,3.618,3.5419,3.5419,3.5351,3.5284,3.6045,0.0,3.6451,3.7195,3.7584,3.7719,3.778,3.7895,3.8099,3.8693,3.8914,3.8914,0.0,0.0,0.0,0.0,0.0,0.0,0.0,0.0,0.0,0.0,0.0,0.0,0.0,0.0,0.0,0.0,0.0,0.0,0.0,0.0,0.0,0.0,0.0,0.0,0.0,0.0,0.0,0.0,0.0,0.0,0.0,0.0,0.0,0.0,0.0,0.0,0.0,0.0,0.0,0.0,0.0,0.0,0.0,0.0,0.0,0.0,0.0,0.0,0.0,0.0,0.9447,1.1305,1.2602,1.4015,1.5295,1.5683,1.6973,1.8587,1.9754,2.0855,2.1897,2.2698,2.2039,2.1047,2.0357,0.0,0.0,0.0,1.7072,1.7034,1.7585,1.8464,0.0,2.2406,2.4139,2.6312,2.9525,3.0836,0.0,3.4258,3.5445,3.6393,0.0,3.7573,3.7822,3.7822,3.8149,3.8707,3.9437,3.9885,3.9901,3.9529,3.9546,3.9377,3.8988,3.865,3.8294,3.7922,3.755,3.7178,3.6806,3.6806,3.6806,3.684,3.7195,3.7364,3.7398,3.7753,3.8125,3.8464,3.8464,3.87,3.9089,3.9428,3.9546,3.9546,0.0,0.0,0.0,0.0,0.0,0.0,0.0,0.0,-0.7462,-0.8437,-0.8303,-0.7776,-0.6874,-0.7041,0.0,0.0,0.0,0.0,0.0,0.0,0.0,0.0,0.0,0.0,0.0,0.0,0.0,0.0,0.0,0.0,0.0,0.0,0.0,0.0,0.0,0.0,0.0,0.0,0.0,0.0,0.0,0.0,0.0,0.0,0.0,0.0,0.0,0.0,0.0,0.0,0.8517,0.9845,1.1277,1.2995,1.4616,1.5405,1.7006,1.8714,1.9887,2.1073,2.2061,2.2555,2.1726,2.0496,1.9614,1.8271,0.0,0.0,1.6423,1.6637,1.7034,0.0,1.9125,0.0,2.2392,2.4265,2.7676,2.9017,3.0507,0.0,3.4546,0.0,3.6322,3.6935,0.0,3.7294,3.8003,3.8564,3.8854,3.9662,3.9767,3.9009,3.9716,3.98,3.9225,3.9225,3.9157,3.8988,3.8413,3.8058,3.7905,3.7905,3.7905,3.7922,3.8075,3.8142,3.8159,3.8311,3.87,3.9225,3.9225,3.958,4.007,4.007,4.007,4.007,0.0,0.0,0.0,0.0,0.0,0.0,0.0,0.0,-0.7842,-0.8957,-0.8905,-0.8383,-0.7527,-0.7662,0.0,0.0,0.0,0.0,0.0,0.0,0.0,0.0,0.0,0.0,0.0,0.0,0.0,0.0,0.0,0.0,0.0,0.0,0.0,0.0,0.0,0.0,0.0,0.0,0.0,0.0,0.0,0.0,0.0,0.0,0.0,0.0,0.0,0.0,0.0,0.0,0.0,0.7909,0.8911,1.1686,1.4505,1.4296,0.0,0.0,1.8252,1.8932,1.9768,2.049,1.9449,1.825,1.8263,0.0,0.0,1.5832,1.6139,1.6522,1.6552,0.0,0.0,0.0,0.0,2.4361,2.6489,2.8423,3.0328,3.2362,0.0,0.0,3.5559,3.5683,3.5748,3.5748,3.6399,3.7408,3.8854,3.9662,3.9749,3.8933,3.968,4.0054,3.9986,3.9969,3.9648,3.8988,3.892,3.8548,3.7905,3.7905,3.7905,3.7939,3.8616,3.8886,0.0,3.9597,3.9918,3.9969,3.9969,4.002,4.007,4.007,4.007,4.007,0.0,0.0,0.0,0.0,0.0,0.0,0.0,0.0,-0.7756,-0.9305,-0.9252,-0.8931,-0.8571,-0.833,0.0,0.0,0.0,0.0,0.0,0.0,0.0,0.0,0.0,0.0,0.0,0.0,0.0,0.0,0.0,0.0,0.0,0.0,0.0,0.0,0.0,0.0,0.0,0.0,0.0,0.0,0.0,0.0,0.0,0.0,0.0,0.0,0.0,0.0,0.0,0.0,0.0,0.0,0.7554,0.9516,0.0,0.0,1.5124,1.7295,1.7559,1.8913,2.005,1.9435,1.8774,1.8059,1.7237,0.0,1.5466,1.5588,1.5776,1.6205,1.6929,1.732,0.0,0.0,0.0,0.0,2.4436,2.5546,2.7225,3.0396,3.1886,0.0,0.0,0.0,3.5668,3.6117,3.6446,3.6904,3.7467,3.8674,3.9437,3.961,3.9952,4.007,4.007,4.007,3.9935,3.9648,3.9648,3.9495,3.9208,3.9208,3.9208,3.9225,3.9512,3.9648,0.0,3.9952,4.007,4.007,4.007,4.007,4.007,4.007,4.007,4.007,0.0,0.0,0.0,0.0,0.0,0.0,-0.7154,-0.7235,-0.7729,-0.9345,-0.9372,-0.915,-0.9064,-0.851,-0.7516,-0.5995,0.0,0.0,0.0,0.0,0.0,0.0,0.0,0.0,0.0,0.0,0.0,0.0,0.0,0.0,0.0,0.0,0.0,-0.3093,0.0,0.0,0.0,0.0,0.0,0.0,0.0,0.0,0.0,0.0,0.0,0.0,0.0,0.0,0.0,0.0,0.0,0.0,0.0,0.0,0.0,0.0,1.3877,1.5994,1.6617,1.8067,1.9204,1.8208,1.7814,1.7335,0.0,0.0,1.4835,1.5231,1.5499,1.5885,1.6948,1.7061,1.7523,0.0,0.0,1.9927,2.2752,2.3582,2.5228,0.0,0.0,3.1753,0.0,3.4981,3.5733,3.6228,3.6275,3.6399,3.6615,3.7642,3.8453,3.9032,3.9279,3.9401,3.9401,3.9401,3.9401,3.9401,3.9401,3.9401,3.9401,3.9401,3.9401,3.9454,3.9662,3.9731,0.0,4.002,4.007,4.007,4.007,4.007,4.007,4.007,4.007,4.007,0.0,0.0,0.0,0.0,0.0,0.0,0.0,0.0,-0.7889,-0.903,-0.919,-0.9077,-0.8844,-0.8016,-0.7178,-0.6282,0.0,0.0,0.0,0.0,0.0,0.0,0.0,0.0,0.0,0.0,0.0,0.0,0.0,0.0,0.0,0.0,0.0,0.0,0.0,0.0,0.0,0.0,0.0,0.0,0.0,0.0,0.0,0.0,0.0,0.0,0.0,0.0,0.0,0.0,0.0,0.0,0.0,0.0,0.0,0.0,1.2131,1.4079,1.5139,1.5762,1.6227,1.6456,1.6102,1.5519,0.0,0.0,1.4698,1.4698,1.5186,1.5776,1.6392,1.7438,1.8191,1.8204,0.0,0.0,2.1728,2.3373,2.5264,0.0,0.0,3.0484,3.3244,3.4711,3.5504,3.5504,3.5504,0.0,3.6554,3.6615,3.66,3.6676,3.7397,3.7806,3.7806,3.7806,3.7806,3.7806,3.7806,3.7806,3.7806,3.7806,3.7806,3.7863,3.858,3.8908,0.0,3.9782,4.007,4.007,4.007,4.007,4.007,4.007,4.007,4.007,0.0,0.0,0.0,0.0,0.0,0.0,0.0,0.0,-0.6693,-0.7876,-0.7849,-0.7773,-0.7872,-0.7139,-0.6496,-0.6209,0.0,0.0,0.0,0.0,0.0,0.0,0.0,0.0,0.0,0.0,0.0,0.0,0.0,0.0,0.0,0.0,0.0,0.0,0.0,0.0,0.0,0.0,0.0,0.0,0.0,0.0,0.0,0.0,0.0,0.0,0.0,0.0,0.0,0.0,0.0,0.0,0.0,0.0,0.0,0.9452,1.1085,1.2709,1.3399,1.4141,1.4763,1.4845,1.454,1.4061,1.3531,0.0,0.0,1.4014,1.4549,1.5302,1.6245,1.6769,1.7426,1.8581,1.9193,0.0,0.0,0.0,0.0,2.7229,3.0702,3.3386,0.0,0.0,3.5504,3.5504,3.5504,3.5619,3.5846,3.5831,3.6352,3.7397,3.769,3.7822,3.7822,3.7822,3.7822,3.7822,3.7822,3.7822,3.7822,3.7822,3.7822,3.7806,3.8035,3.8149,3.8149,3.843,3.8541,3.8613,3.9086,3.9262,3.9368,3.9901,4.007,4.007,0.0,0.0,0.0,0.0,0.0,0.0,0.0,0.0,-0.6142,-0.681,-0.6716,-0.6674,-0.6966,-0.6217,-0.5749,-0.5798,0.0,0.0,0.0,0.0,0.0,0.0,0.0,0.0,0.0,0.0,0.0,0.0,0.0,0.0,0.0,0.0,0.0,0.0,0.0,0.0,0.0,0.0,0.0,0.0,0.0,0.0,0.3592,0.0,0.0,0.0,0.0,0.0,0.0,0.0,0.0,0.0,0.0,0.0,0.0,0.0,0.9395,1.0737,0.0,1.2962,1.3357,1.3357,1.334,1.3154,0.0,0.0,0.0,0.0,1.4097,1.4649,1.5603,1.6329,1.7143,1.8179,1.9083,0.0,0.0,0.0,0.0,2.6884,0.0,0.0,0.0,3.4996,3.5504,3.5504,3.5504,3.5504,3.5504,3.5504,3.591,3.689,3.6951,3.6951,3.6951,3.6951,3.6951,3.6951,3.6951,3.6951,3.6951,3.6951,3.6951,3.6951,3.7219,3.7338,0.0,3.769,3.7822,3.7879,3.8318,3.8469,3.8541,3.9049,3.9226,3.9226,0.0,0.0,0.0,0.0,0.0,0.0,0.0,0.0,0.0,0.0,0.0,-0.5815,-0.6013,-0.5294,0.0,0.0,0.0,0.0,0.0,0.0,0.0,0.0,0.0,0.0,0.0,0.0,0.0,-0.3809,-0.367,-0.3755,-0.3935,0.0,0.0,0.0,0.0,0.0,0.0,-0.0,0.1375,0.3496,0.2374,0.2614,0.0,0.0,0.0,0.0,0.0,0.0,0.0,0.0,0.0,0.0,0.0,0.0,0.0,0.0,0.0,0.0,0.0,1.2037,1.2056,1.2171,1.2539,1.2734,1.2363,0.0,0.0,0.0,0.0,1.3978,1.4603,1.6054,1.7206,1.7325,1.9187,2.0435,0.0,2.1907,0.0,0.0,3.0012,0.0,3.2148,3.4103,3.5424,3.5504,3.5504,3.5504,3.5504,3.5504,3.5504,3.5504,3.5504,3.5504,3.5504,3.5504,3.5504,3.5504,3.5504,3.5504,3.5504,3.5504,3.5504,0.0,3.6212,3.6492,0.0,3.7338,3.7648,3.7648,3.769,3.769,3.769,3.7764,3.7822,3.7822,0.0,0.0,0.0,0.0,0.0,0.0,0.0,0.0,0.0,0.0,0.0,0.0,0.0,0.0,0.0,0.0,0.0,0.0,0.0,0.0,0.0,0.0,0.0,0.0,0.0,0.0,0.0,-0.388,-0.3821,-0.4006,-0.4342,-0.4327,0.0,0.0,0.0,-0.0,-0.0,-0.0,0.1411,0.3561,0.3299,0.3346,0.0,0.0,0.0,0.0,0.4049,0.4609,0.0,0.0,0.0,0.0,0.0,0.0,0.0,0.0,0.8211,0.9095,1.0263,0.0,1.0848,1.1924,1.2258,1.2441,0.0,0.0,0.0,0.0,0.0,1.4037,1.4874,1.5411,1.6113,1.7277,1.8795,1.9963,2.0241,0.0,0.0,2.8079,3.0733,3.2621,3.2904,3.3781,3.4691,3.5424,3.5504,3.5504,3.5504,3.5504,3.5504,3.5504,3.5504,3.5504,3.5504,3.5504,3.5504,3.5504,3.5504,3.5504,3.5504,3.5504,3.5504,3.5504,3.5668,3.5782,3.5782,3.5958,3.6022,3.6085,3.6692,3.6904,3.6964,3.7573,3.7822,3.7822,0.0,0.0,0.0,0.0,0.0,0.0,0.0,0.0,0.0,0.0,0.0,0.0,0.0,0.0,0.0,0.0,0.0,0.0,0.0,0.0,0.0,0.0,0.0,0.0,0.0,0.0,0.0,0.0,0.0,-0.3452,0.0,0.0,0.0,0.0,0.0,0.0597,0.1661,0.1672,0.2427,0.3592,0.3611,0.0,0.0,0.0,0.0,0.0,0.3924,0.4395,0.0,0.5906,0.6582,0.7103,0.0,0.0,0.0,0.0,0.7814,0.8311,0.9076,0.9844,1.0686,1.1659,1.208,1.2295,1.2529,0.0,0.0,0.0,0.0,0.0,1.4236,1.4689,1.5559,1.7343,1.8794,0.0,0.0,0.0,2.7229,2.833,3.0272,3.1768,0.0,3.2905,3.3739,3.4758,3.4839,3.4986,3.5504,3.5504,3.5504,3.5504,3.5504,3.5504,3.5504,3.5504,3.5504,3.5504,3.5504,3.5504,3.5504,3.5504,3.5504,3.5504,3.5504,3.5504,3.5504,3.5504,3.5504,3.5569,3.5943,3.6117,3.618,3.66,3.6707,3.6707,0.0,0.0,0.0,0.0,0.0,0.0,0.0,0.0,0.0,0.0,0.0,0.0,0.0,0.0,0.0,0.0,0.0,0.0,0.0,0.0,0.0,0.0,0.0,0.0,0.0,0.0,0.0,0.0,0.0,0.0,0.0,0.0,-0.0,0.0,-0.0,0.1357,0.3605,0.3609,0.3616,0.3615,0.3581,0.0,0.0,0.0,0.0,0.0,0.0,0.0,0.0,0.5831,0.6394,0.6769,0.7524,0.0,0.0,0.0,0.0,0.0,0.8275,0.9675,1.0987,1.1412,1.1947,1.2334,1.2334,0.0,0.0,0.0,0.0,0.0,0.0,1.4195,0.0,0.0,0.0,0.0,2.4578,2.5598,2.6502,2.7934,2.9387,0.0,3.1022,3.1834,3.282,3.3739,3.3808,3.4177,3.5001,3.5213,3.5279,3.5279,3.5424,3.5504,3.5504,3.5504,3.5504,3.5504,3.5504,3.5504,3.5504,3.5504,3.5504,3.5504,0.0,0.0,3.5504,3.5504,3.5504,3.5504,3.5504,3.5504,3.5504,3.5504,3.5504,3.5504,0.0,0.0,0.0,0.0,0.0,0.0,0.0,0.0,0.0,0.0,0.0,0.0,0.0,0.0,0.0,0.0,0.0,0.0,0.0,0.0,0.0,0.0,0.0,0.0,0.0,0.0,0.0,0.0,0.0,0.0,-0.0669,-0.0245,-0.0,-0.0,-0.0,0.1346,0.3612,0.3592,0.3581,0.3578,0.3602,0.0,0.0,0.0,0.0,0.0,0.0,0.0,0.0,0.5962,0.6526,0.6973,0.7105,0.0,0.0,0.0,0.0,0.0,0.9306,1.0241,1.0883,1.1195,1.2054,1.2783,0.0,0.0,0.0,0.0,0.0,0.0,0.0,1.4674,1.5921,0.0,0.0,2.3806,0.0,0.0,2.7808,2.8072,0.0,3.0086,3.0461,3.105,3.1815,3.2749,3.282,3.289,3.3031,3.3822,3.4245,3.4245,3.5067,3.5504,3.5504,3.5504,3.5504,3.5504,3.5504,3.5504,3.5504,3.5504,3.5504,3.5504,0.0,3.5504,3.5504,3.5504,3.5504,3.5504,3.5504,3.5504,3.5504,3.5504,3.5504,3.5504,0.0,0.0,0.0,0.0,0.0,0.0,0.0,0.0,0.0,0.0,0.0,0.0,0.0,0.0,0.0,0.0,0.0,0.0,0.0,0.0,0.0,0.0,0.0,0.0,0.0,0.0,0.0,0.0,0.0,-0.2395,-0.0,-0.0,-0.0,-0.0,-0.0,0.0959,0.2692,0.3331,0.3595,0.3581,0.0,0.0,0.0,0.0,0.0,0.0,0.0,0.0,0.0,0.0,0.629,0.6824,0.7174,0.0,0.0,0.0,0.0,0.0,0.9011,0.9831,1.0514,1.1304,1.2213,0.0,0.0,0.0,0.0,0.0,0.0,0.0,0.0,0.0,1.6138,1.8428,0.0,2.5003,2.5863,2.7222,2.821,0.0,0.0,2.9492,3.0046,3.0277,3.0833,3.1742,3.1815,3.2033,3.2593,3.3031,3.3241,3.3241,3.3685,3.3905,3.3905,3.4409,3.4986,3.5504,3.5504,3.5504,3.5504,3.5504,3.5504,3.5504,0.0,3.5504,3.5504,3.5504,3.5504,3.5504,3.5504,3.5504,3.5504,3.5504,3.5504,3.5504,0.0,0.0,0.0,0.0,0.0,0.0,0.0,0.0,0.0,0.0,0.0,0.0,0.0,0.0,0.0,0.0,0.0,0.0,0.0,0.0,0.0,0.0,0.0,0.0,0.0,0.0,-0.3872,-0.3822,-0.3077,-0.1824,-0.0,-0.0,-0.0,-0.0,0.0612,0.1221,0.1875,0.309,0.3588,0.3581,0.0,0.0,0.0,0.0,0.0,0.0,0.0,0.0,0.0,0.0,0.0,0.0,0.0,0.0,0.0,0.7088,0.6979,0.7276,0.8564,0.929,0.9998,1.1421,0.0,0.0,0.0,0.0,0.0,0.0,0.0,0.0,0.0,1.5693,0.0,1.9431,2.318,2.5831,2.5961,2.7446,2.8662,2.9076,2.9126,2.9302,2.9754,2.9792,3.0075,3.0833,3.0908,3.1193,3.1901,3.2177,3.2249,3.2249,3.2464,3.2593,3.2593,3.331,3.4177,3.5133,3.5359,3.5504,3.5504,3.5504,3.5504,3.5504,3.5504,3.5504,3.5504,3.5504,3.5504,3.5504,3.5504,3.5504,3.5504,3.5504,3.5504,3.5504,0.0,0.0,0.0,0.0,0.0,0.0,0.0,0.0,0.0,0.0,0.0,0.0,0.0,0.0,0.0,0.0,0.0,0.0,0.0,0.0,0.0,0.0,0.0,0.0,0.0,-0.3056,-0.3872,-0.4452,-0.1649,-0.0191,-0.0,-0.0,-0.0,0.0101,0.2329,0.2748,0.1875,0.3084,0.3581,0.3581,0.3581,0.0,0.0,0.0,0.0,0.0,0.0,0.0,0.0,0.0,0.0,0.0,0.0,0.0,0.7047,0.6985,0.6979,0.7276,0.8564,0.8928,0.9408,1.1323,0.0,0.0,0.0,0.0,0.0,0.0,0.0,0.0,0.0,1.744,1.9638,2.106,2.4203,2.6709,2.7133,0.0,2.9679,2.9729,2.9729,2.9741,2.9792,2.9792,2.9869,2.9856,2.9934,2.9934,2.9998,3.0833,3.1315,3.1315,3.2177,3.2593,3.2593,3.2664,3.3171,3.4095,3.5052,3.5504,3.5504,3.5504,3.5504,3.5504,3.5504,3.5504,3.5504,3.5504,3.5504,3.5504,3.5504,3.5504,3.5504,3.5504,3.5504,3.5504,0.0,0.0,0.0,0.0,0.0,0.0,0.0,0.0,0.0,0.0,0.0,0.0,0.0,0.0,0.0,0.0,0.0,0.0,0.0,0.0,0.0,0.0,0.0,-0.2697,-0.0703,-0.1131,-0.1446,-0.1696,-0.0528,-0.0,-0.0,-0.0,0.0,0.0,0.3183,0.3428,0.3109,0.3436,0.3632,0.3704,0.3615,0.3581,0.0,0.0,0.0,0.0,0.0,0.0,0.0,0.0,0.6386,0.6979,0.0,0.0,0.6979,0.6979,0.6979,0.7276,0.8564,0.9198,0.9913,1.1421,0.0,0.0,0.0,0.0,0.0,0.0,0.0,0.0,0.0,0.0,1.9274,2.032,2.3427,2.5641,2.5414,2.7956,2.9534,2.8858,2.9365,2.9792,2.9792,2.9792,2.9792,2.9792,2.9792,2.9792,2.9792,3.0139,3.0176,2.9804,3.0077,3.0116,2.9836,3.0756,3.1446,3.1801,3.3086,3.3973,3.4543,3.4543,3.4905,3.5504,3.5504,3.5504,3.5504,3.5504,3.5504,3.5504,3.5504,3.5504,3.5504,3.5504,3.5504,3.5504,0.0,0.0,0.0,0.0,0.0,0.0,0.0,0.0,0.0,0.0,0.0,0.0,0.0,0.0,0.0,0.0,0.0,0.0,0.0,0.0,0.0,0.0,0.0,-0.1676,-0.0052,-0.0,-0.0,-0.0,-0.0,-0.0,-0.0,0.0,0.0,0.0,0.3815,0.3846,0.3969,0.376,0.3704,0.3778,0.3636,0.3581,0.0,0.0,0.0,0.0,0.0,0.0,0.0,0.0,0.6301,0.0,0.0,0.0,0.0,0.0,0.6979,0.724,0.8296,0.9059,0.9913,0.0,0.0,0.0,0.0,0.0,0.0,0.0,0.0,0.0,0.0,0.0,0.0,0.0,2.2482,2.4401,2.3995,2.6744,2.8358,2.7293,2.8435,2.9176,2.8845,2.9249,2.9453,2.9277,2.9591,2.9641,2.9277,2.9428,2.9264,2.8687,2.8662,2.8574,2.836,2.9378,3.003,3.0212,3.1229,3.2321,3.3533,3.3533,3.3959,3.4558,3.4558,3.4558,3.4624,3.4905,3.5213,3.5504,3.5504,3.5504,3.5504,3.5504,3.5504,3.5534,0.0,0.0,0.0,0.0,0.0,0.0,0.0,0.0,0.0,0.0,0.0,0.0,0.0,0.0,0.0,0.0,0.0,0.0,0.0,0.0,0.0,0.0,0.0,-0.0,-0.0,-0.0,-0.0,-0.0,-0.0,-0.0,0.0118,0.3085,0.0,0.0,0.427,0.4193,0.4182,0.3911,0.3792,0.3778,0.3636,0.3581,0.3581,0.0,0.0,0.0,0.0,0.0,0.0,0.0,0.5701,0.6307,0.0,0.0,0.0,0.0,0.6985,0.7118,0.7722,0.8381,0.922,0.0,0.0,0.0,0.0,0.0,0.0,0.0,0.0,0.0,0.0,0.0,0.0,1.9775,2.1609,2.3055,2.3429,2.5281,2.6224,2.5326,2.6875,2.7705,2.6677,2.7951,2.8699,2.8147,2.9151,2.9289,2.816,2.8624,2.8662,2.8109,2.8097,2.836,2.89,2.8913,2.9202,2.9779,2.9779,3.0784,3.2593,3.2593,3.2593,3.2593,3.2593,3.2593,3.2664,3.3602,3.4543,3.5439,3.5439,3.5439,3.5439,3.5439,3.5439,3.5594,0.0,0.0,0.0,0.0,0.0,0.0,0.0,0.0,0.0,0.0,0.0,0.0,0.0,0.0,0.0,0.0,0.0,0.0,0.0,0.0,0.0,0.0,0.0,0.0,0.0,0.0,-0.0,-0.0,-0.0,0.1068,0.0,0.0,0.0,0.4168,0.0,0.0,0.0,0.3863,0.3792,0.3778,0.3636,0.3581,0.3581,0.0,0.0,0.0,0.0,0.0,0.0,0.0,0.0,0.0,0.0,0.0,0.0,0.7088,0.7168,0.7422,0.7822,0.8741,0.0,0.0,0.0,0.0,0.0,0.0,0.0,0.0,0.0,0.0,1.9453,0.0,0.0,1.9824,2.1343,2.2262,2.189,2.4013,2.5226,2.4129,2.5831,2.6914,2.6602,2.7619,2.8285,2.8109,2.8411,2.8461,2.8122,2.826,2.8097,2.7544,2.7532,2.7419,2.7193,2.7959,2.8436,2.8612,2.9415,3.0419,3.1609,3.1609,3.196,3.2593,3.2593,3.2593,3.2593,3.289,3.3171,3.3463,3.3463,3.3463,3.3463,3.3463,3.3463,3.3561,0.0,0.0,0.0,0.0,0.0,0.0,0.0,0.0,0.0,0.0,-0.3548,-0.3404,0.0,0.0,0.0,0.0,0.0,0.0,0.0,0.0,0.0,0.0,0.0,0.0,0.0,0.0943,0.1432,0.0,0.0,0.0,0.0,0.0,0.0,0.4058,0.0,0.3807,0.0,0.3899,0.3846,0.3778,0.3636,0.3581,0.3581,0.0,0.0,0.0,0.0,0.0,0.0,0.0,0.0,0.0,0.0,0.0,0.0,0.7074,0.7235,0.7619,0.8157,0.9159,0.0,0.0,0.0,0.0,0.0,0.0,0.0,0.0,0.0,1.9414,1.9834,1.957,0.0,1.9619,2.0601,2.1075,2.0517,2.2174,2.3015,2.1958,2.376,2.4931,2.4345,2.6019,2.6966,2.6325,2.7379,2.7808,2.7143,2.7532,2.7532,2.6967,2.6954,2.6904,2.6791,2.7444,2.7896,2.8109,2.9013,2.972,3.0271,3.0517,3.0983,3.1476,3.1476,3.1696,3.2033,3.2033,3.2249,3.2593,3.2593,3.2593,3.2593,3.2593,3.2745,3.3066,0.0,0.0,-0.2751,-0.2903,0.0,0.0,0.0,0.0,0.0,0.0,-0.342,-0.3188,0.0,0.0,0.0,0.0,0.0,0.0,0.0,0.0,0.0,0.0,0.0,0.0,0.0,0.0,0.0,0.0,0.0,0.0,0.0,0.0,0.4102,0.4217,0.0,0.3485,0.0,0.4013,0.391,0.3761,0.3632,0.3581,0.3581,0.3581,0.0,0.0,0.0,0.0,0.0,0.0,0.0,0.0,0.6852,0.0,0.7054,0.7027,0.7235,0.7709,0.8653,0.0,0.0,0.0,0.0,0.0,1.7061,0.0,1.9512,2.0283,0.0,1.9473,1.9893,1.9629,1.9346,1.9346,1.9639,1.9727,1.9336,2.0063,2.0339,1.9433,2.1339,2.2209,2.0938,2.3618,2.4898,2.3546,2.6003,2.7005,2.5468,2.6502,2.6826,2.6258,2.6314,2.6621,2.7122,2.7172,2.746,2.8034,2.8586,2.8875,2.895,2.9528,2.9792,2.9792,2.9792,3.0279,3.1031,3.1031,3.1609,3.2321,3.2321,3.2321,3.2321,3.2321,3.2663,3.3151,0.0,0.0,-0.2907,-0.3049,0.0,0.0,0.0,0.0,0.0,0.0,0.0,0.0,0.0,0.0,0.0,0.0,0.0,0.0,0.0,0.0,0.0,0.0,0.0,0.0,0.0,0.0,0.0,0.0,0.0,0.0,0.0,0.0,0.0,0.4432,0.0,0.3948,0.0,0.3859,0.3758,0.3622,0.3592,0.3581,0.3581,0.3581,0.3581,0.0,0.0,0.0,0.0,0.0,0.0,0.0,0.6979,0.7181,0.7328,0.7094,0.7235,0.7709,0.0,0.9066,0.0,0.0,0.0,0.0,1.7637,1.8613,1.9336,1.9521,1.9678,1.9912,2.0352,2.0068,1.9775,1.9775,1.958,1.9394,1.9297,1.9505,1.9568,1.936,2.0493,2.1144,2.0836,2.214,2.2982,2.3062,2.3603,2.4022,2.3936,2.4969,2.5111,2.4181,2.4921,2.5348,2.5468,2.5925,2.6565,2.7469,2.8021,2.8511,2.895,2.9528,2.9792,2.9792,2.9792,2.9934,3.0075,3.0075,3.0216,3.0432,3.0432,3.0432,3.0432,3.0432,3.0509,3.0752,0.0,0.0,0.0,0.0,0.0,0.0,0.0,0.0,0.0,0.0,0.0,0.0,0.0,0.0,0.0,0.0,0.0,0.0,-0.0,-0.0,0.0494,0.1663,0.0,0.0,0.0,0.0,0.0,0.0,0.0,0.0,0.0,0.0,0.0,0.4146,0.0,0.3959,0.0,0.3829,0.371,0.3581,0.3581,0.3581,0.3581,0.3581,0.3751,0.4008,0.4303,0.0,0.0,0.0,0.0,0.0,0.0,0.0,0.7221,0.7068,0.7235,0.7709,0.0,0.0,0.0,0.0,0.0,0.0,1.7197,1.7744,1.8174,1.8594,1.918,1.9687,1.9912,1.9766,1.9551,1.9336,1.9121,1.8906,1.8701,1.8682,1.8682,1.8682,1.9334,1.9646,1.9512,2.0892,2.1669,2.1232,2.2265,2.288,2.2809,2.3555,2.3867,2.3514,2.4036,2.4264,2.4264,2.5038,2.5685,2.6233,2.7217,2.8134,2.895,2.9528,2.9792,2.9792,2.9792,2.9792,2.9792,2.9792,2.9792,2.9792,2.9792,2.9792,2.9792,2.9792,2.9955,3.0297,0.0,0.0,0.0,0.0,0.0,0.0,0.0,0.0,0.0,0.0,0.0,0.0,0.0,0.0,0.0,0.0,0.0,0.0,0.0584,0.0629,0.1437,0.32,0.0,0.0,0.0,0.0,0.0,0.0,0.0,0.0,0.0,0.0,0.0,0.3802,0.0,0.0,0.0,0.3765,0.3687,0.3581,0.3581,0.3581,0.3626,0.3707,0.4005,0.443,0.4652,0.5351,0.6221,0.6307,0.0,0.0,0.0,0.0,0.6979,0.6979,0.7194,0.7627,0.0,0.0,0.0,0.0,0.0,0.0,1.6338,1.6558,1.6953,1.7734,1.8525,1.9111,1.9258,1.9228,1.9053,1.8691,1.8574,1.8408,1.8057,1.8008,1.8008,1.8008,1.832,1.8389,1.8047,1.9727,2.0357,1.9241,2.1032,2.2006,2.1695,2.2203,2.2645,2.2988,2.3069,2.3172,2.3172,2.4002,2.4517,2.4661,2.608,2.7225,2.8112,2.8765,2.9369,2.9792,2.9792,2.9792,2.9792,2.9792,2.9792,2.9792,2.9792,2.9792,2.9792,2.9792,3.008,3.0482,0.0,0.0,0.0,0.0,0.0,0.0,0.0,0.0,0.0,0.0,-0.018,-0.0,0.0,0.0,-0.0,-0.0,-0.0,0.09,0.2988,0.0,0.0,0.2057,0.3043,0.0,0.0,0.0,0.0,0.0,0.0,0.0,0.0,0.0,0.0,0.3903,0.0,0.0,0.0,0.0,0.3598,0.3581,0.3581,0.3581,0.3667,0.4136,0.4347,0.4522,0.5567,0.605,0.6264,0.6725,0.6937,0.0,0.0,0.0,0.6979,0.6979,0.7054,0.7276,0.0,0.0,0.0,0.0,0.0,1.5439,0.0,0.0,1.6875,0.0,1.7852,1.8408,1.915,1.8984,1.8701,1.8582,1.833,1.8076,1.8018,1.8008,1.8008,1.8008,1.8057,1.8076,1.8018,1.8301,1.8547,1.8675,1.8983,1.9451,2.0148,2.0741,2.1021,2.0981,2.1447,2.1659,2.1659,2.2126,2.2644,2.3194,2.4186,2.4773,2.4933,2.588,2.7613,2.9792,2.9792,2.9792,2.9792,2.9792,2.9792,2.9792,2.9792,2.9792,2.9792,2.9792,2.9842,2.9967,0.0,0.0,0.0,0.0,0.0,0.0,0.0,0.0,0.0,0.0,0.0,-0.0,0.0,0.0,0.0539,0.1893,0.2025,0.2203,0.2561,0.3239,0.3369,0.2815,0.3309,0.3581,0.0,0.0,0.0,0.0,0.0,0.0,0.0,0.3643,0.3722,0.0,0.0,0.0,0.0,0.0,0.0,0.3581,0.3581,0.3581,0.3667,0.4176,0.4604,0.5,0.5873,0.6392,0.6689,0.6937,0.6979,0.6979,0.6979,0.0,0.0,0.0,0.6979,0.0,0.8386,0.0,0.0,0.0,1.3218,1.4404,1.4639,0.0,1.5762,1.6191,1.6621,1.7256,1.8369,1.8418,1.8281,1.8281,1.8135,1.8008,1.8008,1.8008,1.8008,1.8008,1.8008,1.8008,1.8008,1.8223,1.834,1.8291,1.8506,1.8799,1.918,1.9433,1.9623,1.9899,2.0322,2.0444,2.0202,2.1383,2.2445,2.3212,2.3992,2.4329,2.4352,2.5082,2.6558,2.8509,2.8724,2.9197,2.9792,2.9792,2.9792,2.9792,2.9792,2.9792,2.9792,2.9792,2.9792,2.9829,0.0,0.0,0.0,0.0,0.0,0.0,0.0,0.0,0.0,0.0,0.0,0.0,0.0,0.0,0.0,0.0,0.334,0.2873,0.2277,0.309,0.3588,0.3581,0.3581,0.3581,0.3581,0.0,0.0,0.0,0.0,0.0,0.3581,0.3615,0.3615,0.0,0.369,0.0,0.0,0.0,0.0,0.0,0.3581,0.3667,0.388,0.4439,0.5,0.561,0.6173,0.6647,0.6979,0.6979,0.6979,0.6979,0.6979,0.6979,0.0,0.0,0.0,0.0,0.0,0.0,0.0,0.0,1.261,1.3378,0.0,0.0,1.4766,0.0,1.5674,1.626,1.7461,1.7686,1.7686,1.7686,1.7686,1.7686,1.7686,1.7783,1.7852,1.7852,1.7949,1.8008,1.8008,1.8291,1.835,1.8037,1.8301,1.8525,1.8562,1.8535,1.8721,1.9268,1.9482,1.9443,1.9131,2.0457,2.1628,2.2603,2.2961,2.3264,2.3406,2.3896,2.4949,2.6337,2.7135,2.8068,2.8961,2.8961,2.9118,2.9365,2.904,2.9118,2.9365,2.9365,2.9365,2.9443,0.0,0.0,0.0,0.0,0.0,0.0,0.0,0.0,0.0,0.0,0.0,0.0,0.0,0.3392,0.3478,0.3571,0.2556,0.2366,0.3445,0.3581,0.3581,0.3581,0.3581,0.0,0.0,0.0,0.0,0.0,0.0,0.0,0.3585,0.3717,0.3707,0.3581,0.3588,0.3588,0.3581,0.0,0.0,0.0,0.3581,0.3924,0.4434,0.5043,0.561,0.6221,0.6768,0.6979,0.6979,0.6979,0.6979,0.6979,0.6979,0.6979,0.6979,0.0,0.0,0.0,0.0,0.8246,0.0,1.0244,0.0,0.0,0.0,0.0,0.0,1.5234,1.543,1.5723,1.6631,1.6797,1.6797,1.6797,1.6797,1.6797,1.6797,1.7158,1.7422,1.7422,1.7764,1.8008,1.8008,1.8027,1.8037,1.8008,1.8037,1.8213,1.8613,1.8262,1.8428,1.9258,1.8906,1.8691,1.8672,1.8711,1.9213,2.0092,2.0112,2.0338,2.0839,2.1214,2.2038,2.3246,2.5114,2.6197,2.6648,2.6648,2.729,2.8096,2.7046,2.729,2.8176,2.8176,2.8176,2.8347,0.0,0.0,0.0,0.0,0.0,0.0,0.0,0.0,0.0,0.0,0.0,0.0,0.0,0.3615,0.3612,0.3605,0.3226,0.3129,0.3578,0.3581,0.3581,0.3581,0.3581,0.0,0.0,0.0,0.0,0.0,0.0,0.3581,0.3581,0.3632,0.3629,0.3585,0.3676,0.3663,0.3581,0.3581,0.0,0.0,0.3965,0.422,0.4522,0.0,0.0,0.0,0.0,0.0,0.6979,0.6979,0.6979,0.6979,0.6979,0.6979,0.6979,0.6979,0.0,0.0,0.0,0.0,0.0,1.0146,1.1251,1.209,1.2351,1.3093,1.3818,1.4121,1.4404,1.4775,1.5371,1.6162,1.6665,1.6665,1.6665,1.6665,1.6665,1.6865,1.6963,1.6963,1.7344,1.75,1.7217,1.7686,1.7783,1.7236,1.7705,1.7959,1.7842,1.7949,1.8144,1.8457,1.8574,1.8769,1.9053,1.8779,1.8926,1.9512,1.9785,2.0,2.0166,2.0605,2.1184,2.1869,2.2869,2.4356,2.6105,2.6349,2.6719,2.7046,2.6637,2.6719,2.7046,2.7046,2.7046,2.7128,0.0,0.0,0.0,0.0,0.0,-0.0,0.0,0.0,0.0,0.0,0.0,0.0,0.0,0.0,0.3598,0.3592,0.3585,0.3581,0.3581,0.3581,0.3581,0.3581,0.3581,0.0,0.0,0.0,0.0,0.0,0.0,0.0,0.0,0.3581,0.3581,0.3585,0.368,0.367,0.0,0.0,0.0,0.3667,0.4176,0.4517,0.4831,0.0,0.0,0.0,0.0,0.0,0.7154,0.7054,0.6979,0.6979,0.6979,0.6979,0.7041,0.0,0.0,0.0,0.7954,0.0,0.0,0.0,0.0,1.1266,1.1715,0.0,1.3058,1.3426,1.373,1.4062,1.4482,1.5273,1.5897,1.624,1.6289,1.6289,1.6289,1.6416,1.6514,1.6514,1.6894,1.7051,1.6758,1.7246,1.7344,1.6714,1.7266,0.0,1.7178,1.7432,1.7646,1.7793,1.8076,1.8428,1.8857,1.8574,1.8643,1.9072,1.9355,1.9639,1.9922,2.0215,2.0596,2.1045,2.1631,2.3002,2.4723,2.5196,2.5557,2.5891,2.5473,2.5557,2.5975,2.5975,2.5975,2.5964,0.0,-0.1618,-0.0,-0.0,-0.0,0.0045,0.0,0.0,0.0,0.0,0.0,0.0,0.0,0.0,0.0,0.3592,0.3588,0.3588,0.3588,0.3581,0.3581,0.3581,0.3581,0.0,0.0,0.0,0.0,0.0,0.0,0.0,0.0,0.0,0.3581,0.3585,0.3581,0.3581,0.3581,0.0,0.3581,0.3667,0.0,0.4783,0.5415,0.0,0.0,0.0,0.7493,0.7493,0.0,0.7128,0.0,0.0,0.0,0.0,0.0,0.0,0.0,0.0,0.0,0.0,0.0,0.0,0.0,0.0,1.1466,0.0,1.2131,1.3237,1.3486,1.3613,1.398,1.4058,1.433,1.5234,1.5371,1.5371,1.5371,1.5732,1.6076,1.6086,1.6416,1.6626,1.6626,1.6655,1.6719,1.6636,1.6719,1.6665,1.6655,1.6665,1.6924,1.7344,1.7363,1.7568,1.7988,1.7988,1.8203,1.8553,1.8562,1.9082,1.9893,1.9902,2.0156,2.0635,2.1504,2.2129,2.2549,2.2969,2.3714,2.4617,2.3551,2.38,2.4787,2.4787,2.4787,2.4872,-0.1348,-0.0449,-0.0,-0.0,-0.0,0.0584,0.0,0.0,0.0,0.0,0.0,0.0,0.0,0.0,0.0,0.3897,0.3795,0.3734,0.3734,0.3636,0.3581,0.3581,0.3581,0.0,0.0,0.0,0.0,0.0,0.0,0.0,0.0,0.0,0.0,0.0,0.3626,0.3581,0.3581,0.3581,0.0,0.3667,0.4657,0.513,0.0,0.0,0.0,0.0,0.0,0.7141,0.7168,0.0,0.7341,0.7381,0.0,0.0,0.0,0.0,0.0,0.0,0.7782,0.0,0.0,0.0,0.0,0.0,1.0269,1.1116,1.19,1.2218,1.2672,1.3184,1.3603,1.3682,1.3857,1.435,1.4437,1.4437,1.4437,1.459,1.4785,1.5107,1.5518,1.5781,1.5781,1.6357,1.6465,0.0,1.6367,1.6592,1.626,1.6553,1.6787,1.6914,1.6914,1.7119,1.7549,1.7559,1.7764,1.8184,1.8496,1.8926,1.9473,1.9775,2.0332,2.1084,2.1641,2.2129,2.2549,2.2969,2.3309,2.3551,2.3222,2.3299,2.3551,2.3551,2.3551,2.3637,-0.0269,-0.0,-0.0,-0.0,0.1048,0.2249,0.0,0.0,0.0,0.0,0.0,0.0,0.0,0.0,0.0,0.4019,0.3938,0.3887,0.3887,0.3809,0.3734,0.3673,0.0,0.0,0.0,0.0,0.0,0.0,0.0,0.0,0.0,0.0,0.0,0.0,0.3615,0.3581,0.0,0.0,0.0,0.0,0.5056,0.0,0.0,0.6995,0.7357,0.0,0.0,0.0,0.7344,0.7308,0.7361,0.0,0.0,0.0,0.0,0.0,0.0,0.0,0.0,0.0,0.0,0.0,0.0,0.0,1.0064,1.0813,1.1566,1.2138,1.2608,1.2959,1.3203,1.3242,1.333,1.3574,1.3613,1.374,1.4029,1.4077,1.4175,1.4482,1.4727,1.4951,1.5127,1.5615,1.5781,1.5439,1.5889,1.6074,1.5811,1.6045,1.6286,1.6719,1.6553,1.6836,1.7637,1.7471,1.7598,1.8018,1.8437,1.8867,1.9307,1.9727,2.04,2.126,2.1699,2.2129,2.2549,2.2969,2.3135,2.3135,2.3135,2.3135,2.3135,2.3135,2.3135,2.3164,0.0,0.0225,0.0405,0.0497,0.2572,0.0,0.0,0.0,0.0,0.0,0.0,0.0,0.0,0.0,0.0,0.0,0.4056,0.4043,0.4043,0.4029,0.0,0.0,0.0,0.0,0.0,0.0,0.0,0.0,0.0,0.0,0.0,0.0,0.0,0.0,0.3588,0.3622,0.3707,0.0,0.0,0.4692,0.5435,0.6134,0.0,0.0,0.7855,0.7848,0.7615,0.7695,0.7809,0.7341,0.7348,0.0,0.0,0.0,0.0,0.0,0.8237,0.0,0.0,0.0,0.0,0.0,0.8644,0.0,1.032,1.0643,1.1124,1.2421,1.2676,1.2676,1.2774,1.2774,1.2774,1.2774,1.2832,1.3145,1.3887,1.3941,1.3961,1.4009,1.4009,1.4238,1.4678,1.4756,1.4941,1.5312,1.5381,1.541,1.541,1.541,1.5771,1.6562,1.625,1.665,1.7861,1.7549,1.7617,1.8086,1.8457,1.8887,1.9365,1.9746,2.04,2.126,2.1699,2.2129,2.2549,2.2969,2.3135,2.3135,2.3135,2.3135,2.3135,2.3135,2.3135,2.3203,-0.0,0.1573,0.3052,0.3541,0.0,0.0,0.0,0.0,0.0,0.0,0.0,0.0,0.0,0.0,0.0,0.0,0.427,0.4153,0.4153,0.0,0.0,0.0,0.0,0.0,0.0,0.0,0.0,0.0,0.0,0.0,0.0,0.0,0.0,0.0,0.0,0.3836,0.0,0.0,0.0,0.6152,0.6139,0.6457,0.7049,0.7439,0.7715,0.7875,0.7862,0.7835,0.7902,0.807,0.815,0.825,0.0,0.0,0.0,0.8637,0.0,0.0,0.0,0.0,0.0,0.0,0.8938,0.0,0.9162,0.9819,1.0553,1.1091,1.1225,1.1384,1.1909,1.199,1.2021,1.2021,1.2501,1.2939,1.3105,1.3125,1.3252,1.3584,1.3633,1.3799,1.4219,1.458,1.4814,1.4902,1.5215,1.541,1.541,1.541,1.5488,1.5664,1.5928,1.6357,1.6973,1.7246,1.7764,1.8446,1.8523,1.9043,1.9795,1.9873,2.04,2.126,2.1699,2.2129,2.2549,2.2969,2.3135,2.3135,2.3135,2.3135,2.3135,2.3135,2.3135,2.3203,0.1573,0.2792,0.3753,0.4149,0.0,0.0,0.0,0.0,0.0,0.0,0.0,0.0,0.0,0.0,0.0,0.0,0.0,0.0,0.0,0.0,0.0,0.0,0.0,0.0,0.0,0.0,0.0,0.0,0.0,0.0,0.0,0.0,0.0,0.0,0.0,0.0,0.0,0.0,0.5902,0.6836,0.6711,0.0,0.7781,0.788,0.8016,0.8136,0.7983,0.7882,0.7948,0.8444,0.849,0.0,0.8717,0.8704,0.8617,0.0,0.8804,0.8804,0.0,0.0,0.0,0.8985,0.0,0.0,0.0,0.9802,1.0166,1.0702,1.0813,1.0922,1.1233,1.1325,1.1408,1.1765,1.2129,1.2501,1.2832,1.2881,1.2959,1.3174,1.3193,1.3359,1.3779,1.4023,1.4326,1.4756,1.498,1.5186,1.54,1.541,1.5508,1.5732,1.5947,1.6387,1.7051,1.7275,1.7705,1.833,1.876,1.9189,1.9619,2.0039,2.0723,2.1572,2.1787,2.2246,2.2842,2.3057,2.3135,2.3135,2.3135,2.3135,2.3135,2.3135,2.3135,2.3203,0.3161,0.3632,0.3746,0.3989,0.0,0.0,0.0,0.0,0.0,0.0,0.0,0.0,0.0,0.0,0.0,0.0,0.0,0.0,0.0,0.0,0.0,0.0,0.0,0.5529,0.0,0.0,0.0,0.0,0.0,0.0,0.0,0.0,0.0,0.0,0.0,0.0,0.0,0.0,0.0,0.7242,0.0,0.7707,0.8427,0.8427,0.841,0.843,0.819,0.8048,0.817,0.8644,0.8651,0.8497,0.8738,0.8804,0.0,0.0,0.0,0.0,0.0,0.0,0.0,0.0,0.0,0.9166,0.0,0.0,0.0,1.0482,0.0,0.0,0.0,0.0,0.0,0.0,0.0,0.0,0.0,1.2463,0.0,1.2881,1.2881,1.3018,1.335,1.3457,1.3828,1.46,1.4736,1.4932,1.5273,1.5371,1.5566,1.5928,1.6103,1.6533,1.7256,1.7422,1.7715,1.8144,1.8916,1.9326,1.9434,2.0215,2.0957,2.1641,2.1816,2.2275,2.291,2.3076,2.3135,2.3135,2.3135,2.3135,2.3135,2.3135,2.3135,2.3203,0.3362,0.3756,0.3934,0.414,0.0,0.0,0.0,0.0,0.0,0.0,0.0,0.0,0.0,0.0,0.0,0.0,0.0,0.0,0.4519,0.0,0.0,0.0,0.0,0.0,0.71,0.0,0.0,0.0,0.0,0.0,0.0,0.0,0.0,0.0,0.5514,0.0,0.0,0.0,0.7,0.0,0.7834,0.8061,0.0,0.8427,0.853,0.8751,0.8717,0.8711,0.8717,0.0,0.8784,0.8764,0.0,0.8804,0.8804,0.8804,0.0,0.0,0.0,0.0,0.0,0.0,0.9412,0.0,0.0,0.0,0.9377,0.9821,0.0,0.0,0.0,0.0,0.0,0.0,0.0,0.0,1.0731,1.0871,1.1484,1.2774,1.2881,1.29,1.2949,1.3291,1.3701,1.417,1.4561,1.4805,1.4853,1.5205,1.543,1.5488,1.625,1.6709,1.6807,1.7559,1.8154,1.8574,1.9053,1.9482,1.9853,2.0352,2.0625,2.0762,2.1543,2.1943,2.209,2.2832,2.3135,2.3135,2.3135,2.3135,2.3135,2.3135,2.3135,2.3203,0.3873,0.4004,0.4091,0.4189,0.0,0.0,0.0,0.0,0.0,0.0,0.0,0.0,0.0,0.0,0.0,0.0,0.0,0.4519,0.0,0.0,0.0,0.0,0.0,0.0,0.0,0.0,0.0,0.0,0.6967,0.0,0.0,0.0,0.0,0.0,0.7016,0.0,0.7877,0.0,0.7663,0.0,0.0,0.0,0.0,0.8564,0.8704,0.8804,0.8804,0.8804,0.8804,0.0,0.8804,0.0,0.0,0.0,0.0,0.8804,0.0,0.0,0.0,0.0,0.0,0.0,0.0,0.0,0.9072,0.0,0.9005,0.0,0.0,0.0,0.0,0.0,0.0,0.0,0.9972,0.0,0.0,0.0,1.1023,0.0,0.0,0.0,1.2881,1.2662,1.2878,1.3688,1.3556,1.3869,1.4756,1.4951,1.5156,1.54,1.6269,1.6665,1.6665,1.7578,1.8096,1.8281,1.8965,1.9375,1.957,2.0254,2.0703,2.0977,2.1348,2.1787,2.2275,2.2627,2.292,2.3135,2.3135,2.3135,2.3135,2.3135,2.3135,2.3203,0.425,0.423,0.4182,0.0,0.0,0.0,0.0,0.0,0.0,0.0,0.0,0.0,0.4519,0.4519,0.0,0.0,0.4519,0.4519,0.0,0.0,0.5386,0.0,0.0,0.0,0.0,0.0,0.0,0.0,0.0,0.0,0.0,0.0,0.0,0.0,0.0,0.8564,0.8657,0.0,0.815,0.8427,0.8427,0.8424,0.8517,0.8731,0.8804,0.8804,0.8804,0.8804,0.8804,0.8804,0.8804,0.0,0.8804,0.8804,0.8804,0.0,0.0,0.0,0.9259,0.0,0.0,0.0,0.0,0.0,0.0,0.0,0.0,0.0,0.0,0.0,0.0,0.0,0.0,0.0,0.0,0.9688,0.0,1.0207,0.0,0.0,0.0,0.0,0.0,1.1832,1.1941,1.2979,1.2702,1.3078,1.435,1.4658,1.4922,1.5234,1.6211,1.6665,1.6665,1.7578,1.8008,1.8018,1.8877,1.9287,1.9316,2.0176,2.0742,2.1064,2.1309,2.1768,2.2353,2.2588,2.2861,2.3135,2.3135,2.3135,2.3135,2.3135,2.3135,2.3203,0.4477,0.4338,0.0,0.0,0.0,0.0,0.0,0.0,0.0,0.0,0.0,0.0,0.0,0.0,0.0,0.0,0.0,0.4519,0.4519,0.0,0.6907,0.0,0.0,0.8752,0.0,0.0,0.0,0.0,0.0,0.0,0.0,0.0,0.0,0.0,0.0,0.8644,0.8383,0.8263,0.8277,0.8427,0.8427,0.8544,0.8791,0.0,0.8804,0.8804,0.8804,0.0,0.0,0.8804,0.8804,0.0,0.0,0.0,0.0,0.0,0.0,0.0,0.0,0.0,0.0,0.9679,0.0,0.0,0.0,0.0,0.909,0.0,0.0,0.0,0.0,0.0,0.0,0.0,0.0,0.0,0.0,0.0,0.0,0.0,0.0,0.0,0.0,1.0864,1.1124,1.1783,1.2271,1.2776,1.3494,1.4336,1.4795,1.4805,1.6055,1.6665,1.6665,1.7578,1.8008,1.8018,1.8877,1.9287,1.9316,2.0176,2.0576,2.0635,2.1494,2.1875,2.1973,2.2783,2.3125,2.3135,2.3135,2.3135,2.3135,2.3135,2.3135,2.3203,0.4508,0.0,0.0,0.0,0.0,0.0,0.0,0.4519,0.0,0.0,0.4519,0.0,0.0,0.4519,0.4519,0.0,0.0,0.4677,0.5109,0.576,0.0,0.0,0.0,0.8321,0.0,0.0,0.0,0.0,0.0,0.0,0.0,0.0,0.0,0.0,0.0,0.8751,0.0,0.0,0.0,0.0,0.0,0.8717,0.8804,0.0,0.8804,0.8804,0.8804,0.8804,0.0,0.8804,0.8804,0.8804,0.8804,0.8804,0.8804,0.8804,0.8804,0.8891,0.0,0.0,0.9198,0.9586,0.0,0.0,0.0,0.0,0.0,0.0,0.0,0.0,0.0,0.0,0.0,0.0,0.0,0.0,0.0,0.0,0.8962,0.0,0.0,0.0,0.0,0.0,1.0415,1.1065,1.1294,1.179,1.2809,1.3284,1.3922,1.4775,1.5529,1.6192,1.6665,1.7578,1.8008,1.8018,1.8877,1.9287,1.9316,2.0176,2.0732,2.1025,2.1328,2.1777,2.2324,2.2607,2.2891,2.3135,2.3135,2.3135,2.3135,2.3135,2.3135,2.3242,0.4519,0.4519,0.0,0.0,0.0,0.0,0.0,0.0,0.0,0.0,0.4519,0.0,0.4519,0.0,0.4519,0.0,0.4732,0.5058,0.5487,0.5977,0.0,0.767,0.7937,0.8315,0.0,0.0,0.0,0.0,0.0,0.8804,0.0,0.0,0.0,0.0,0.0,0.8804,0.8804,0.8804,0.8804,0.0,0.0,0.8804,0.0,0.0,0.8804,0.8804,0.0,0.8804,0.8804,0.8804,0.8804,0.8804,0.8804,0.8804,0.8804,0.8804,0.8804,0.8871,0.9103,0.905,0.0,0.9432,0.9239,0.0,0.9065,0.0,0.9425,0.0,0.0,0.0,0.0,0.0,0.0,0.0,0.0,0.0,0.0,0.8804,0.8804,0.8804,0.9159,0.9718,0.0,1.0064,1.0064,1.0771,1.1015,1.1438,0.0,1.26,1.3332,1.4364,1.5081,1.5725,1.6201,1.7369,1.7862,1.751,1.8356,1.8912,1.9316,1.9774,2.0486,2.124,2.1396,2.1865,2.2519,2.2676,2.2891,2.3135,2.3135,2.3135,2.3135,2.3135,2.333,2.3672,0.4519,0.4519,0.4519,0.0,0.4519,0.0,0.0,0.0,0.4519,0.0,0.4519,0.4519,0.4519,0.4519,0.4519,0.4574,0.5109,0.5538,0.5597,0.6902,0.0,0.0,0.8427,0.8804,0.8804,0.0,0.0,0.0,0.0,0.0,0.0,0.0,0.0,0.0,0.8804,0.0,0.8804,0.8804,0.8804,0.8804,0.8804,0.8804,0.8804,0.8804,0.8804,0.8804,0.8804,0.8804,0.8804,0.8804,0.8804,0.8804,0.8804,0.8804,0.8804,0.8804,0.8804,0.8871,0.909,0.9163,0.9163,0.9183,0.9176,0.0,0.0,0.0,0.9955,0.0,0.0,0.0,0.0,0.0,0.0,0.0,0.0,0.0,0.0,0.0,0.8804,0.8804,0.8804,0.9061,0.9666,0.9762,1.0012,1.0661,1.1316,1.1582,0.0,1.2212,1.3046,1.3561,1.4772,1.5321,1.5321,1.7083,1.7442,1.6533,1.7324,1.8239,1.9273,1.9081,1.9851,2.1289,2.1709,2.2139,2.2578,2.2969,2.3135,2.3135,2.3135,2.3135,2.3135,2.3164,2.3711,2.4443,0.4519,0.4519,0.4519,0.0,0.4519,0.4519,0.0,0.0,0.0,0.0,0.4519,0.4519,0.4519,0.4519,0.468,0.5218,0.5378,0.0,0.0,0.0,0.0,0.848,0.8699,0.8804,0.8804,0.8804,0.8804,0.8804,0.0,0.0,0.8804,0.0,0.0,0.0,0.0,0.0,0.8804,0.8804,0.8804,0.8804,0.8804,0.8804,0.8804,0.0,0.8804,0.8804,0.8804,0.8804,0.8804,0.8804,0.8804,0.8804,0.8804,0.8804,0.8804,0.8804,0.8804,0.8824,0.8898,0.8918,0.8971,0.913,0.9024,0.8958,0.0,0.0,0.0,0.0,0.0,0.0,0.0,0.0,0.0,0.0,0.0,0.0,0.0,0.0,0.8804,0.8804,0.8804,0.8857,0.9061,0.9061,0.9113,0.9309,0.9909,0.0,0.0,0.0,1.1963,1.3561,1.3584,1.4156,1.5256,1.6382,1.6571,1.585,1.7081,1.8013,1.854,1.8888,2.0009,2.1728,2.1836,2.2305,2.2988,2.3096,2.3135,2.3135,2.3135,2.3135,2.3184,2.3506,2.416,2.4902,0.4519,0.4519,0.0,0.4519,0.0,0.0,0.4519,0.4519,0.0,0.4519,0.4519,0.0,0.4893,0.4948,0.5222,0.5928,0.6249,0.0,0.767,0.0,0.0,0.8804,0.8804,0.8804,0.8804,0.8804,0.0,0.8804,0.0,0.0,0.8804,0.0,0.0,0.0,0.0,0.8804,0.8804,0.8804,0.8804,0.8804,0.8804,0.8804,0.0,0.8804,0.8804,0.8804,0.8804,0.8804,0.8804,0.8804,0.8804,0.8804,0.8804,0.8804,0.8831,0.8958,0.8998,0.9025,0.9152,0.9092,0.9031,0.9143,0.9025,0.8851,0.9011,0.9254,0.9314,0.0,0.9138,0.9468,0.0,0.0,0.0,0.0,0.0,0.0,0.0,0.0,0.8804,0.8804,0.8804,0.8804,0.8804,0.9061,0.9263,0.9263,0.9865,0.0,0.0,0.0,1.1357,1.2797,1.3131,1.3537,1.4156,1.5598,1.5861,1.4969,1.5929,1.7055,1.8294,1.8294,1.9561,2.1885,2.1885,2.2363,2.3135,2.3135,2.3135,2.3135,2.3135,2.3262,2.3477,2.3906,2.4365,2.4814,0.4519,0.4519,0.0,0.0,0.0,0.0,0.0,0.4519,0.0,0.4519,0.0,0.4927,0.5525,0.5711,0.606,0.6783,0.7443,0.7877,0.7937,0.8536,0.8905,0.8864,0.8864,0.8844,0.8804,0.8804,0.8804,0.0,0.0,0.0,0.0,0.0,0.0,0.0,0.0,0.0,0.0,0.8804,0.8804,0.8804,0.8804,0.8804,0.8804,0.8804,0.8804,0.8804,0.8804,0.8804,0.8804,0.8804,0.8804,0.8804,0.8804,0.8804,0.8858,0.9057,0.913,0.919,0.9546,0.9439,0.9196,0.923,0.9078,0.8864,0.8864,0.9292,0.9524,0.8957,0.932,0.9537,0.0,0.0,0.0,0.0,0.0,0.0,0.0,0.0,0.8804,0.8804,0.8804,0.0,0.8804,0.9309,0.9666,0.9666,1.0218,0.0,0.0,0.0,1.0924,1.175,1.2831,1.3175,1.2779,1.4788,1.5255,1.4212,1.4525,1.5888,1.8133,1.7595,1.8892,2.1617,2.1802,2.2279,2.2862,2.3047,2.3135,2.3135,2.3135,2.3408,2.3838,2.4258,2.4453,2.456,0.4519,0.0,0.0,0.0,0.0,0.4519,0.4519,0.4519,0.4519,0.4519,0.5233,0.577,0.5884,0.6663,0.7417,0.8178,0.8357,0.0,0.0,0.0,0.0,0.9117,0.911,0.9051,0.8811,0.8804,0.8804,0.0,0.0,0.0,0.0,0.0,0.0,0.0,0.0,0.0,0.8804,0.8804,0.0,0.8804,0.8804,0.8804,0.8804,0.8804,0.8804,0.8804,0.8804,0.8804,0.8804,0.8804,0.8804,0.8804,0.8804,0.8804,0.8818,0.8871,0.8884,0.8945,0.9239,0.9223,0.9243,0.9546,0.9379,0.911,0.911,0.9025,0.903,0.9112,0.9213,0.9342,0.9486,0.0,0.0,0.0,0.0,0.0,0.0,0.0,0.8804,0.8804,0.8804,0.8804,0.8804,0.891,0.8956,0.8956,0.0,0.0,0.0,0.0,1.0467,0.0,1.1805,0.0,0.0,0.0,1.4399,1.4096,1.4764,1.5862,1.7485,1.739,1.8391,2.0382,2.1441,2.1826,2.1667,2.2677,2.3135,2.3135,2.3135,2.3408,2.3838,2.4258,2.4648,2.5019,0.4519,0.0,0.0,0.0,0.0,0.0,0.0,0.4629,0.4579,0.4579,0.5293,0.5971,0.6581,0.7359,0.823,0.9078,0.9143,0.9324,0.9686,0.9686,0.9619,0.9479,0.9472,0.9332,0.9038,0.9031,0.8958,0.8804,0.0,0.0,0.0,0.0,0.0,0.0,0.0,0.8804,0.0,0.0,0.0,0.8804,0.8804,0.8804,0.8804,0.8804,0.8804,0.8804,0.8804,0.8804,0.8804,0.8804,0.8804,0.8804,0.8804,0.8804,0.8864,0.9172,0.9259,0.9359,0.9806,0.9813,0.9726,0.9873,0.9686,0.9472,0.9472,0.9359,0.9299,0.9439,0.9472,0.9466,0.9452,0.9212,0.0,0.0,0.0,0.0,0.0,0.0,0.8804,0.8804,0.8804,0.8804,0.8804,0.8804,0.0,0.0,0.0,0.0,0.0,0.0,1.0193,0.0,0.0,0.0,1.2648,0.0,1.3819,1.3634,1.4275,1.5321,1.6703,1.6891,1.7843,1.9471,2.0702,2.0953,2.0486,2.1667,2.258,2.3164,2.3389,2.3603,2.3867,2.4512,2.4893,2.5137,0.0,0.4543,0.0,0.0,0.4718,0.4779,0.4901,0.4816,0.4741,0.4741,0.5417,0.6299,0.7255,0.82,0.9028,0.9846,0.9873,0.9873,0.9873,0.9873,0.984,0.978,0.978,0.9639,0.9339,0.9216,0.907,0.0,0.0,0.0,0.0,0.0,0.0,0.0,0.0,0.0,0.0,0.0,0.8804,0.8804,0.8804,0.8804,0.8804,0.8804,0.8804,0.8804,0.8804,0.8804,0.8818,0.8878,0.8858,0.8818,0.8878,0.8898,0.9005,0.9532,0.9686,0.98,1.0321,1.0294,1.0134,1.0194,0.9993,0.978,0.978,0.9726,0.9699,0.9766,0.9826,0.978,0.9479,0.9239,0.0,0.0,0.0,0.0,0.0,0.0,0.8945,0.8824,0.8864,0.8878,0.8811,0.8804,0.0,0.0,0.0,0.0,0.9653,0.0,0.0,0.0,0.0,1.2131,1.2158,0.0,1.3527,1.3494,1.3961,1.4873,1.6111,1.6439,1.7297,1.8499,1.9746,2.0138,1.9943,2.0935,2.2031,2.3184,2.3623,2.3848,2.4014,2.4785,2.5127,2.5273,0.0,0.0,0.0,0.0,0.0,0.4904,0.4918,0.4908,0.4897,0.4897,0.6309,0.7384,0.7619,0.927,1.0385,1.0537,1.0544,1.0544,1.0544,1.0544,1.0361,1.0087,1.0074,0.994,0.9653,0.9379,0.917,0.0,0.0,0.8804,0.0,0.0,0.0,0.0,0.0,0.0,0.0,0.8804,0.8804,0.8804,0.8804,0.8804,0.8804,0.8804,0.8804,0.8804,0.8804,0.8804,0.8844,0.9057,0.9025,0.8851,0.9064,0.9143,0.921,0.9586,0.9686,0.9753,1.0074,1.014,1.018,1.0454,1.0294,1.0074,1.0074,0.9873,0.976,1.002,1.0294,1.0388,1.0087,1.0013,0.9907,0.0,0.0,0.0,0.0,0.0,0.9406,0.8871,0.9038,0.9044,0.8831,0.8804,0.0,0.0,0.8958,0.0,0.0,0.0,0.0,1.0962,1.1329,1.2017,1.308,1.3193,1.3634,1.4396,1.4456,1.5074,1.6111,1.6439,1.6766,1.7251,1.841,1.9775,2.1114,2.1293,2.2031,2.3184,2.3623,2.4023,2.4414,2.4893,2.5322,2.5732,0.0,0.0,0.0,0.0,0.0,0.0,0.0,0.5542,0.5821,0.5986,0.6791,0.7491,0.7848,0.9307,1.0174,0.9837,1.0301,1.0624,1.0624,1.0624,1.0571,1.0388,1.0381,1.0247,0.9953,0.9826,0.9535,0.0,0.0,0.0,0.0,0.0,0.0,0.0,0.0,0.9332,0.9332,0.9332,0.9332,0.9319,0.9138,0.9065,0.9051,0.8871,0.8804,0.8804,0.8804,0.8918,0.903,0.9143,0.911,0.9118,0.9412,0.9506,0.9566,0.9853,0.994,1.0007,1.0301,1.0381,1.0414,1.0598,1.0474,1.0381,1.0381,1.0294,1.0241,1.0361,1.0334,1.0254,1.014,0.9973,0.982,0.9699,0.0,0.0,0.0,0.0,0.0,0.9098,0.911,0.9137,0.9024,0.9232,0.0,0.0,0.0,0.0,0.0,0.0,0.0,1.1223,0.0,1.1911,1.2919,1.312,1.3474,1.4001,1.4536,1.5042,1.5483,1.5882,1.6629,1.739,1.7106,1.8621,2.1203,2.0486,2.0935,2.2097,2.2676,2.3131,2.3355,2.4007,2.4868,2.5762,0.4519,0.0,0.4738,0.0,0.5036,0.5182,0.5338,0.6039,0.6638,0.7028,0.7308,0.7608,0.7991,0.9098,0.97,0.932,1.011,1.0624,1.0624,1.0624,1.0624,1.0624,1.0624,0.0,1.0254,1.016,0.9913,0.9442,0.9412,0.0,0.0,0.0,0.0,0.0,0.9686,0.9686,0.9686,0.9686,0.9686,0.9666,0.9452,0.9372,0.9345,0.9145,0.9065,0.9065,0.9065,0.9198,0.9385,0.9416,0.9442,0.9532,0.9746,0.9813,0.9866,1.016,1.0247,1.0294,1.0571,1.0624,1.0624,1.0624,1.0624,1.0624,1.0624,1.0624,1.0624,1.0624,1.0394,1.0247,1.0247,1.008,0.994,0.994,0.0,0.0,0.0,0.9706,0.0,0.9392,0.9446,0.9409,0.9379,0.9559,0.0,0.0,0.0,0.0,0.0,0.0,0.0,0.0,0.0,0.0,1.2872,1.3273,1.3614,1.3908,1.471,1.509,1.511,1.5605,1.6292,1.7131,1.6204,1.7654,2.0666,1.9497,1.9928,2.1545,2.2146,2.2582,2.2858,2.3947,2.4922,2.5771,0.4519,0.4585,0.4738,0.4894,0.5036,0.5182,0.5338,0.6137,0.6976,0.7897,0.8021,0.8021,0.8027,0.8807,0.9332,0.9274,1.011,1.0624,1.0624,1.0624,1.0624,0.0,0.0,1.0624,1.0618,1.0267,1.0114,1.0107,0.0,0.0,0.9679,0.0,0.9679,0.9686,0.9686,0.9686,0.9686,0.9686,0.9686,0.9686,0.9679,0.9679,0.9679,0.9673,0.9673,0.9673,0.9673,0.9679,0.9726,1.0007,1.0107,1.0107,1.0107,1.0114,1.0167,1.053,1.0618,1.0618,1.0624,1.0624,1.0624,1.0624,1.0624,1.0624,1.0624,1.0624,1.0624,1.0624,1.0618,1.0618,1.0618,1.0618,1.0611,1.0611,0.0,0.0,0.0,1.0361,0.0,0.9746,0.9933,0.9993,0.9706,0.9679,0.0,0.0,0.0,0.0,0.0,0.0,0.0,1.141,1.1991,0.0,1.32,1.3781,1.4222,1.4516,1.511,1.5391,1.5398,1.5698,1.5832,1.5825,1.5832,1.7203,1.9405,1.8234,1.9358,2.1868,2.2357,2.2745,2.3229,2.4965,2.5645,2.5859,0.4519,0.4585,0.4738,0.4894,0.5036,0.5371,0.6175,0.7051,0.7697,0.7962,0.8027,0.8027,0.8027,0.8748,0.9075,0.0,0.9779,1.0624,0.0,1.0624,1.0624,1.0624,1.0624,1.0624,1.0624,1.053,1.0321,1.0114,0.0,0.0,0.0,1.0187,1.0281,1.0281,1.0281,1.0281,1.0281,1.0281,1.0281,1.0261,1.006,0.998,0.996,0.976,0.9686,0.9686,0.9686,0.9813,0.9993,1.0087,1.0247,1.0421,1.0421,1.0421,1.0441,1.0598,1.0624,1.0624,1.0624,1.0624,1.0624,1.0624,1.0624,1.0624,1.0624,1.0624,1.0624,1.0624,1.0624,1.0624,1.0624,1.0624,1.0624,1.0624,1.0624,0.0,1.0434,0.0,1.0187,1.0,1.006,1.008,0.9987,1.016,0.0,0.0,0.0,0.0,0.0,0.0,0.0,0.0,1.2104,0.0,1.32,1.3794,1.4229,1.4529,1.5117,1.5504,1.5698,1.5785,1.5832,1.5832,1.5832,1.6756,1.8234,1.787,1.821,1.9196,2.0623,2.1318,2.1698,2.3644,2.5102,2.6221,0.4519,0.4538,0.467,0.488,0.4992,0.5431,0.6551,0.7177,0.7762,0.842,0.7897,0.7767,0.842,0.8678,0.0,0.8484,0.9779,1.0624,1.0624,1.0624,1.0624,1.0624,1.0624,1.0624,1.0624,1.0624,0.0,1.0281,1.0281,1.0281,1.0287,1.0474,1.0624,1.0624,1.0624,1.0624,1.0624,1.0624,1.0624,1.0611,1.0354,1.0281,1.0267,1.008,1.0013,1.0013,1.0013,1.0127,1.0281,1.0281,1.0408,1.0624,1.0624,1.0624,1.0624,1.0624,1.0624,1.0624,1.0624,1.0624,1.0624,1.0624,1.0624,1.0624,1.0624,1.0705,1.0722,1.0722,1.0808,1.0855,1.0742,1.0722,1.0752,1.0645,1.0624,1.0624,1.0624,0.0,1.0281,1.0281,1.0281,0.0,0.0,1.0454,1.0672,0.0,0.0,0.0,0.0,0.0,0.0,1.1857,1.2371,1.2826,1.3206,1.4015,1.4509,1.4696,1.5277,1.5651,1.5832,1.5832,1.5832,1.5832,1.5832,1.648,1.7692,1.7225,1.7363,1.8183,2.0014,2.0832,2.1441,2.3881,2.5429,2.6435,0.4519,0.4519,0.4558,0.0,0.4914,0.0,0.6534,0.6719,0.7307,0.9005,0.7767,0.7437,0.9011,0.8549,0.842,0.9338,0.0,0.0,1.0624,1.0624,1.0624,1.0624,1.0624,1.0624,1.0624,1.0624,1.0624,1.0624,1.0624,1.0624,1.0624,1.0624,1.0624,1.0624,1.0624,1.0624,1.0624,1.0624,1.0624,1.0624,1.0624,1.0624,1.0624,1.0624,1.0624,1.0624,1.0624,1.0624,1.0624,1.0624,1.0624,1.0624,1.0624,1.0638,1.0651,1.0631,1.0624,1.0624,1.0624,1.0624,1.0624,1.0624,1.0638,1.0651,1.0651,1.0815,1.1022,1.1022,1.1236,1.1343,1.1069,1.1009,1.0902,1.0698,1.0638,1.0624,1.0624,1.0645,1.0651,1.0651,0.0,0.0,1.0685,1.0685,1.0735,0.0,0.0,0.0,0.0,0.0,1.1623,1.1917,1.2759,1.322,1.324,1.4389,1.4983,1.503,1.5571,1.5832,1.5832,1.5832,1.5832,1.5832,1.5832,1.6494,1.7535,1.6326,1.6856,1.8557,2.0208,2.1114,2.1963,2.5177,2.6406,2.6443,0.0,0.0,0.4587,0.4758,0.4863,0.5384,0.6794,0.685,0.7111,0.8156,0.7962,0.7827,0.8285,0.8742,0.9332,1.0238,1.0498,1.0624,1.0624,1.0624,1.0624,1.0624,1.0624,1.0624,1.0624,1.0624,1.0624,1.0624,1.0624,1.0624,1.0624,1.0624,1.0624,1.0624,1.0624,1.0624,1.0624,1.0624,1.0624,1.0624,1.0624,1.0624,1.0624,1.0624,1.0624,1.0624,1.0624,1.0624,1.0624,1.0624,1.0624,1.0624,1.0624,1.0715,1.0848,1.0692,1.0624,1.0624,1.0624,1.0624,1.0624,1.0624,1.0728,1.0895,1.0895,1.1116,1.1323,1.1323,1.1376,1.1403,1.1336,1.1142,1.0969,1.0902,1.0701,1.0624,1.0624,1.0755,1.0895,0.0,1.1089,1.1223,1.1223,1.1223,1.1249,0.0,0.0,1.1483,1.185,1.2011,1.2231,1.2607,1.2979,1.3313,1.354,1.4489,1.519,1.5625,1.5765,1.5832,1.5832,1.5832,1.5832,1.5832,1.5832,1.615,1.6642,1.6263,1.6576,1.7413,2.0083,2.0595,2.0326,2.4764,2.5958,2.5544,0.4555,0.4565,0.4815,0.5427,0.5586,0.615,0.7842,0.7632,0.7762,0.9,0.8479,0.8285,0.9128,0.9268,0.9658,1.0491,1.0624,1.0624,1.0624,1.0624,1.0624,1.0624,1.0752,1.0759,1.0624,1.0688,1.0695,1.0624,1.0624,1.0624,1.0624,1.0624,1.0624,1.0631,1.0759,1.0681,1.0631,1.0701,1.0681,1.0624,1.0624,1.0624,1.0624,1.0624,1.0624,1.0624,1.0624,1.0624,1.0624,1.0624,1.0624,1.0645,1.0715,1.0868,1.0989,1.0962,1.0955,1.0955,1.0955,1.0955,1.0955,1.0955,1.1076,1.1189,1.1189,1.1416,1.163,1.163,1.1737,1.1784,1.1657,1.1496,1.1309,1.1035,1.0862,1.0755,1.0755,1.0895,1.1042,1.1176,1.1329,1.1423,1.1423,1.1423,1.1483,1.1617,1.163,0.0,1.2318,1.2418,1.2579,1.2815,1.3307,1.3687,1.3841,1.4723,1.5384,1.5832,1.5832,1.5832,1.5832,1.5832,1.5832,1.5832,1.5832,1.5999,1.6273,1.6273,1.6526,1.7123,1.946,2.0023,2.0063,2.3504,2.4914,2.54,0.4663,0.4711,0.504,0.5984,0.6304,0.7079,0.9163,0.8549,0.8415,1.0168,0.9,0.8608,1.0238,0.9849,0.9786,1.0561,1.0624,1.0624,1.0624,1.0665,1.0672,1.0624,1.0835,1.0855,1.0631,1.0802,1.0808,1.0624,1.0624,1.0624,1.0624,1.0624,1.0624,1.0631,1.0815,1.0815,1.0705,1.0889,1.0875,1.0752,1.0705,1.0692,1.0692,1.0692,1.0692,1.0698,1.0739,1.0688,1.0688,1.0688,1.0688,1.0735,1.0982,1.1089,1.1176,1.1423,1.1523,1.1536,1.145,1.1423,1.1423,1.1423,1.1456,1.149,1.149,1.1724,1.1937,1.1937,1.2131,1.2225,1.1984,1.1897,1.1703,1.1202,1.1089,1.1056,1.1056,0.0,1.1216,1.1463,1.153,1.1577,1.1623,1.1623,1.175,1.2051,1.2071,1.2291,1.2862,1.2976,1.303,1.303,1.3687,1.4148,1.4282,1.5023,1.5538,1.5832,1.5832,1.5832,1.5832,1.5832,1.5852,1.5892,1.5845,1.6046,1.64,1.6359,1.6687,1.7414,1.8724,1.9487,2.0059,2.198,2.3721,2.5174,0.4684,0.4796,0.4897,0.5125,0.5852,0.7327,0.9996,0.8409,0.7502,0.9268,0.8613,0.8355,0.9396,1.004,1.0434,1.0561,1.0624,1.0624,1.0624,1.0788,1.0815,1.0631,1.0835,1.0855,1.0631,1.0665,1.0672,1.0624,1.0624,1.0624,1.0624,1.0624,1.0624,1.0624,1.0672,1.0735,1.0929,1.0975,1.1109,1.1269,1.1022,1.0922,1.0922,1.0922,1.0922,1.0955,1.1202,1.1289,1.1289,1.1289,1.1289,1.1296,1.1343,1.153,1.1744,1.179,1.1977,1.2058,1.1563,1.1423,1.1423,1.1423,1.1617,1.1797,1.1797,1.2024,1.2231,1.2231,1.2271,1.2285,1.2245,1.2037,1.1837,1.175,1.1523,1.1356,1.1356,0.0,1.175,1.1797,1.2017,1.2265,1.2593,1.2614,1.2672,1.2979,1.3006,1.3039,1.3133,1.3607,1.3881,1.3881,1.4015,1.4442,1.5184,1.5324,1.5538,1.5832,1.5832,1.5832,1.5832,1.5832,1.5965,1.6192,1.5939,1.6279,1.6994,1.674,1.6981,1.7718,1.9044,1.9074,1.8711,2.166,2.3087,2.3996,0.4847,0.4904,0.4969,0.5128,0.6033,0.7644,1.0212,0.9192,0.8549,0.9849,0.9262,0.9005,0.9913,1.0364,1.0685,1.0782,1.0795,1.0862,1.1015,1.1002,1.1002,1.1022,1.1309,1.1329,1.1035,1.1022,1.0949,1.0795,1.0795,1.0875,1.1022,1.0868,1.0875,1.1035,1.1196,1.1249,1.1236,1.1396,1.145,1.1416,1.1283,1.1229,1.1229,1.1229,1.1229,1.1243,1.1376,1.1423,1.1423,1.1423,1.1423,1.1456,1.1617,1.1757,1.1904,1.2058,1.2198,1.2245,1.1971,1.1897,1.1897,1.1897,1.1997,1.2104,1.2104,1.2204,1.2305,1.2305,1.2305,1.2305,1.2305,1.2191,1.2051,1.1897,1.1757,0.0,1.1663,1.1784,1.1924,1.2084,1.2365,1.2592,1.2808,1.2899,1.306,1.32,1.3213,1.3347,1.3667,1.3941,1.4309,1.4776,1.479,1.5064,1.5625,1.5631,1.5698,1.5832,1.5832,1.5832,1.5832,1.5832,1.5992,1.6266,1.6126,1.648,1.7141,1.7001,1.7194,1.7687,1.8297,1.839,1.8406,1.9932,2.1807,2.3709,0.4969,0.5026,0.5094,0.5321,0.6531,0.8215,1.0295,0.9786,0.9396,1.0104,0.9594,0.953,1.0498,1.0624,1.0739,1.0969,1.0995,1.1142,1.1503,1.1323,1.1263,1.1416,1.1643,1.1657,1.143,1.1423,1.1316,1.1096,1.1096,1.1209,1.1423,1.1196,1.1209,1.1436,1.1663,1.1677,1.1543,1.177,1.1777,1.1623,1.1557,1.153,1.153,1.153,1.153,1.1536,1.1603,1.163,1.163,1.163,1.163,1.167,1.1897,1.1971,1.2011,1.2238,1.2305,1.2305,1.2305,1.2305,1.2305,1.2305,1.2305,1.2305,1.2305,1.2305,1.2305,1.2305,1.2305,1.2305,1.2305,1.2305,1.2231,1.2004,0.0,1.1971,1.1971,1.2031,1.2158,1.2378,1.2672,1.2879,1.2946,1.3233,1.3447,1.3507,1.3581,1.3814,1.4269,1.4355,1.473,1.5471,1.5498,1.5605,1.5825,1.5832,1.5832,1.5832,1.5899,1.5932,1.5939,1.5999,1.6199,1.6473,1.6406,1.6707,1.7241,1.7181,1.7321,1.7589,1.7662,1.8016,1.8497,1.8564,2.0773,2.3822,0.4925,0.5145,0.5401,0.5425,0.7186,0.9128,1.0428,0.9588,0.8877,0.8941,0.8871,0.9262,1.0498,1.0624,1.0739,1.0969,1.0995,1.1236,1.1797,1.1817,1.169,1.1436,1.145,1.145,1.1423,1.1423,1.1416,1.1396,1.1396,1.1403,1.1423,1.1403,1.1403,1.1423,1.145,1.1597,1.1837,1.1857,1.2011,1.2211,1.1944,1.1837,1.1837,1.1837,1.1837,1.187,1.2144,1.2238,1.2238,1.2238,1.2238,1.2238,1.2265,1.2271,1.2271,1.2291,1.2305,1.2305,1.2305,1.2305,1.2305,1.2305,1.2305,1.2305,1.2305,1.2305,1.2305,1.2305,1.2305,1.2305,1.2305,1.2305,1.2291,1.2271,0.0,0.0,1.2271,1.2505,1.2768,1.2788,1.2986,1.328,1.3547,1.3848,1.4135,1.4402,1.4683,1.4856,1.4897,1.5157,1.5451,1.5785,1.5798,1.5805,1.5832,1.5832,1.5832,1.5832,1.6112,1.6239,1.6253,1.652,1.68,1.7068,1.6794,1.7007,1.7528,1.7261,1.7321,1.7609,1.7903,1.821,1.8524,1.8791,2.0965,2.3822,0.5192,0.5284,0.5428,0.5428,0.7897,1.004,1.0561,1.0231,0.9907,0.9907,0.9,0.8871,1.0428,1.0624,1.0665,1.0715,1.1162,1.1637,1.2104,1.2138,1.2091,1.1971,1.1971,1.1884,1.1703,1.1877,1.1877,1.1697,1.1697,1.179,1.1964,1.1784,1.1797,1.1971,1.1971,1.2031,1.2138,1.2138,1.2204,1.2291,1.2184,1.2138,1.2138,1.2138,1.2138,1.2151,1.2265,1.2305,1.2305,1.2305,1.2305,1.2305,1.2305,1.2305,1.2305,1.2305,1.2305,1.2345,1.2525,1.2579,1.2579,1.2579,1.2579,1.2525,1.2345,1.2305,1.2305,1.2305,1.2452,1.2579,1.2579,1.2739,1.2866,1.2866,0.0,1.2866,1.2866,1.2959,1.3033,1.3033,1.33,1.3594,1.3895,1.4182,1.4476,1.477,1.4903,1.5044,1.5224,1.5504,1.5712,1.5825,1.5832,1.5832,1.5832,1.5832,1.5832,1.5832,1.6132,1.6273,1.6286,1.6573,1.6867,1.7141,1.7034,1.7208,1.7589,1.7669,1.7769,1.7903,1.8203,1.8504,1.8771,1.8885,2.0987,2.3855,0.5428,0.5428,0.5756,0.6859,0.9,1.0624,1.0624,1.0624,1.0624,1.0624,0.9582,0.9256,1.0498,1.0624,1.0698,1.0815,1.1316,1.1817,1.2271,1.2305,1.2305,1.2305,1.2305,1.2204,1.2011,1.2204,1.2204,1.2004,1.2004,1.2104,1.2298,1.2098,1.2111,1.2305,1.2305,1.2305,1.2305,1.2305,1.2305,1.2305,1.2305,1.2305,1.2305,1.2305,1.2305,1.2305,1.2305,1.2305,1.2305,1.2305,1.2305,1.2305,1.2305,1.2305,1.2305,1.2305,1.2365,1.258,1.3251,1.3256,1.3006,1.2913,1.2893,1.2812,1.2512,1.2518,1.2559,1.2458,1.2679,1.2893,1.2893,1.3066,1.3213,1.3213,1.3213,1.3213,1.3213,1.3287,1.3347,1.3347,1.3687,1.4001,1.4202,1.4569,1.4877,1.5084,1.5184,1.5317,1.5524,1.5718,1.5832,1.5832,1.5832,1.5832,1.5832,1.5832,1.5832,1.5832,1.6226,1.6413,1.642,1.6807,1.7088,1.7288,1.7288,1.7402,1.7602,1.7816,1.7956,1.8076,1.8377,1.8664,1.8931,1.9025,2.1075,2.3863,0.5428,0.5428,0.647,0.997,1.0624,1.0624,1.0624,1.0624,1.0624,1.0624,1.0624,1.0624,1.0624,1.0631,1.0808,1.1383,1.143,1.1683,1.2265,1.2305,1.2305,1.2305,1.2305,1.2305,1.2305,1.2305,1.2305,1.2305,1.2305,1.2305,1.2305,1.2305,1.2305,1.2305,1.2305,1.2305,1.2305,1.2305,1.2305,1.2305,1.2305,1.2305,1.2305,1.2305,1.2305,1.2305,1.2305,1.2305,1.2305,1.2305,1.2305,1.2305,1.2305,1.2305,1.2305,1.2305,1.2593,1.3112,1.448,1.4266,1.3574,1.3287,1.3213,1.3133,1.2896,1.2986,1.312,1.2889,1.2999,1.3213,1.322,1.322,1.322,1.322,1.322,1.3227,1.322,1.3467,1.3572,1.3572,1.4168,1.4522,1.4529,1.505,1.5398,1.5398,1.5665,1.5832,1.5832,1.5832,1.5832,1.5832,1.5832,1.5832,1.5832,1.5832,1.5832,1.5838,1.6426,1.6707,1.6727,1.7315,1.7582,1.7582,1.7582,1.7582,1.7589,1.7589,1.7769,1.8083,1.8384,1.8671,1.8965,1.9259,2.1266,2.3822,0.5428,0.5428,0.647,0.997,1.0624,1.0624,1.0624,1.0624,1.0624,1.0624,1.0624,1.0624,1.0624,1.1289,1.185,1.2024,1.2037,1.2118,1.2291,1.2305,1.2305,1.2305,1.2305,1.2305,1.2305,1.2305,1.2305,1.2305,1.2305,1.2305,1.2305,1.2305,1.2305,1.2305,1.2305,1.2305,1.2305,1.2305,1.2305,1.2305,1.2305,1.2305,1.2305,1.2305,1.2305,1.2305,1.2305,1.2438,1.2763,1.35,1.387,1.4052,1.4052,1.3376,1.2804,1.3758,1.4117,1.4488,1.5896,1.6063,1.5738,1.4859,1.4058,1.344,1.314,1.314,1.3186,1.3093,1.3307,1.3574,1.3788,1.3995,1.4128,1.4128,1.4302,1.4369,1.4162,1.4382,1.4569,1.4569,1.4723,1.491,1.5117,1.5291,1.5478,1.5685,1.5778,1.5832,1.5832,1.5832,1.5832,1.5832,1.5832,1.5832,1.5832,1.5832,1.5932,1.6146,1.6526,1.6814,1.7027,1.7408,1.7582,1.7582,1.7582,1.7709,1.7923,1.813,1.9029,2.0082,1.9426,1.9818,2.0679,1.9781,2.1266,2.3863,0.5428,0.5428,0.647,0.997,1.0624,1.0624,1.0624,1.0624,1.0624,1.0624,1.0624,1.0799,1.1196,1.1877,1.2305,1.2305,1.2305,1.2305,1.2305,1.2305,1.2305,1.2305,1.2305,1.2305,1.2305,1.2305,1.2305,1.2305,1.2305,1.2305,1.2305,1.2305,1.2305,1.2305,1.2305,1.2305,1.2305,1.2305,1.2305,1.2305,1.2305,1.2305,1.2305,1.2305,1.2378,1.2478,1.2478,1.2672,1.3158,1.4204,1.4637,1.4794,1.4794,1.4205,1.3789,1.4587,1.5196,1.588,1.7183,1.7274,1.6916,1.6292,1.5249,1.4213,1.3528,1.3561,1.3694,1.3581,1.4283,1.4789,1.4482,1.4998,1.529,1.4784,1.4843,1.4903,1.4723,1.528,1.5739,1.5739,1.6284,1.6526,1.6176,1.6225,1.6192,1.5818,1.5832,1.6015,1.648,1.6574,1.6574,1.6574,1.6574,1.6298,1.5832,1.6292,1.645,1.6279,1.6567,1.686,1.7161,1.7448,1.7582,1.7582,1.7582,1.7689,1.7889,1.819,1.9332,2.0825,1.9621,2.0144,2.1472,1.9924,2.1266,2.3855,0.5428,0.5428,0.647,0.997,1.0624,1.0624,1.0624,1.0624,1.0624,1.0624,1.0712,1.1122,1.2184,1.2305,1.2258,1.2158,1.2238,1.2305,1.2305,1.2305,1.2305,1.2305,1.2305,1.2305,1.2305,1.2305,1.2305,1.2305,1.2305,1.2305,1.2305,1.2305,1.2305,1.2305,1.2305,1.2305,1.2305,1.2305,1.2305,1.2305,1.2331,1.2345,1.2345,1.2371,1.2552,1.2869,1.2869,1.3064,1.3557,1.4799,1.5095,1.4995,1.5103,1.5017,1.4932,1.5141,1.6124,1.731,1.8497,1.8276,1.7635,1.7588,1.6852,1.5703,1.4179,1.4402,1.4822,1.4549,1.5849,1.6602,1.5432,1.6123,1.6463,1.5349,1.5197,1.53,1.5356,1.6315,1.7022,1.7022,1.8185,1.8556,1.7387,1.7497,1.7225,1.6015,1.6109,1.6662,1.7777,1.7777,1.7692,1.7692,1.7598,1.7052,1.6055,1.7174,1.7239,1.6319,1.6673,1.6975,1.7298,1.756,1.7687,1.7582,1.7681,1.7701,1.7649,1.7956,1.9203,2.079,1.9605,2.0224,2.1586,2.0148,2.1373,2.383,0.5428,0.5428,0.647,0.997,1.0624,1.0624,1.0624,1.0624,1.0624,1.0624,1.1356,1.2024,1.2271,1.2305,1.1937,1.1015,1.1777,1.2305,1.2305,1.2305,1.2305,1.2305,1.2305,1.2305,1.2305,1.2305,1.2305,1.2305,1.2305,1.2305,1.2305,1.2305,1.2305,1.2305,1.2305,1.2305,1.2305,1.2305,1.2305,1.2325,1.2559,1.2728,1.2672,1.2919,1.3053,1.3113,1.3113,1.3836,1.515,1.7321,1.7378,1.6628,1.7716,1.6746,1.5602,1.7917,1.8585,1.8957,2.0685,2.0776,2.0248,1.9704,1.9433,1.8574,1.6209,1.6707,1.7674,1.7602,1.7956,1.789,1.6922,1.6966,1.7056,1.6794,1.693,1.7385,1.8087,1.8636,1.8896,1.8896,1.8347,1.7942,1.7572,1.7647,1.7598,1.7318,1.8126,1.8856,1.9131,1.8234,1.7692,1.7692,1.6763,1.6686,1.7772,1.8065,1.7659,1.6613,1.7648,1.7872,1.7593,1.8679,1.8603,1.7687,1.8708,1.8647,1.7969,1.827,2.0179,2.2659,2.1466,2.1971,2.3151,2.1707,2.2258,2.4197,0.5428,0.5428,0.647,0.997,1.0624,1.0624,1.0624,1.0624,1.0624,1.0624,1.1096,1.147,1.147,1.147,1.145,1.1396,1.1951,1.2305,1.2305,1.2305,1.2305,1.2305,1.2305,1.2365,1.2512,1.2512,1.2512,1.2512,1.2371,1.2452,1.2732,1.2438,1.2378,1.2512,1.2365,1.2305,1.2305,1.2305,1.2385,1.2525,1.2761,1.2916,1.2986,1.3153,1.33,1.3494,1.4041,1.5412,1.7238,1.8567,1.8488,1.8031,1.8806,1.8091,1.7401,1.911,1.9813,2.0287,2.1535,2.1719,2.1337,2.0411,2.0782,2.0649,1.803,1.8148,1.8846,1.8846,1.9417,1.9596,1.8446,1.8741,1.9011,1.8387,1.8462,1.8708,1.9241,1.9915,2.0395,2.0395,2.0314,2.0051,1.9497,1.8864,1.8596,1.8596,1.9131,1.9761,2.0305,1.9761,1.9487,1.9769,1.9119,1.8997,1.9534,2.0012,1.9516,1.7902,1.8496,1.8448,1.7687,1.902,1.8916,1.7687,1.9013,1.8998,1.807,1.9104,2.1027,2.3326,2.2903,2.3151,2.371,2.2927,2.3599,2.5296,0.5428,0.5885,0.7292,1.0354,1.0759,1.0624,1.0624,1.0624,1.0624,1.0624,1.0624,1.0624,1.0624,1.0799,1.1249,1.2218,1.2305,1.2305,1.2305,1.2305,1.2305,1.2305,1.2305,1.2445,1.2815,1.2822,1.2849,1.2903,1.2579,1.2719,1.32,1.2639,1.2512,1.2808,1.2438,1.2331,1.2378,1.2378,1.2695,1.3126,1.2956,1.3209,1.3518,1.342,1.3588,1.4111,1.5065,1.6959,1.9145,1.9304,1.9225,1.9154,1.9387,1.9279,1.9226,1.9861,2.0718,2.1455,2.1963,2.2041,2.1826,2.0922,2.1636,2.1997,1.9885,1.9538,1.9761,1.9761,2.0722,2.1203,2.0034,2.0666,2.0935,1.9943,1.9761,1.9852,2.0133,2.0944,2.1569,2.1569,2.2306,2.2306,2.1114,2.0305,1.9761,1.9761,2.0034,2.0576,2.1569,2.1382,2.1491,2.2007,2.1832,2.1573,2.1239,2.2221,2.1645,1.9628,1.9822,1.9271,1.7996,1.9317,1.9317,1.8401,1.9524,1.9479,1.8721,2.0133,2.1844,2.3678,2.4098,2.4044,2.3822,2.3822,2.482,2.6273,0.5428,0.7832,1.0339,1.1819,1.1229,1.0624,1.0624,1.0624,1.0624,1.0624,1.0624,1.0624,1.0624,1.1463,1.2131,1.2285,1.2305,1.2305,1.2305,1.2305,1.2305,1.2305,1.2305,1.2445,1.2815,1.2822,1.2879,1.3146,1.3106,1.3133,1.32,1.2852,1.2788,1.2808,1.2438,1.2445,1.2761,1.2761,1.346,1.4447,1.3808,1.4093,1.4947,1.4269,1.4552,1.5471,1.5554,1.7319,1.9625,2.0562,2.0301,1.977,2.1072,2.0592,1.9852,2.1578,2.1987,2.1973,2.2754,2.2705,2.2425,2.2688,2.2824,2.295,2.2533,2.2562,2.26,2.26,2.2736,2.2492,2.1293,2.1203,2.1203,2.1114,2.1025,2.1391,2.2501,2.2775,2.2862,2.2862,2.212,2.1033,1.9852,2.0576,2.1025,2.1025,2.2031,2.2677,2.2862,2.1845,2.1491,2.2007,2.0974,2.1217,2.2919,2.3121,2.2619,2.1374,2.249,2.1812,1.9428,2.0743,2.1347,2.1143,2.1347,2.1371,2.1162,2.088,2.2338,2.4807,2.5541,2.4931,2.3822,2.3822,2.482,2.6318,0.8836,0.8435,0.8477,1.0892,1.0902,1.0782,1.1436,1.0982,1.0624,1.0624,1.1129,1.1289,1.0698,1.1603,1.2305,1.2305,1.2305,1.2305,1.2305,1.2305,1.2305,1.2305,1.2305,1.2518,1.2993,1.3006,1.3233,1.3701,1.3373,1.338,1.3687,1.3227,1.3093,1.3233,1.2939,1.2879,1.3084,1.3677,1.4392,1.5087,1.4685,1.4932,1.5502,1.517,1.5405,1.624,1.7679,1.9383,2.099,2.1428,2.1255,2.1018,2.1651,2.1409,2.1104,2.2155,2.2383,2.2373,2.2969,2.2998,2.291,2.3096,2.3135,2.3135,2.3135,2.3135,2.3135,2.3135,2.3135,2.295,2.2403,2.2306,2.2306,2.2306,2.2306,2.2492,2.3047,2.3135,2.3135,2.3135,2.2589,2.2129,2.1587,2.1943,2.2306,2.2306,2.2775,2.3135,2.3135,2.2809,2.2853,2.3369,2.3028,2.3435,2.4638,2.4648,2.403,2.2868,2.3384,2.2265,1.9635,2.2062,2.2775,2.2076,2.2179,2.2377,2.2592,2.2376,2.3594,2.5782,2.691,2.6943,2.6164,2.538,2.6045,2.745]},{"header":{"parameterUnit":"m.s-1","parameterCategory":1,"la1":30.6,"la2":28.766,"lo1":-90.7593,"lo2":-88.6598,"dy":0.0162,"dx":0.0183,"nx":116,"ny":114,"refTime":"2024-02-22T18:00:00:Z","depth":0,"parameterNumber":3,"parameterNumberName":"V-component_of_WINDS"},"data":[0.0,0.0,0.0,0.0,0.0,0.0,0.0,0.0,0.0,0.0,0.0,0.0,0.0,0.0,0.0,0.0,0.0,0.0,0.0,0.0,0.0,0.0,0.0,0.0,0.0,0.0,0.0,0.0,0.0,0.0,0.0,0.0,0.0,0.0,0.0,0.0,0.0,0.0,0.0,0.0,0.0,0.0,0.0,0.0,0.0,0.0,0.0,0.0,0.0,0.0,0.0,0.0,0.0,0.0,0.0,0.0,0.0,0.0,0.0,0.0,0.0,0.0,0.0,0.0,0.0,0.0,0.0,0.0,0.0,0.0,0.0,0.0,0.0,0.0,0.0,0.0,0.0,0.0,0.0,0.0,0.0,0.0,0.0,0.0,0.0,0.0,0.0,0.0,0.0,0.0,0.0,0.0,0.0,0.0,0.0,0.0,0.0,0.0,0.0,0.0,0.0,0.0,0.0,0.0,0.0,0.0,0.0,0.0,0.0,0.0,0.0,0.0,0.0,0.0,0.0,0.0,0.0,0.0,0.0,0.0,0.0,0.0,0.0,0.0,0.0,0.0,0.0,0.0,0.0,0.0,0.0,0.0,0.0,0.0,0.0,0.0,0.0,0.0,0.0,0.0,0.0,0.0,0.0,0.0,0.0,0.0,0.0,0.0,0.0,0.0,0.0,0.0,0.0,0.0,0.0,0.0,0.0,0.0,0.0,0.0,0.0,0.0,0.0,0.0,0.0,0.0,0.0,0.0,0.0,0.0,0.0,0.0,0.0,0.0,0.0,0.0,0.0,0.0,0.0,0.0,0.0,0.0,0.0,0.0,0.0,0.0,0.0,0.0,0.0,0.0,0.0,0.0,0.0,0.0,0.0,0.0,0.0,0.0,0.0,0.0,0.0,0.0,0.0,0.0,0.0,0.0,0.0,0.0,0.0,0.0,0.0,0.0,0.0,0.0,0.0,0.0,0.0,0.0,0.0,0.0,0.0,0.0,0.0,0.0,0.0,0.0,0.0,0.0,0.0,0.0,0.0,0.0,0.0,0.0,0.0,0.0,0.0,0.0,0.0,0.0,0.0,0.0,0.0,0.0,0.0,0.0,0.0,0.0,0.0,0.0,0.0,0.0,0.0,0.0,0.0,0.0,0.0,0.0,0.0,0.0,0.0,0.0,0.0,0.0,0.0,0.0,0.0,0.0,0.0,0.0,0.0,0.0,0.0,0.0,0.0,0.0,0.0,0.0,0.0,0.0,0.0,0.0,0.0,0.0,0.0,0.0,0.0,0.0,0.0,0.0,0.0,0.0,0.0,0.0,0.0,0.0,0.0,0.0,0.0,0.0,0.0,0.0,0.0,0.0,0.0,0.0,0.0,0.0,0.0,0.0,0.0,0.0,0.0,0.0,0.0,0.0,0.0,0.0,0.0,0.0,0.0,0.0,0.0,0.0,0.0,0.0,0.0,0.0,0.0,0.0,0.0,0.0,0.0,0.0,0.0,0.0,0.0,0.0,0.0,0.0,0.0,0.0,0.0,0.0,0.0,0.0,0.0,0.0,0.0,0.0,0.0,0.0,0.0,0.0,0.0,0.0,0.0,0.0,0.0,0.0,0.0,0.0,0.0,0.0,0.0,0.0,0.0,0.0,0.0,0.0,0.0,0.0,0.0,0.0,0.0,0.0,0.0,0.0,0.0,0.0,0.0,0.0,0.0,0.0,0.0,0.0,0.0,0.0,0.0,0.0,0.0,0.0,0.0,0.0,0.0,0.0,0.0,0.0,0.0,0.0,0.0,0.0,0.0,0.0,0.0,0.0,0.0,0.0,0.0,0.0,0.0,0.0,0.0,0.0,0.0,0.0,0.0,0.0,0.0,0.0,0.0,0.0,0.0,0.0,0.0,0.0,0.0,0.0,0.0,0.0,0.0,0.0,0.0,0.0,0.0,0.0,0.0,0.0,0.0,0.0,0.0,0.0,0.0,0.0,0.0,0.0,0.0,0.0,0.0,0.0,0.0,0.0,0.0,0.0,0.0,0.0,0.0,0.0,0.0,0.0,0.0,0.0,0.0,0.0,0.0,0.0,0.0,0.0,0.0,0.0,0.0,0.0,0.0,0.0,0.0,0.0,0.0,0.0,0.0,0.0,0.0,0.0,0.0,0.0,0.0,0.0,0.0,0.0,0.0,0.0,0.0,0.0,0.0,0.0,0.0,0.0,0.0,0.0,0.0,0.0,0.0,0.0,0.0,0.0,0.0,0.0,0.0,0.0,0.0,0.0,0.0,0.0,0.0,0.0,0.0,0.0,0.0,0.0,0.0,0.0,0.0,0.0,0.0,0.0,0.0,0.0,0.0,0.0,0.0,0.0,0.0,0.0,0.0,0.0,0.0,0.0,0.0,0.0,0.0,0.0,0.0,0.0,0.0,0.0,0.0,0.0,0.0,0.0,0.0,0.0,0.0,0.0,0.0,0.0,0.0,0.0,0.0,0.0,0.0,0.0,0.0,0.0,0.0,0.0,0.0,0.0,0.0,0.0,0.0,0.0,0.0,0.0,0.0,0.0,0.0,0.0,0.0,0.0,0.0,0.0,0.0,0.0,0.0,0.0,0.0,0.0,0.0,0.0,0.0,0.0,0.0,0.0,0.0,0.0,0.0,0.0,0.0,0.0,0.0,0.0,0.0,0.0,0.0,0.0,0.0,0.0,0.0,0.0,0.0,0.0,0.0,0.0,0.0,0.0,0.0,0.0,0.0,0.0,0.0,0.0,0.0,0.0,0.0,0.0,0.0,0.0,0.0,0.0,0.0,0.0,0.0,0.0,0.0,0.0,0.0,0.0,0.0,0.0,0.0,0.0,0.0,0.0,0.0,0.0,0.0,0.0,0.0,0.0,0.0,0.0,0.0,0.0,0.0,0.0,0.0,0.0,0.0,0.0,0.0,0.0,0.0,0.0,0.0,0.0,0.0,0.0,0.0,0.0,0.0,0.0,0.0,0.0,0.0,0.0,0.0,0.0,0.0,0.0,0.0,0.0,0.0,0.0,0.0,0.0,0.0,0.0,0.0,0.0,0.0,0.0,0.0,0.0,0.0,0.0,0.0,0.0,0.0,0.0,0.0,0.0,0.0,0.0,0.0,0.0,0.0,0.0,0.0,0.0,0.0,0.0,0.0,0.0,0.0,0.0,0.0,0.0,0.0,0.0,0.0,0.0,0.0,0.0,0.0,0.0,0.0,0.0,0.0,0.0,0.0,0.0,0.0,0.0,0.0,0.0,0.0,0.0,0.0,0.0,0.0,0.0,0.0,0.0,0.0,0.0,0.0,0.0,0.0,0.0,0.0,0.0,0.0,0.0,0.0,0.0,0.0,0.0,0.0,0.0,0.0,0.0,0.0,0.0,0.0,0.0,0.0,0.0,0.0,0.0,0.0,0.0,0.0,0.0,0.0,0.0,0.0,0.0,0.0,0.0,0.0,0.0,0.0,0.0,0.0,0.0,0.0,0.0,0.0,0.0,0.0,0.0,0.0,0.0,0.0,0.0,0.0,0.0,0.0,0.0,0.0,0.0,0.0,0.0,0.0,0.0,0.0,0.0,0.0,0.0,0.0,0.0,0.0,0.0,0.0,0.0,0.0,0.0,0.0,0.0,0.0,0.0,0.0,0.0,0.0,0.0,0.0,0.0,0.0,0.0,0.0,0.0,0.0,0.0,0.0,0.0,0.0,0.0,0.0,0.0,0.0,0.0,0.0,0.0,0.0,0.0,0.0,0.0,0.0,0.0,0.0,0.0,0.0,0.0,0.0,0.0,0.0,0.0,0.0,0.0,0.0,0.0,0.0,0.0,0.0,0.0,0.0,0.0,0.0,0.0,0.0,0.0,0.0,0.0,0.0,0.0,0.0,0.0,0.0,0.0,0.0,0.0,0.0,0.0,0.0,0.0,0.0,0.0,0.0,0.0,0.0,0.0,0.0,0.0,0.0,0.0,0.0,0.0,0.0,0.0,0.0,0.0,0.0,0.0,0.0,0.0,0.0,0.0,0.0,0.0,0.0,0.0,0.0,0.0,0.0,0.0,0.0,0.0,0.0,0.0,0.0,0.0,0.0,0.0,0.0,0.0,0.0,0.0,0.0,0.0,0.0,0.0,0.0,0.0,0.0,0.0,0.0,0.0,0.0,0.0,0.0,0.0,0.0,0.0,0.0,0.0,0.0,0.0,0.0,0.0,0.0,0.0,0.0,0.0,0.0,0.0,0.0,0.0,0.0,0.0,0.0,0.0,0.0,0.0,0.0,0.0,0.0,0.0,0.0,0.0,0.0,0.0,0.0,0.0,0.0,0.0,0.0,0.0,0.0,0.0,0.0,0.0,0.0,0.0,0.0,0.0,0.0,0.0,0.0,0.0,0.0,0.0,0.0,0.0,0.0,0.0,0.0,0.0,0.0,0.0,0.0,0.0,0.0,0.0,0.0,0.0,0.0,0.0,0.0,0.0,0.0,0.0,0.0,0.0,0.0,0.0,0.0,0.0,0.0,0.0,0.0,0.0,0.0,0.0,0.0,0.0,0.0,0.0,0.0,0.0,0.0,0.0,0.0,0.0,0.0,0.0,0.0,0.0,0.0,0.0,0.0,0.0,0.0,0.0,0.0,0.0,0.0,0.0,0.0,0.0,0.0,0.0,0.0,0.0,0.0,0.0,0.0,0.0,0.0,0.0,0.0,0.0,0.0,0.0,0.0,0.0,0.0,0.0,0.0,0.0,0.0,0.0,0.0,0.0,0.0,0.0,0.0,0.0,0.0,0.0,0.0,0.0,0.0,0.0,0.0,0.0,0.0,0.0,0.0,0.0,0.0,0.0,0.0,0.0,0.0,0.0,0.0,0.0,0.0,0.0,0.0,0.0,0.0,0.0,0.0,0.0,0.0,0.0,0.0,0.0,0.0,0.0,0.0,0.0,0.0,0.0,0.0,0.0,0.0,0.0,0.0,0.0,0.0,0.0,0.0,0.0,0.0,0.0,0.0,0.0,0.0,0.0,0.0,0.0,0.0,0.0,0.0,0.0,0.0,0.0,0.0,0.0,0.0,0.0,0.0,0.0,0.0,0.0,0.0,0.0,0.0,0.0,0.0,0.0,0.0,0.0,0.0,0.0,0.0,0.0,0.0,0.0,0.0,0.0,0.0,0.0,0.0,0.0,0.0,0.0,0.0,0.0,0.0,0.0,0.0,0.0,0.0,0.0,0.0,0.0,0.0,0.0,0.0,0.0,0.0,0.0,0.0,0.0,0.0,0.0,0.0,0.0,0.0,0.0,0.0,0.0,0.0,0.0,0.0,0.0,0.0,0.0,0.0,0.0,0.0,0.0,0.0,0.0,0.0,0.0,0.0,0.0,0.0,0.0,0.0,0.0,0.0,0.0,0.0,0.0,0.0,0.0,0.0,0.0,0.0,0.0,0.0,0.0,0.0,0.0,0.0,0.0,0.0,0.0,0.0,0.0,0.0,0.0,0.0,0.0,0.0,0.0,0.0,0.0,0.0,0.0,0.0,0.0,0.0,0.0,0.0,0.0,0.0,0.0,0.0,0.0,0.0,0.0,0.0,0.0,0.0,0.0,0.0,0.0,0.0,0.0,0.0,0.0,0.0,0.0,0.0,0.0,0.0,0.0,0.0,0.0,0.0,0.0,0.0,0.0,0.0,0.0,0.0,0.0,0.0,0.0,0.0,0.0,0.0,0.0,0.0,0.0,0.0,0.0,0.0,0.0,0.0,0.0,0.0,0.0,0.0,0.0,0.0,0.0,0.0,0.0,0.0,0.0,0.0,0.0,0.0,0.0,0.0,0.0,0.0,0.0,0.0,0.0,0.0,0.0,0.0,0.0,0.0,0.0,0.0,0.0,0.0,0.0,0.0,0.0,0.0,0.0,0.0,0.0,0.0,0.0,0.0,0.0,0.0,0.0,0.0,0.0,0.0,0.0,0.0,0.0,0.0,0.0,0.0,0.0,0.0,0.0,0.0,0.0,0.0,0.0,0.0,0.0,0.0,0.0,0.0,0.0,0.0,0.0,0.0,0.0,0.0,0.0,0.0,0.0,0.0,0.0,0.0,0.0,0.0,0.0,0.0,0.0,0.0,0.0,0.0,0.0,-0.4046,0.0,0.0,0.0,0.0,0.0,0.0,0.0,0.0,0.0,0.0,0.0,0.0,0.0,0.0,0.0,0.0,0.0,0.0,0.0,0.0,0.0,0.0,0.0,0.0,0.0,0.0,0.0,-1.5658,-1.5901,-1.6369,-1.6452,-1.6725,-1.7193,-1.726,-1.7647,-1.8469,-1.8474,-1.8851,-1.9619,-1.9456,-1.9682,-2.0276,-2.0292,-1.9795,-1.8877,0.0,0.0,0.0,0.0,0.0,0.0,0.0,0.0,0.0,0.0,0.0,0.0,0.0,0.0,0.0,0.0,0.0,0.0,0.0,0.0,0.0,0.0,0.0,0.0,0.0,0.0,0.0,0.0,0.0,0.0,0.0,0.0,0.0,0.0,0.0,0.0,0.0,0.0,0.0,0.0,0.0,0.0,0.0,0.0,0.0,0.0,0.0,0.0,0.0,0.0,0.0,0.0,0.0,0.0,0.0,0.0,0.0,0.0,0.0,0.0,0.0,0.0,0.0,0.0,0.0,0.0,0.0,0.0,0.0,0.0,0.0,-0.4056,0.0,0.0,0.0,0.0,0.0,0.0,0.0,0.0,0.0,0.0,0.0,0.0,0.0,0.0,0.0,0.0,0.0,0.0,0.0,0.0,0.0,0.0,0.0,0.0,-1.5628,-1.6404,-1.6615,-1.6984,-1.7664,-1.7767,-1.7893,-1.8127,-1.8135,-1.8504,-1.9323,-1.9323,-1.9654,-2.0312,-2.0365,-2.0687,-2.1283,-2.1825,-2.154,0.0,0.0,0.0,0.0,0.0,0.0,0.0,0.0,0.0,0.0,0.0,0.0,0.0,0.0,0.0,0.0,0.0,0.0,0.0,0.0,0.0,0.0,0.0,0.0,0.0,0.0,0.0,0.0,0.0,0.0,0.0,0.0,0.0,0.0,0.0,0.0,0.0,0.0,0.0,0.0,0.0,0.0,0.0,0.0,0.0,0.0,0.0,0.0,0.0,0.0,0.0,0.0,0.0,0.0,0.0,0.0,0.0,0.0,0.0,0.0,0.0,0.0,0.0,0.0,0.0,-0.416,-0.4219,-0.4104,-0.4351,-0.4328,-0.4097,-0.4097,-0.4222,-0.4406,-0.4189,0.0,0.0,0.0,0.0,0.0,0.0,0.0,0.0,0.0,0.0,0.0,0.0,0.0,0.0,0.0,0.0,0.0,0.0,0.0,0.0,0.0,-1.684,-1.7027,-1.716,-1.7401,-1.7587,-1.7702,-1.7759,-1.8171,-1.8982,-1.9034,-1.9424,-2.0299,-2.0262,-2.0246,-2.0312,-2.1373,-2.2316,-2.3173,-2.4339,0.0,0.0,0.0,0.0,0.0,0.0,0.0,0.0,0.0,0.0,0.0,0.0,0.0,0.0,0.0,0.0,0.0,0.0,0.0,0.0,0.0,0.0,0.0,0.0,0.0,0.0,0.0,0.0,0.0,0.0,0.0,0.0,0.0,0.0,0.0,0.0,0.0,0.0,0.0,0.0,0.0,0.0,0.0,0.0,0.0,0.0,-0.6977,-0.7259,0.0,0.0,0.0,0.0,0.0,0.0,0.0,0.0,0.0,0.0,0.0,0.0,0.0,-0.3982,-0.3961,-0.408,-0.4167,-0.4167,-0.4365,-0.4477,-0.446,-0.4498,-0.4494,-0.4457,-0.4457,0.0,-0.4231,-0.4368,0.0,0.0,0.0,0.0,0.0,0.0,0.0,0.0,0.0,0.0,0.0,0.0,0.0,0.0,0.0,0.0,0.0,0.0,0.0,0.0,0.0,-1.7713,-1.8137,-1.8137,-1.9624,-2.0177,-1.9215,-2.0104,-2.045,-1.9949,-1.9923,-2.0109,-2.0491,-2.0421,-2.1075,-2.2427,-2.3683,-2.4956,-2.6268,0.0,0.0,0.0,0.0,0.0,0.0,0.0,0.0,0.0,0.0,0.0,0.0,0.0,0.0,0.0,0.0,0.0,0.0,0.0,0.0,0.0,0.0,0.0,0.0,0.0,0.0,0.0,0.0,0.0,0.0,0.0,0.0,0.0,0.0,0.0,0.0,0.0,0.0,0.0,0.0,0.0,0.0,0.0,0.0,0.0,0.0,-0.7901,-0.7993,-0.8126,-0.8024,-0.7835,0.0,0.0,0.0,0.0,0.0,0.0,0.0,0.0,0.0,-0.4601,-0.4298,-0.4189,-0.4267,-0.4419,-0.4541,-0.4569,-0.4687,-0.4718,-0.4718,-0.4718,-0.4718,-0.4718,-0.4718,-0.4633,-0.4494,-0.4473,-0.4519,-0.4519,0.0,0.0,0.0,0.0,-0.4519,-0.4519,0.0,0.0,0.0,0.0,0.0,0.0,0.0,0.0,0.0,0.0,0.0,0.0,-1.8087,-1.9103,-1.9869,-2.006,-2.1741,-2.237,-2.1331,-2.1872,-2.1801,-2.0855,-2.0612,-2.0502,-2.0528,-2.108,-2.2494,-2.4774,-2.6222,-2.7657,0.0,0.0,0.0,0.0,0.0,0.0,0.0,0.0,0.0,0.0,0.0,0.0,0.0,0.0,0.0,0.0,0.0,0.0,0.0,0.0,0.0,0.0,0.0,0.0,0.0,0.0,0.0,0.0,0.0,0.0,0.0,0.0,0.0,0.0,0.0,0.0,0.0,0.0,0.0,0.0,0.0,0.0,0.0,0.0,0.0,0.0,0.0,-0.8572,-0.8685,-0.8533,-0.8533,-0.8423,0.0,0.0,0.0,0.0,0.0,0.0,-0.6902,-0.6323,-0.5526,-0.4628,-0.4453,-0.447,-0.4579,-0.4694,-0.4806,-0.4918,-0.4918,-0.4918,-0.4918,-0.4918,-0.4918,-0.4918,-0.4918,-0.4853,-0.4738,-0.4582,-0.4553,-0.4519,-0.4519,-0.4519,-0.4519,-0.4519,-0.4519,-0.4519,0.0,0.0,0.0,0.0,0.0,0.0,0.0,0.0,0.0,0.0,0.0,-1.8927,-2.0457,-2.1687,-2.2724,-2.3468,-2.3103,-2.3129,-2.386,-2.1735,-2.0785,-2.1593,-2.0901,-2.054,-2.0586,-2.2829,-2.4839,-2.6572,0.0,0.0,0.0,0.0,0.0,0.0,0.0,0.0,0.0,0.0,0.0,0.0,0.0,0.0,0.0,0.0,0.0,0.0,0.0,0.0,0.0,0.0,0.0,0.0,0.0,0.0,0.0,0.0,0.0,0.0,0.0,0.0,0.0,0.0,0.0,0.0,0.0,0.0,0.0,0.0,0.0,0.0,0.0,0.0,0.0,0.0,0.0,0.0,0.0,0.0,0.0,-0.7824,-0.7777,0.0,0.0,0.0,0.0,-0.834,-0.6707,-0.6239,-0.7557,-0.5823,-0.5067,-0.5686,-0.5162,-0.4891,-0.4897,-0.4904,-0.4911,-0.4918,-0.4918,-0.4918,-0.4918,-0.4918,-0.4918,-0.4918,-0.4918,-0.4914,-0.4897,-0.4741,-0.4596,-0.4519,-0.4519,-0.4519,-0.4519,-0.4519,-0.4519,-0.4519,0.0,0.0,0.0,0.0,0.0,0.0,0.0,0.0,-1.8707,-1.9237,-1.967,-2.0615,-2.241,-2.4024,-2.5363,-2.6346,-2.6696,-2.6314,-2.5031,-2.3602,-2.275,-2.2605,-2.183,-2.1917,-2.3027,-2.4954,-2.6993,-2.9148,0.0,0.0,0.0,0.0,0.0,0.0,0.0,0.0,0.0,0.0,0.0,0.0,0.0,0.0,0.0,0.0,0.0,0.0,0.0,0.0,0.0,0.0,0.0,0.0,0.0,0.0,0.0,0.0,0.0,0.0,0.0,0.0,0.0,0.0,0.0,0.0,0.0,0.0,0.0,0.0,0.0,0.0,0.0,0.0,0.0,0.0,0.0,0.0,0.0,0.0,0.0,-0.869,-0.8642,0.0,-0.8555,-0.8632,-0.8706,-0.8884,-0.846,-0.8211,-0.8273,-0.7602,-0.7125,-0.689,-0.6671,-0.6587,-0.6709,-0.6709,-0.6466,-0.6081,-0.6654,-0.6591,-0.6081,-0.6081,-0.6081,-0.6022,-0.5456,-0.5148,-0.505,-0.4996,-0.483,-0.4599,-0.4556,-0.4519,-0.4519,-0.4519,-0.458,-0.4596,0.0,0.0,0.0,0.0,0.0,0.0,0.0,0.0,-1.915,-1.9274,-2.0466,-2.1999,-2.3839,-2.5971,-2.7769,-2.9071,-2.8871,-2.8007,-2.6352,-2.4399,-2.311,-2.266,-2.244,-2.3262,-2.5234,-2.7187,-2.9391,0.0,0.0,0.0,0.0,0.0,0.0,0.0,0.0,0.0,0.0,0.0,0.0,0.0,0.0,0.0,-2.2756,0.0,0.0,0.0,0.0,0.0,0.0,0.0,0.0,0.0,0.0,0.0,0.0,0.0,0.0,0.0,0.0,0.0,0.0,0.0,0.0,0.0,0.0,0.0,0.0,0.0,0.0,0.0,0.0,0.0,0.0,0.0,0.0,0.0,0.0,0.0,-0.9911,-0.9519,-0.9626,-0.9646,-0.9489,-0.9475,-0.9435,-0.9399,-0.9336,-0.9084,-0.861,-0.8391,-0.8072,-0.7586,-0.7603,-0.7716,-0.7792,-0.7797,-0.7555,-0.7111,-0.7437,-0.7242,-0.6719,-0.6396,-0.6268,-0.6203,-0.562,-0.5304,-0.5206,-0.5152,-0.5016,-0.4819,-0.4619,-0.4563,-0.4519,-0.4519,-0.4558,-0.4677,0.0,0.0,0.0,0.0,0.0,0.0,0.0,-1.9166,-1.9289,-1.9305,-2.111,-2.3031,-2.4788,-2.7503,-2.991,-3.1641,-2.9448,-2.7967,-2.7928,-2.3995,-2.1671,-2.1784,-2.28,-2.4551,-2.7109,0.0,0.0,0.0,0.0,0.0,0.0,0.0,0.0,0.0,0.0,0.0,0.0,0.0,0.0,0.0,0.0,0.0,-2.5292,0.0,0.0,0.0,0.0,0.0,0.0,0.0,0.0,0.0,0.0,0.0,0.0,0.0,0.0,0.0,0.0,0.0,0.0,0.0,0.0,0.0,0.0,0.0,0.0,0.0,0.0,0.0,0.0,0.0,0.0,0.0,0.0,0.0,-1.0524,-1.1091,-1.1329,-1.0214,-1.0394,-1.0461,-1.0174,-1.0134,-1.0013,-0.9746,-0.9063,-0.8711,-0.8658,-0.8149,-0.7835,-0.7835,-0.7994,-0.8112,-0.8112,-0.8107,-0.8102,-0.8037,-0.7242,-0.6785,-0.6719,-0.5881,-0.5491,-0.5428,-0.5428,-0.5428,-0.5415,-0.5196,-0.5131,-0.5101,-0.4806,-0.4599,-0.4525,-0.4519,-0.4615,-0.4749,0.0,0.0,0.0,0.0,0.0,0.0,0.0,-1.8913,-1.9182,-1.9485,-2.2111,-2.4714,-2.6644,-2.9715,-3.2152,-3.341,-3.1179,-2.9448,-2.8813,-2.486,-2.2882,-2.3622,-2.5741,0.0,-3.0703,0.0,0.0,0.0,0.0,0.0,0.0,0.0,0.0,0.0,0.0,0.0,0.0,0.0,0.0,0.0,0.0,0.0,-2.6185,0.0,0.0,0.0,0.0,0.0,0.0,0.0,0.0,0.0,0.0,0.0,0.0,0.0,0.0,0.0,0.0,0.0,0.0,0.0,0.0,0.0,0.0,0.0,0.0,0.0,0.0,0.0,0.0,0.0,0.0,0.0,-1.3204,-1.3037,-1.1247,-1.1448,-1.1479,-1.0552,-1.0695,-1.0842,-1.0762,-1.0561,-1.0494,-1.0621,-1.0437,-1.0458,-1.06,-1.0473,-1.0378,-1.0378,-1.0459,-1.0497,-1.0497,-1.0296,-0.9873,-0.9207,-0.9415,-0.8865,-0.7632,-0.7377,-0.692,-0.6334,-0.5686,-0.5428,-0.5415,-0.5196,-0.5131,-0.5101,-0.4806,-0.4663,-0.4616,-0.456,-0.5001,-0.5558,0.0,0.0,0.0,0.0,0.0,0.0,0.0,-1.8896,-1.9246,-1.9889,-2.293,-2.5825,-2.7804,-3.0433,-3.2484,-3.3551,-3.1025,-2.8832,-2.7582,-2.4648,-2.3676,0.0,0.0,0.0,0.0,0.0,0.0,0.0,0.0,0.0,0.0,0.0,0.0,0.0,0.0,0.0,0.0,0.0,0.0,0.0,0.0,0.0,-2.9161,-2.7047,-2.5987,-2.5382,-2.3678,-2.3279,-2.3106,-2.0189,0.0,0.0,0.0,0.0,0.0,0.0,0.0,0.0,0.0,0.0,0.0,0.0,0.0,0.0,0.0,0.0,0.0,0.0,0.0,0.0,0.0,0.0,0.0,0.0,-1.415,-1.4506,-1.3261,-1.3289,-1.322,-1.2392,-1.2412,-1.231,-1.1988,-1.1471,-1.1129,-1.1169,-1.1176,-1.1249,-1.1416,-1.1423,-1.1423,-1.1423,-1.1423,-1.1423,-1.1423,-1.1263,-1.0842,-1.0255,-1.0223,-0.9633,-0.8549,-0.8156,-0.7697,-0.7242,-0.6728,-0.647,-0.6461,-0.6351,-0.6305,0.0,0.0,0.0,0.0,0.0,-0.5749,-0.5741,0.0,0.0,0.0,0.0,0.0,0.0,0.0,-1.8966,-1.9339,-2.028,-2.3423,-2.6249,-2.801,-2.9977,-3.1522,-3.2398,-2.966,-2.7198,-2.5553,0.0,0.0,0.0,0.0,0.0,0.0,0.0,0.0,0.0,0.0,0.0,0.0,0.0,0.0,0.0,0.0,0.0,0.0,0.0,0.0,0.0,0.0,0.0,-3.3254,-3.0243,-2.9828,-3.0508,-2.8057,-2.6472,-2.5277,-2.3281,0.0,0.0,0.0,0.0,0.0,0.0,0.0,0.0,0.0,0.0,0.0,0.0,0.0,0.0,0.0,0.0,0.0,0.0,0.0,0.0,0.0,0.0,0.0,0.0,-1.54,-1.6181,-1.5919,-1.6163,-1.5907,-1.4753,-1.4504,-1.4065,-1.3238,-1.2374,-1.177,-1.1543,-1.1496,-1.149,-1.1523,0.0,0.0,0.0,0.0,-1.1523,-1.1523,-1.149,-1.1349,-1.1089,-1.025,-0.9712,-0.9356,-0.8533,-0.8127,-0.8062,-0.8037,-0.8027,-0.8021,-0.7996,-0.797,-0.7766,-0.5779,-0.551,-0.628,-0.6904,-0.6501,-0.5596,0.0,0.0,0.0,0.0,0.0,0.0,0.0,-1.8861,-1.919,-1.9707,-2.2716,-2.5069,-2.5711,-2.8496,-3.0188,-2.986,-2.864,-2.7467,0.0,0.0,0.0,0.0,0.0,0.0,0.0,0.0,0.0,0.0,0.0,0.0,0.0,0.0,0.0,0.0,0.0,0.0,0.0,0.0,0.0,0.0,0.0,0.0,-3.6323,-3.4714,-3.3589,-3.2645,-3.1234,-3.0858,-3.0662,-2.7767,-2.6565,-2.5783,-2.2995,0.0,0.0,0.0,0.0,0.0,0.0,0.0,0.0,0.0,0.0,0.0,0.0,0.0,0.0,0.0,0.0,0.0,0.0,0.0,0.0,-1.5674,-1.6494,-1.7327,-1.7938,-1.8629,-1.7825,-1.445,-1.4286,-1.3933,-1.2611,-1.2148,-1.1944,-1.2118,-1.1917,-1.1884,-1.2118,-1.2131,-1.2131,-1.2131,-1.2131,-1.2131,-1.2131,-1.1897,-1.1757,-1.1697,0.0,0.0,-0.9947,-0.9533,-0.8964,-0.8281,-0.8103,-0.8027,-0.8011,-0.7823,-0.7706,-0.7557,-0.7233,-0.6745,-0.6203,-0.6218,-0.6155,-0.6062,0.0,0.0,0.0,0.0,0.0,0.0,0.0,-1.8715,-1.9092,-1.9951,-2.2245,-2.4062,-2.4771,-2.6317,-2.7234,-2.7098,-2.6032,0.0,0.0,0.0,0.0,0.0,0.0,0.0,0.0,0.0,0.0,0.0,0.0,0.0,0.0,0.0,0.0,0.0,0.0,0.0,0.0,0.0,0.0,0.0,0.0,0.0,-4.0443,-3.8342,-3.7114,-3.6317,-3.4996,-3.4125,-3.3203,-3.0586,-2.905,-2.7809,-2.5216,-2.3209,-2.1562,0.0,0.0,0.0,0.0,0.0,0.0,0.0,0.0,0.0,0.0,0.0,0.0,0.0,0.0,-1.6362,-1.5806,0.0,-1.6797,-1.7298,-1.8086,-1.8955,-1.9814,-2.0312,-1.9535,-1.6943,-1.6478,-1.6104,-1.5224,-1.4007,-1.3397,-1.3547,-1.2838,-1.2446,-1.2518,-1.2385,-1.2305,-1.2305,-1.2305,-1.2371,-1.2525,-1.2231,-1.2084,-1.2084,-1.1784,-1.1355,-1.0723,-1.0585,-1.0245,-0.9699,-0.9568,-0.9438,-0.9314,-0.9178,-0.911,-0.9076,-0.9134,-0.8454,-0.7413,-0.7403,-0.7408,-0.7429,0.0,0.0,0.0,0.0,0.0,0.0,0.0,-1.8585,-1.8985,-2.0124,-2.1566,-2.2864,-2.3755,-2.3948,-2.4178,-2.4583,0.0,0.0,0.0,0.0,0.0,0.0,0.0,0.0,0.0,0.0,0.0,0.0,0.0,0.0,0.0,0.0,0.0,0.0,0.0,0.0,0.0,0.0,0.0,0.0,0.0,0.0,-4.383,-4.1215,-4.0157,-3.9896,-3.8209,-3.6388,-3.4467,-3.2587,-3.0559,-2.8607,-2.694,-2.5313,-2.3709,-2.1953,-2.0727,0.0,0.0,0.0,0.0,0.0,0.0,0.0,0.0,0.0,-1.7431,-1.7051,-1.7415,-1.7665,-1.7396,-1.7575,-1.8076,-1.8914,-1.962,-2.0322,-2.1123,-2.1309,-2.0937,-1.9805,-1.8957,-1.8285,-1.7662,-1.6092,-1.5096,-1.5096,-1.4088,-1.3501,-1.3501,-1.3044,-1.2763,-1.2763,-1.2546,-1.2592,-1.2916,-1.2599,-1.2478,-1.2478,-1.2178,-1.1917,-1.1677,-1.1563,-1.1383,-1.1156,-1.1042,-1.0862,-1.0641,-1.0645,-1.0658,-1.0641,-1.0514,-0.9875,-0.9102,-0.89,-0.8667,-0.8468,0.0,0.0,0.0,0.0,0.0,0.0,0.0,0.0,-1.8789,-1.9371,-2.0225,-2.0892,-2.1189,-2.1857,-2.2431,-2.2844,0.0,0.0,0.0,0.0,0.0,0.0,0.0,0.0,0.0,0.0,0.0,0.0,0.0,0.0,0.0,0.0,0.0,0.0,0.0,0.0,0.0,0.0,0.0,0.0,0.0,0.0,-4.4361,-4.2984,-4.2276,-4.1716,-3.959,-3.7344,-3.5238,-3.4178,-3.1879,-2.9438,-2.9032,-2.7559,-2.5648,-2.3819,0.0,-2.0906,-1.9188,-1.8066,-1.7229,-1.6637,-1.6911,-1.7264,0.0,0.0,-1.7906,-1.7429,-1.7664,-1.8084,-1.8521,-1.8568,-1.8934,-2.0305,-2.0521,-2.0664,-2.1172,-2.1562,-2.1611,-2.1084,-1.949,-1.7961,-1.6716,-1.638,-1.622,-1.622,-1.6103,-1.601,-1.601,-1.508,-1.4535,-1.4535,-1.3634,-1.3126,-1.316,-1.3126,-1.3106,-1.3106,-1.2792,-1.2708,-1.2654,-1.2058,-1.1804,-1.1744,-1.1216,-1.0975,-1.0922,-1.0732,-1.0715,-1.0876,-1.0079,-1.0323,-1.0935,-0.9493,-0.8477,-0.7896,0.0,0.0,0.0,0.0,0.0,0.0,0.0,0.0,0.0,-1.9259,-1.9583,-1.9832,-1.9919,-2.0336,-2.0666,0.0,0.0,0.0,0.0,0.0,0.0,0.0,0.0,0.0,0.0,0.0,0.0,0.0,0.0,0.0,0.0,0.0,0.0,0.0,0.0,0.0,0.0,0.0,0.0,0.0,0.0,0.0,-4.3141,-4.1005,-3.9167,-3.771,-3.7516,-3.5688,0.0,0.0,-3.0474,-2.8672,-2.8075,-2.6689,-2.4987,-2.3654,-2.2152,0.0,-1.9236,-1.8285,-1.7665,0.0,-1.7677,-1.8119,-1.9031,-1.967,-2.0074,-2.0001,-2.0375,-2.0839,-2.1141,-2.0656,-2.0596,0.0,-2.1605,-2.1406,-2.1582,-2.1777,-2.1631,-2.0928,-1.9976,-1.9164,-1.8905,-1.8288,-1.79,-1.79,-1.7132,-1.6696,-1.6696,-1.5505,-1.5096,-1.5695,-1.4717,-1.4209,-1.4395,-1.4209,-1.3908,-1.3454,-1.2973,-1.2822,-1.2808,-1.2311,-1.2031,-1.185,-1.1423,-1.1243,-1.1236,-1.1116,-1.1136,-1.1175,-1.0831,-1.097,-1.1246,-1.0074,-0.9742,-0.9933,0.0,0.0,0.0,0.0,0.0,0.0,0.0,0.0,0.0,0.0,-1.9305,-1.9305,-1.9305,-1.9442,0.0,0.0,0.0,0.0,0.0,0.0,0.0,0.0,0.0,0.0,0.0,0.0,0.0,0.0,0.0,0.0,0.0,0.0,0.0,0.0,0.0,0.0,0.0,0.0,0.0,0.0,0.0,0.0,-4.1304,-3.8471,-3.5675,-3.3388,-3.4117,-3.2546,0.0,0.0,-2.8041,-2.7103,-2.6337,-2.5461,-2.4438,-2.3324,-2.1795,-2.0288,-1.9492,-1.891,0.0,-1.8861,-1.9016,-1.951,-2.1004,-2.1782,-2.225,-2.2507,-2.271,-2.294,-2.3213,-2.2331,-2.1784,-2.2595,-2.2224,-2.1878,-2.1771,-2.1709,-2.1426,-2.0654,-2.0078,-1.9863,-2.0185,-1.9608,-1.9275,-1.9275,-1.8449,-1.7952,-1.7952,-1.6682,-1.6309,-1.7073,-1.6076,-1.5582,-1.5828,-1.5582,-1.5193,-1.4636,-1.3995,-1.3613,-1.3307,-1.2621,-1.2184,-1.1971,-1.1677,-1.155,-1.155,-1.155,-1.1597,-1.1663,-1.1663,-1.1717,-1.1706,-1.098,-1.1001,-1.1423,0.0,0.0,0.0,0.0,0.0,0.0,0.0,0.0,0.0,0.0,0.0,0.0,0.0,0.0,0.0,0.0,0.0,0.0,0.0,0.0,0.0,0.0,0.0,0.0,0.0,0.0,0.0,0.0,0.0,0.0,0.0,0.0,0.0,0.0,0.0,0.0,0.0,0.0,0.0,0.0,0.0,0.0,-3.9073,-3.6205,-3.3073,-3.0167,-2.9681,0.0,0.0,0.0,-2.489,-2.4712,-2.4321,-2.4545,0.0,-2.3477,-2.1777,-2.0339,-2.0414,-2.0108,-1.9912,-2.055,-2.1041,-2.1681,-2.2811,-2.3502,-2.3965,-2.4082,-2.3676,-2.3487,-2.4056,-2.2891,-2.2029,-2.2599,-2.2221,-2.1722,-2.1271,-2.125,-2.1084,-2.0625,-1.9824,-1.9307,0.0,-1.9697,-1.9856,-1.9856,-2.0236,-2.0469,-2.0469,-1.9483,-1.8921,-1.8921,-1.7794,-1.7228,-1.7236,-1.7228,-1.7228,-1.7147,-1.6489,-1.5602,-1.4687,-1.3084,-1.2298,-1.2271,-1.1984,-1.1857,-1.1857,-1.1857,-1.2024,-1.2278,-1.2278,-1.2452,-1.2748,-1.2378,-1.1917,-1.1423,0.0,0.0,0.0,0.0,0.0,0.0,0.0,0.0,0.0,0.0,0.0,0.0,0.0,0.0,0.0,0.0,0.0,0.0,0.0,0.0,0.0,0.0,0.0,0.0,0.0,0.0,0.0,0.0,0.0,0.0,0.0,0.0,0.0,0.0,0.0,0.0,0.0,0.0,0.0,0.0,0.0,0.0,-3.5565,-3.2313,-2.9353,-2.6653,0.0,0.0,0.0,0.0,-2.218,-2.1693,-2.1852,-2.1715,0.0,-2.1326,-2.1553,-2.1791,-2.1672,-2.161,-2.1859,-2.3073,-2.3058,-2.328,-2.5192,-2.509,-2.4516,-2.4604,-2.3821,-2.312,-2.2948,-2.227,-2.1962,-2.2472,-2.2693,-2.283,-2.2713,-2.2397,-2.1824,-2.0843,-1.9882,0.0,0.0,0.0,0.0,-1.9873,-2.0312,-2.0566,-2.0566,-2.0102,-1.9905,-2.0098,-1.9281,-1.8725,-1.839,-1.839,-1.8069,-1.7326,-1.6583,-1.5659,-1.4532,-1.3653,-1.2879,-1.2305,-1.2412,-1.2526,-1.254,-1.2672,-1.2819,-1.2906,-1.2906,-1.2966,-1.3039,-1.2939,-1.2779,-1.2552,0.0,0.0,0.0,0.0,0.0,0.0,0.0,0.0,0.0,0.0,0.0,0.0,0.0,0.0,0.0,0.0,0.0,0.0,0.0,0.0,0.0,0.0,0.0,0.0,0.0,0.0,0.0,0.0,0.0,0.0,0.0,0.0,0.0,0.0,0.0,0.0,0.0,0.0,0.0,0.0,0.0,0.0,-3.1212,-2.839,-2.5909,0.0,0.0,0.0,0.0,0.0,-2.0765,-2.0717,-2.0691,-2.0619,-2.0561,-2.0738,-2.1728,-2.2778,-2.293,-2.3085,-2.3624,-2.5228,-2.4832,-2.4516,-2.6443,-2.5665,-2.4469,-2.4255,-2.3326,-2.2372,-2.1832,-2.1362,-2.1152,-2.1552,-2.1901,-2.2308,-2.2816,-2.2459,-2.1901,-2.1142,-2.0155,-1.9313,0.0,0.0,0.0,-1.9639,-2.0381,-2.0801,-2.0801,-2.0794,-2.0768,-2.083,-2.0406,-2.0018,-1.9608,-1.9599,-1.9122,-1.825,-1.7432,-1.6472,-1.5405,-1.4733,-1.4061,-1.3397,-1.3717,-1.3855,-1.3892,-1.4336,-1.4518,-1.4439,-1.4136,-1.3985,-1.3971,-1.3859,-1.3738,-1.3682,0.0,0.0,0.0,0.0,0.0,0.0,0.0,0.0,0.0,0.0,0.0,0.0,0.0,0.0,0.0,0.0,0.0,0.0,0.0,0.0,0.0,0.0,0.0,0.0,0.0,0.0,0.0,0.0,0.0,0.0,0.0,0.0,0.0,0.0,0.0,0.0,0.0,0.0,0.0,0.0,0.0,0.0,-2.6384,-2.463,0.0,0.0,0.0,0.0,0.0,0.0,0.0,0.0,-2.0781,-2.1216,-2.1954,-2.1661,-2.2329,-2.3317,-2.4151,-2.4522,-2.512,-2.6928,-2.6282,-2.5487,-2.6648,-2.5418,-2.3802,-2.3125,-2.2166,-2.1209,0.0,0.0,-1.985,-2.0037,-2.0181,-2.0729,-2.2026,-2.1778,-2.1493,0.0,0.0,0.0,0.0,0.0,0.0,-1.9355,0.0,-2.125,-2.126,-2.1699,-2.1738,-2.1279,-2.1289,-2.1074,-2.0605,-2.0576,-2.0361,-1.9941,-1.8993,-1.8115,-1.7243,-1.6328,-1.568,-1.5309,-1.5665,-1.5896,-1.5873,-1.6663,-1.6954,-1.6797,-1.5792,-1.54,-1.5363,-1.5061,-1.4947,-1.4799,0.0,0.0,0.0,0.0,0.0,0.0,0.0,0.0,0.0,0.0,0.0,0.0,0.0,0.0,0.0,0.0,0.0,0.0,0.0,0.0,0.0,0.0,0.0,0.0,0.0,0.0,0.0,0.0,0.0,0.0,0.0,0.0,0.0,0.0,0.0,0.0,0.0,0.0,0.0,0.0,0.0,0.0,-2.4572,0.0,0.0,0.0,0.0,0.0,0.0,0.0,0.0,0.0,0.0,-2.155,-2.2504,-2.2432,-2.3727,-2.5273,-2.5513,-2.6153,-2.6988,-2.8018,-2.7487,-2.6807,-2.7116,-2.5287,-2.3271,-2.2213,-2.0719,-1.933,0.0,0.0,0.0,-2.0983,-2.2491,0.0,-2.573,-2.5529,0.0,-2.366,0.0,-2.1652,-2.0407,-2.0439,0.0,0.0,-2.1045,-2.1377,-2.1699,-2.2422,-2.248,-2.1738,-2.2021,-2.1826,-2.1074,-2.0732,-2.0508,-2.0391,-1.9831,-1.9023,-1.8122,-1.7608,-1.6876,-1.6121,-1.6488,-1.6646,-1.6679,-1.7004,-1.7194,-1.7194,-1.6879,-1.6798,-1.6815,-1.7074,-1.7138,-1.7138,0.0,0.0,0.0,0.0,0.0,0.0,0.0,0.0,0.0,0.0,0.0,0.0,0.0,0.0,0.0,0.0,0.0,0.0,0.0,0.0,0.0,0.0,0.0,0.0,0.0,0.0,0.0,0.0,0.0,0.0,0.0,0.0,0.0,0.0,0.0,0.0,0.0,0.0,0.0,0.0,0.0,0.0,0.0,0.0,0.0,0.0,0.0,0.0,0.0,0.0,0.0,-2.1819,-2.2072,-2.3094,-2.4201,-2.416,0.0,-2.7371,-2.7169,-2.7764,-2.8523,-2.8966,-2.7783,-2.6515,-2.6515,-2.4479,-2.228,-2.1051,-1.9806,0.0,-1.7557,-1.8312,0.0,0.0,0.0,0.0,-2.5573,-2.6062,-2.5853,0.0,-2.4292,0.0,-2.1985,-2.1669,-2.1602,0.0,-2.1797,-2.1904,-2.2148,-2.2783,-2.2832,-2.2178,-2.2207,-2.1914,-2.124,-2.0986,-2.0859,-2.0859,-2.041,-1.9783,-1.9127,-1.8901,-1.8387,-1.7692,0.0,-1.8181,-1.8217,-1.8619,-1.8816,-1.8967,-1.8473,-1.8413,-1.8576,-1.8875,-1.8953,-1.9037,0.0,0.0,0.0,0.0,0.0,0.0,0.0,0.0,0.0,0.0,0.0,0.0,0.0,0.0,0.0,0.0,0.0,0.0,0.0,0.0,0.0,0.0,0.0,0.0,0.0,0.0,0.0,0.0,0.0,0.0,0.0,0.0,0.0,0.0,0.0,0.0,0.0,0.0,0.0,0.0,0.0,0.0,0.0,0.0,0.0,0.0,0.0,0.0,0.0,0.0,-2.2335,-2.2923,-2.3632,-2.4988,-2.6285,-2.613,-2.7689,-2.9346,-2.8884,-2.9343,-2.9899,-2.9652,-2.7691,-2.5712,-2.5466,-2.3356,-2.1186,-2.0067,0.0,-1.8604,-1.7597,-1.7951,-1.8603,-1.9242,0.0,-2.1769,-2.4017,-2.5247,-2.5946,-2.5983,-2.565,-2.5026,-2.4004,-2.3074,-2.2689,-2.2973,-2.3003,-2.2918,-2.2598,-2.2939,-2.2969,-2.2607,-2.2187,-2.1787,-2.1406,-2.1348,-2.1289,-2.123,-2.084,-2.043,-2.0,-2.0,-1.9805,-1.9482,-1.9902,-2.0088,-2.0127,-2.0557,-2.0977,-2.1238,-2.0298,-2.0081,-2.0466,-2.0521,-2.0539,-2.0633,0.0,0.0,0.0,0.0,0.0,0.0,0.0,0.0,0.0,0.0,0.0,0.0,0.0,0.0,0.0,0.0,0.0,0.0,0.0,0.0,0.0,0.0,0.0,0.0,0.0,0.0,0.0,0.0,0.0,0.0,0.0,0.0,0.0,0.0,0.0,0.0,0.0,0.0,0.0,0.0,0.0,0.0,0.0,0.0,0.0,0.0,0.0,0.0,0.0,0.0,-2.3077,-2.4778,-2.3796,-2.5348,-2.7368,-2.6759,-2.8612,-3.0727,-3.0133,-3.0985,-3.1621,-2.998,-2.8414,-2.6795,-2.5135,-2.2834,0.0,0.0,-1.9355,-1.8701,-1.808,-1.8822,-1.9863,-2.091,-2.2005,-2.3489,-2.5724,-2.6979,-2.7519,0.0,-2.7345,-2.7174,-2.6051,-2.5815,0.0,0.0,-2.5771,-2.4935,-2.3114,-2.3096,-2.3105,-2.3027,-2.2627,-2.2373,-2.2295,-2.1943,-2.1592,-2.123,-2.1152,-2.0889,-2.0449,-2.0449,-2.041,-2.0371,-2.081,0.0,-2.1045,-2.1475,-2.1699,-2.1777,-2.1593,-2.1549,-2.1665,-2.2003,-2.2129,-2.2129,0.0,0.0,0.0,0.0,0.0,0.0,0.0,0.0,0.0,0.0,0.0,0.0,0.0,0.0,0.0,0.0,0.0,0.0,0.0,0.0,0.0,0.0,0.0,0.0,0.0,0.0,0.0,0.0,0.0,0.0,0.0,0.0,0.0,0.0,0.0,0.0,0.0,0.0,0.0,0.0,0.0,0.0,0.0,0.0,0.0,0.0,0.0,0.0,0.0,0.0,-2.2808,-2.4382,-2.3826,-2.5415,-2.7452,-2.73,-2.9397,-3.1712,-3.1461,-3.1962,-3.2159,-3.0535,-2.8336,-2.6108,-2.4477,0.0,0.0,0.0,-1.9553,-1.9169,-1.8612,-1.9204,0.0,-2.0532,-2.1262,-2.2572,-2.4885,-2.5875,0.0,-2.7618,-2.7693,-2.7549,0.0,-2.6801,-2.6483,-2.6483,-2.5975,-2.5136,-2.4049,-2.3377,-2.3037,-2.2822,-2.2832,-2.2734,-2.251,-2.2314,-2.2109,-2.1894,-2.168,-2.1465,-2.125,-2.125,-2.125,-2.1269,-2.1475,-2.1572,-2.1592,-2.1797,-2.2012,-2.2207,-2.2207,-2.2344,-2.2568,-2.2764,-2.2832,-2.2832,0.0,0.0,0.0,0.0,0.0,0.0,0.0,0.0,-2.0501,-2.318,-2.2813,-2.1363,-1.8886,-1.9344,0.0,0.0,0.0,0.0,0.0,0.0,0.0,0.0,0.0,0.0,0.0,0.0,0.0,0.0,0.0,0.0,0.0,0.0,0.0,0.0,0.0,0.0,0.0,0.0,0.0,0.0,0.0,0.0,0.0,0.0,0.0,0.0,0.0,0.0,0.0,0.0,-2.2045,-2.2916,-2.3249,-2.5097,-2.7201,-2.7368,-2.9604,-3.209,-3.2137,-3.2449,-3.2402,-3.0761,-2.806,-2.5423,-2.39,-2.1969,0.0,0.0,-1.9747,-1.9566,-1.9169,0.0,-1.9978,0.0,-2.0518,-2.1562,-2.3742,-2.4457,-2.5598,0.0,-2.7726,0.0,-2.8378,-2.7706,0.0,-2.7221,-2.6119,-2.5284,-2.4872,-2.3714,-2.3075,-2.2978,-2.3046,-2.2978,-2.2646,-2.2646,-2.2607,-2.251,-2.2178,-2.1973,-2.1885,-2.1885,-2.1885,-2.1894,-2.1982,-2.2021,-2.2031,-2.2119,-2.2344,-2.2646,-2.2646,-2.2852,-2.3135,-2.3135,-2.3135,-2.3135,0.0,0.0,0.0,0.0,0.0,0.0,0.0,0.0,-2.1547,-2.4778,-2.4465,-2.3033,-2.0539,-2.1051,0.0,0.0,0.0,0.0,0.0,0.0,0.0,0.0,0.0,0.0,0.0,0.0,0.0,0.0,0.0,0.0,0.0,0.0,0.0,0.0,0.0,0.0,0.0,0.0,0.0,0.0,0.0,0.0,0.0,0.0,0.0,0.0,0.0,0.0,0.0,0.0,0.0,-2.0876,-2.1381,-2.4093,-2.6994,-2.633,0.0,0.0,-3.1297,-3.2302,-3.2737,-3.0235,-2.8035,-2.5943,-2.3801,0.0,0.0,-2.0174,-1.9929,-1.969,-1.9639,0.0,0.0,0.0,0.0,-2.2128,-2.3851,-2.4491,-2.5448,-2.7155,0.0,0.0,-2.9574,-2.9546,-2.9468,-2.9468,-2.8438,-2.693,-2.4872,-2.3714,-2.3531,-2.4565,-2.3607,-2.3125,-2.3086,-2.3076,-2.2891,-2.251,-2.2471,-2.2256,-2.1885,-2.1885,-2.1885,-2.1904,-2.2295,-2.2451,0.0,-2.2861,-2.3047,-2.3076,-2.3076,-2.3105,-2.3135,-2.3135,-2.3135,-2.3135,0.0,0.0,0.0,0.0,0.0,0.0,0.0,0.0,-2.1308,-2.5566,-2.5419,-2.4538,-2.3547,-2.2887,0.0,0.0,0.0,0.0,0.0,0.0,0.0,0.0,0.0,0.0,0.0,0.0,0.0,0.0,0.0,0.0,0.0,0.0,0.0,0.0,0.0,0.0,0.0,0.0,0.0,0.0,0.0,0.0,0.0,0.0,0.0,0.0,0.0,0.0,0.0,0.0,0.0,0.0,-2.0071,-2.2016,0.0,0.0,-2.7145,-2.9956,-3.0412,-3.1633,-3.2243,-2.9927,-2.7834,-2.579,-2.3617,0.0,-2.0431,-2.0314,-2.0193,-2.0102,-2.0265,-2.019,0.0,0.0,0.0,0.0,-2.3393,-2.3204,-2.3875,-2.6539,-2.7234,0.0,0.0,0.0,-2.9534,-2.8858,-2.8347,-2.7683,-2.6849,-2.5115,-2.4049,-2.38,-2.3299,-2.3135,-2.3135,-2.3135,-2.3057,-2.2891,-2.2891,-2.2803,-2.2637,-2.2637,-2.2637,-2.2646,-2.2812,-2.2891,0.0,-2.3066,-2.3135,-2.3135,-2.3135,-2.3135,-2.3135,-2.3135,-2.3135,-2.3135,0.0,0.0,0.0,0.0,0.0,0.0,-1.9656,-1.9877,-2.1235,-2.5676,-2.575,-2.5311,-2.5072,-2.3382,-2.0792,-1.7167,0.0,0.0,0.0,0.0,0.0,0.0,0.0,0.0,0.0,0.0,0.0,0.0,0.0,0.0,0.0,0.0,0.0,-2.0392,0.0,0.0,0.0,0.0,0.0,0.0,0.0,0.0,0.0,0.0,0.0,0.0,0.0,0.0,0.0,0.0,0.0,0.0,0.0,0.0,0.0,0.0,-2.5558,-2.8269,-2.8926,-3.0068,-3.0584,-2.8718,-2.7042,-2.5341,0.0,0.0,-2.0894,-2.0583,-2.0382,-2.0331,-2.0377,-2.0333,-2.0608,0.0,0.0,-2.1369,-2.3153,-2.2872,-2.332,0.0,0.0,-2.7119,0.0,-2.9352,-2.9456,-2.8688,-2.8597,-2.8438,-2.8096,-2.6603,-2.5452,-2.4628,-2.4307,-2.4145,-2.4145,-2.4145,-2.4145,-2.4145,-2.4145,-2.4145,-2.4145,-2.4145,-2.4145,-2.4059,-2.3714,-2.3637,0.0,-2.3222,-2.3135,-2.3135,-2.3135,-2.3135,-2.3135,-2.3135,-2.3135,-2.3135,0.0,0.0,0.0,0.0,0.0,0.0,0.0,0.0,-2.1675,-2.498,-2.5421,-2.5109,-2.43,-2.2024,-2.027,-1.9625,0.0,0.0,0.0,0.0,0.0,0.0,0.0,0.0,0.0,0.0,0.0,0.0,0.0,0.0,0.0,0.0,0.0,0.0,0.0,0.0,0.0,0.0,0.0,0.0,0.0,0.0,0.0,0.0,0.0,0.0,0.0,0.0,0.0,0.0,0.0,0.0,0.0,0.0,0.0,0.0,-2.3937,-2.6203,-2.6622,-2.73,-2.7549,-2.6336,-2.552,-2.4595,0.0,0.0,-2.0991,-2.0991,-2.0616,-2.0193,-1.9797,-2.0782,-2.168,-2.1695,0.0,0.0,-2.3402,-2.3993,-2.4504,0.0,0.0,-2.7089,-2.8019,-2.9126,-2.9792,-2.9792,-2.9792,0.0,-2.8176,-2.8096,-2.8084,-2.8016,-2.7046,-2.6472,-2.6472,-2.6472,-2.6472,-2.6472,-2.6472,-2.6472,-2.6472,-2.6472,-2.6472,-2.6389,-2.5294,-2.4787,0.0,-2.3551,-2.3135,-2.3135,-2.3135,-2.3135,-2.3135,-2.3135,-2.3135,-2.3135,0.0,0.0,0.0,0.0,0.0,0.0,0.0,0.0,-1.839,-2.1639,-2.1565,-2.18,-2.3358,-2.1337,-2.0294,-2.1301,0.0,0.0,0.0,0.0,0.0,0.0,0.0,0.0,0.0,0.0,0.0,0.0,0.0,0.0,0.0,0.0,0.0,0.0,0.0,0.0,0.0,0.0,0.0,0.0,0.0,0.0,0.0,0.0,0.0,0.0,0.0,0.0,0.0,0.0,0.0,0.0,0.0,0.0,0.0,-2.0741,-2.1993,-2.3902,-2.455,-2.5122,-2.5441,-2.5076,-2.4439,-2.3634,-2.2631,0.0,0.0,-2.1477,-2.107,-2.0774,-2.0793,-2.0524,-2.0767,-2.2143,-2.2572,0.0,0.0,0.0,0.0,-2.618,-2.7403,-2.8515,0.0,0.0,-2.9792,-2.9792,-2.9792,-2.9624,-2.9287,-2.9275,-2.853,-2.7046,-2.6637,-2.6483,-2.6483,-2.6483,-2.6483,-2.6483,-2.6483,-2.6483,-2.6483,-2.6483,-2.6483,-2.6472,-2.6141,-2.5975,-2.5975,-2.5557,-2.5389,-2.5316,-2.4542,-2.4296,-2.4125,-2.3387,-2.3135,-2.3135,0.0,0.0,0.0,0.0,0.0,0.0,0.0,0.0,-1.699,-1.9365,-1.9232,-1.9804,-2.2092,-2.0177,-1.9563,-2.1639,0.0,0.0,0.0,0.0,0.0,0.0,0.0,0.0,0.0,0.0,0.0,0.0,0.0,0.0,0.0,0.0,0.0,0.0,0.0,0.0,0.0,0.0,0.0,0.0,0.0,0.0,-2.0369,0.0,0.0,0.0,0.0,0.0,0.0,0.0,0.0,0.0,0.0,0.0,0.0,0.0,-2.038,-2.1534,0.0,-2.3028,-2.3253,-2.3253,-2.3105,-2.2784,0.0,0.0,0.0,0.0,-2.1399,-2.1215,-2.1182,-2.0901,-2.1076,-2.2349,-2.3047,0.0,0.0,0.0,0.0,-2.7717,0.0,0.0,0.0,-2.9758,-2.9792,-2.9792,-2.9792,-2.9792,-2.9792,-2.9792,-2.9209,-2.7799,-2.7718,-2.7718,-2.7718,-2.7718,-2.7718,-2.7718,-2.7718,-2.7718,-2.7718,-2.7718,-2.7718,-2.7718,-2.729,-2.7128,0.0,-2.6637,-2.6483,-2.64,-2.5724,-2.5462,-2.5389,-2.4638,-2.4392,-2.4392,0.0,0.0,0.0,0.0,0.0,0.0,0.0,0.0,0.0,0.0,0.0,-1.8727,-2.0463,-1.8617,0.0,0.0,0.0,0.0,0.0,0.0,0.0,0.0,0.0,0.0,0.0,0.0,0.0,-2.16,-2.2535,-2.3056,-2.3204,0.0,0.0,0.0,0.0,0.0,0.0,-1.8867,-1.9072,-2.0346,-1.8658,-1.8902,0.0,0.0,0.0,0.0,0.0,0.0,0.0,0.0,0.0,0.0,0.0,0.0,0.0,0.0,0.0,0.0,0.0,-2.1061,-2.1094,-2.1187,-2.1718,-2.2057,-2.1414,0.0,0.0,0.0,0.0,-2.1524,-2.1247,-2.1796,-2.2322,-2.2477,-2.3694,-2.4462,0.0,-2.6108,0.0,0.0,-2.9621,0.0,-2.9588,-2.9776,-2.9856,-2.9792,-2.9792,-2.9792,-2.9792,-2.9792,-2.9792,-2.9792,-2.9792,-2.9792,-2.9792,-2.9792,-2.9792,-2.9792,-2.9792,-2.9792,-2.9792,-2.9792,-2.9792,0.0,-2.8676,-2.8255,0.0,-2.7128,-2.673,-2.673,-2.6637,-2.6637,-2.6637,-2.6565,-2.6483,-2.6483,0.0,0.0,0.0,0.0,0.0,0.0,0.0,0.0,0.0,0.0,0.0,0.0,0.0,0.0,0.0,0.0,0.0,0.0,0.0,0.0,0.0,0.0,0.0,0.0,0.0,0.0,0.0,-2.2579,-2.346,-2.4598,-2.5948,-2.5515,0.0,0.0,0.0,-2.1426,-2.0566,-2.0156,-2.0185,-2.0454,-1.9983,-1.9995,0.0,0.0,0.0,0.0,-2.0124,-1.9963,0.0,0.0,0.0,0.0,0.0,0.0,0.0,0.0,-1.9345,-1.9615,-1.9715,0.0,-1.9979,-2.0968,-2.1339,-2.1549,0.0,0.0,0.0,0.0,0.0,-2.1927,-2.3014,-2.2634,-2.2694,-2.4334,-2.4942,-2.5323,-2.5676,0.0,0.0,-3.0643,-3.1411,-3.1365,-3.0151,-3.0551,-3.0558,-2.9856,-2.9792,-2.9792,-2.9792,-2.9792,-2.9792,-2.9792,-2.9792,-2.9792,-2.9792,-2.9792,-2.9792,-2.9792,-2.9792,-2.9792,-2.9792,-2.9792,-2.9792,-2.9792,-2.9534,-2.9365,-2.9365,-2.9118,-2.904,-2.8961,-2.8028,-2.7683,-2.7602,-2.6801,-2.6483,-2.6483,0.0,0.0,0.0,0.0,0.0,0.0,0.0,0.0,0.0,0.0,0.0,0.0,0.0,0.0,0.0,0.0,0.0,0.0,0.0,0.0,0.0,0.0,0.0,0.0,0.0,0.0,0.0,0.0,0.0,-2.4958,0.0,0.0,0.0,0.0,0.0,-2.1027,-2.0538,-2.0126,-2.0128,-2.0369,-1.9969,0.0,0.0,0.0,0.0,0.0,-2.0188,-2.0031,0.0,-2.0596,-2.0718,-2.0628,0.0,0.0,0.0,0.0,-1.934,-1.9579,-1.9688,-1.9425,-1.9378,-2.0399,-2.0923,-2.1295,-2.1701,0.0,0.0,0.0,0.0,0.0,-2.346,-2.2947,-2.2959,-2.4884,-2.5284,0.0,0.0,0.0,-3.0777,-3.2021,-3.2606,-3.2611,0.0,-3.1915,-3.1462,-3.0482,-3.0419,-3.0279,-2.9792,-2.9792,-2.9792,-2.9792,-2.9792,-2.9792,-2.9792,-2.9792,-2.9792,-2.9792,-2.9792,-2.9792,-2.9792,-2.9792,-2.9792,-2.9792,-2.9792,-2.9792,-2.9792,-2.9792,-2.9792,-2.9714,-2.9106,-2.8858,-2.8779,-2.8211,-2.8039,-2.8039,0.0,0.0,0.0,0.0,0.0,0.0,0.0,0.0,0.0,0.0,0.0,0.0,0.0,0.0,0.0,0.0,0.0,0.0,0.0,0.0,0.0,0.0,0.0,0.0,0.0,0.0,0.0,0.0,0.0,0.0,0.0,0.0,-2.5742,0.0,-2.1484,-2.0698,-2.0446,-1.9711,-1.975,-2.0246,-1.9558,0.0,0.0,0.0,0.0,0.0,0.0,0.0,0.0,-2.1387,-2.1246,-2.0678,-2.1246,0.0,0.0,0.0,0.0,0.0,-2.0102,-1.9728,-1.9321,-2.0068,-2.0797,-2.1363,-2.1363,0.0,0.0,0.0,0.0,0.0,0.0,-2.3393,0.0,0.0,0.0,0.0,-2.9552,-3.0507,-3.1584,-3.329,-3.351,0.0,-3.3854,-3.3254,-3.2393,-3.1462,-3.1389,-3.1044,-3.0292,-3.0075,-2.9998,-2.9998,-2.9856,-2.9792,-2.9792,-2.9792,-2.9792,-2.9792,-2.9792,-2.9792,-2.9792,-2.9792,-2.9792,-2.9792,0.0,0.0,-2.9792,-2.9792,-2.9792,-2.9792,-2.9792,-2.9792,-2.9792,-2.9792,-2.9792,-2.9792,0.0,0.0,0.0,0.0,0.0,0.0,0.0,0.0,0.0,0.0,0.0,0.0,0.0,0.0,0.0,0.0,0.0,0.0,0.0,0.0,0.0,0.0,0.0,0.0,0.0,0.0,0.0,0.0,0.0,0.0,-2.7883,-2.8026,-2.6348,-2.3144,-2.2148,-2.1246,-2.0485,-2.0369,-2.0312,-2.0292,-2.0169,0.0,0.0,0.0,0.0,0.0,0.0,0.0,0.0,-1.9969,-1.9792,-1.9556,-1.9654,0.0,0.0,0.0,0.0,0.0,-2.0421,-2.0428,-2.036,-2.1167,-2.1746,-2.2141,0.0,0.0,0.0,0.0,0.0,0.0,0.0,-2.5289,-2.6367,0.0,0.0,-2.9929,0.0,0.0,-3.314,-3.3455,0.0,-3.461,-3.3388,-3.3589,-3.338,-3.2464,-3.2393,-3.2321,-3.2177,-3.1402,-3.097,-3.097,-3.0216,-2.9792,-2.9792,-2.9792,-2.9792,-2.9792,-2.9792,-2.9792,-2.9792,-2.9792,-2.9792,-2.9792,0.0,-2.9792,-2.9792,-2.9792,-2.9792,-2.9792,-2.9792,-2.9792,-2.9792,-2.9792,-2.9792,-2.9792,0.0,0.0,0.0,0.0,0.0,0.0,0.0,0.0,0.0,0.0,0.0,0.0,0.0,0.0,0.0,0.0,0.0,0.0,0.0,0.0,0.0,0.0,0.0,0.0,0.0,0.0,0.0,0.0,0.0,-2.8082,-2.8965,-2.707,-2.5117,-2.3144,-2.1797,-2.0915,-2.0449,-2.0453,-2.0389,-2.0312,0.0,0.0,0.0,0.0,0.0,0.0,0.0,0.0,0.0,0.0,-2.0257,-2.0104,-1.9982,0.0,0.0,0.0,0.0,0.0,-2.0723,-2.0845,-2.0859,-2.1948,-2.2261,0.0,0.0,0.0,0.0,0.0,0.0,0.0,0.0,0.0,-2.7261,-2.8926,0.0,-3.2292,-3.266,-3.317,-3.3619,0.0,0.0,-3.4837,-3.4412,-3.4677,-3.4394,-3.3449,-3.338,-3.3171,-3.2593,-3.2177,-3.196,-3.196,-3.1549,-3.1341,-3.1341,-3.0846,-3.0279,-2.9792,-2.9792,-2.9792,-2.9792,-2.9792,-2.9792,-2.9792,0.0,-2.9792,-2.9792,-2.9792,-2.9792,-2.9792,-2.9792,-2.9792,-2.9792,-2.9792,-2.9792,-2.9792,0.0,0.0,0.0,0.0,0.0,0.0,0.0,0.0,0.0,0.0,0.0,0.0,0.0,0.0,0.0,0.0,0.0,0.0,0.0,0.0,0.0,0.0,0.0,0.0,0.0,0.0,-2.4797,-2.7194,-2.8094,-2.879,-2.9238,-2.6152,-2.418,-2.3125,-2.1573,-2.0706,-2.0402,-2.0372,-2.035,-2.0312,0.0,0.0,0.0,0.0,0.0,0.0,0.0,0.0,0.0,0.0,0.0,0.0,0.0,0.0,0.0,-1.9473,-1.9305,-1.9591,-2.0933,-2.1113,-2.1198,-2.2414,0.0,0.0,0.0,0.0,0.0,0.0,0.0,0.0,0.0,-2.6775,0.0,-3.0648,-3.2647,-3.397,-3.4141,-3.4045,-3.4158,-3.4651,-3.4711,-3.4921,-3.5459,-3.5504,-3.5213,-3.4394,-3.4327,-3.4041,-3.3325,-3.3031,-3.2961,-3.2961,-3.2749,-3.2593,-3.2593,-3.1888,-3.1044,-3.0139,-2.9934,-2.9792,-2.9792,-2.9792,-2.9792,-2.9792,-2.9792,-2.9792,-2.9792,-2.9792,-2.9792,-2.9792,-2.9792,-2.9792,-2.9792,-2.9792,-2.9792,-2.9792,0.0,0.0,0.0,0.0,0.0,0.0,0.0,0.0,0.0,0.0,0.0,0.0,0.0,0.0,0.0,0.0,0.0,0.0,0.0,0.0,0.0,0.0,0.0,0.0,0.0,-2.5344,-2.6298,-2.8107,-2.9035,-2.912,-2.8359,-2.6484,-2.4746,-2.3164,-2.2163,-2.1229,-2.0402,-2.0334,-2.0312,-2.0312,-2.0312,0.0,0.0,0.0,0.0,0.0,0.0,0.0,0.0,0.0,0.0,0.0,0.0,0.0,-1.9363,-1.9323,-1.9305,-1.9591,-2.0933,-2.129,-2.1509,-2.2464,0.0,0.0,0.0,0.0,0.0,0.0,0.0,0.0,0.0,-2.846,-3.0678,-3.2899,-3.3932,-3.4651,-3.536,0.0,-3.537,-3.5429,-3.5429,-3.5444,-3.5504,-3.5504,-3.5439,-3.5424,-3.5359,-3.5359,-3.5279,-3.4394,-3.3876,-3.3876,-3.3031,-3.2593,-3.2593,-3.2522,-3.2033,-3.1106,-3.0203,-2.9792,-2.9792,-2.9792,-2.9792,-2.9792,-2.9792,-2.9792,-2.9792,-2.9792,-2.9792,-2.9792,-2.9792,-2.9792,-2.9792,-2.9792,-2.9792,-2.9792,0.0,0.0,0.0,0.0,0.0,0.0,0.0,0.0,0.0,0.0,0.0,0.0,0.0,0.0,0.0,0.0,0.0,0.0,0.0,0.0,0.0,0.0,0.0,-2.279,-2.4775,-2.5893,-2.7599,-2.9874,-3.023,-2.9687,-2.8242,-2.5957,0.0,0.0,-2.1622,-2.1051,-2.112,-2.0535,-2.06,-2.1004,-2.0504,-2.0312,0.0,0.0,0.0,0.0,0.0,0.0,0.0,0.0,-1.9509,-1.9305,0.0,0.0,-1.9305,-1.9305,-1.9305,-1.9591,-2.0933,-2.1153,-2.1259,-2.2414,0.0,0.0,0.0,0.0,0.0,0.0,0.0,0.0,0.0,0.0,-3.2077,-3.3818,-3.4732,-3.5617,-3.6805,-3.6106,-3.5668,-3.6117,-3.5782,-3.5504,-3.5504,-3.5504,-3.5504,-3.5504,-3.5504,-3.5504,-3.5504,-3.5133,-3.4714,-3.4286,-3.3995,-3.3594,-3.3137,-3.2982,-3.2706,-3.2361,-3.1812,-3.1267,-3.0696,-3.0696,-3.0343,-2.9792,-2.9792,-2.9792,-2.9792,-2.9792,-2.9792,-2.9792,-2.9792,-2.9792,-2.9792,-2.9792,-2.9792,-2.9792,0.0,0.0,0.0,0.0,0.0,0.0,0.0,0.0,0.0,0.0,0.0,0.0,0.0,0.0,0.0,0.0,0.0,0.0,0.0,0.0,0.0,0.0,0.0,-2.2555,-2.3965,-2.5703,-2.7598,-2.9668,-2.9668,-2.9062,-2.7832,0.0,0.0,0.0,-2.1916,-2.1534,-2.1949,-2.1054,-2.1004,-2.1427,-2.0619,-2.0312,0.0,0.0,0.0,0.0,0.0,0.0,0.0,0.0,-1.9536,0.0,0.0,0.0,0.0,0.0,-1.9305,-1.9625,-2.1062,-2.1213,-2.1259,0.0,0.0,0.0,0.0,0.0,0.0,0.0,0.0,0.0,0.0,0.0,0.0,0.0,-3.512,-3.6007,-3.7305,-3.6142,-3.5492,-3.6219,-3.543,-3.4925,-3.5148,-3.5168,-3.51,-3.4891,-3.5265,-3.5325,-3.4891,-3.507,-3.4876,-3.4188,-3.4158,-3.4053,-3.3799,-3.3647,-3.3645,-3.3849,-3.3636,-3.289,-3.1683,-3.1683,-3.1254,-3.0709,-3.0709,-3.0709,-3.0633,-3.0343,-3.0075,-2.9792,-2.9792,-2.9792,-2.9792,-2.9792,-2.9792,-2.9817,0.0,0.0,0.0,0.0,0.0,0.0,0.0,0.0,0.0,0.0,0.0,0.0,0.0,0.0,0.0,0.0,0.0,0.0,0.0,0.0,0.0,0.0,0.0,-2.2266,-2.3066,-2.4785,-2.6094,-2.6992,-2.6992,-2.6973,-2.6933,-2.5124,0.0,0.0,-2.3323,-2.2901,-2.2843,-2.19,-2.1504,-2.1427,-2.0619,-2.0312,-2.0312,0.0,0.0,0.0,0.0,0.0,0.0,0.0,-1.972,-1.9555,0.0,0.0,0.0,0.0,-1.9323,-1.969,-2.1362,-2.1553,-2.159,0.0,0.0,0.0,0.0,0.0,0.0,0.0,0.0,0.0,0.0,0.0,0.0,-3.4252,-3.5091,-3.5843,-3.66,-3.5443,-3.48,-3.5506,-3.4398,-3.3759,-3.4454,-3.4516,-3.4203,-3.3544,-3.4741,-3.4906,-3.3559,-3.4113,-3.4158,-3.3499,-3.3484,-3.3799,-3.4442,-3.4457,-3.4801,-3.5489,-3.5489,-3.4491,-3.2593,-3.2593,-3.2593,-3.2593,-3.2593,-3.2593,-3.2522,-3.1609,-3.0696,-2.9869,-2.9869,-2.9869,-2.9869,-2.9869,-2.9869,-2.9867,0.0,0.0,0.0,0.0,0.0,0.0,0.0,0.0,0.0,0.0,0.0,0.0,0.0,0.0,0.0,0.0,0.0,0.0,0.0,0.0,0.0,0.0,0.0,0.0,0.0,0.0,-2.4023,-2.6094,-2.6094,-2.5759,0.0,0.0,0.0,-2.4254,0.0,0.0,0.0,-2.1908,-2.1504,-2.1427,-2.0619,-2.0312,-2.0312,0.0,0.0,0.0,0.0,0.0,0.0,0.0,0.0,0.0,0.0,0.0,0.0,-1.9473,-1.9693,-2.0391,-2.1492,-2.1367,0.0,0.0,0.0,0.0,0.0,0.0,0.0,0.0,0.0,0.0,-3.3694,0.0,0.0,-3.4336,-3.4659,-3.5283,-3.6611,-3.5938,-3.5529,-3.6283,-3.5068,-3.4294,-3.4512,-3.4106,-3.3709,-3.3499,-3.3858,-3.3918,-3.3514,-3.3679,-3.3484,-3.2826,-3.2811,-3.2677,-3.2407,-3.332,-3.3888,-3.4098,-3.5055,-3.4839,-3.3602,-3.3602,-3.3241,-3.2593,-3.2593,-3.2593,-3.2593,-3.2321,-3.2033,-3.1756,-3.1756,-3.1756,-3.1756,-3.1756,-3.1756,-3.1709,0.0,0.0,0.0,0.0,0.0,0.0,0.0,0.0,0.0,0.0,-2.0119,-2.0342,0.0,0.0,0.0,0.0,0.0,0.0,0.0,0.0,0.0,0.0,0.0,0.0,0.0,-2.16,-2.2611,0.0,0.0,0.0,0.0,0.0,0.0,-2.4253,0.0,-2.37,0.0,-2.2397,-2.1812,-2.1427,-2.0619,-2.0312,-2.0312,0.0,0.0,0.0,0.0,0.0,0.0,0.0,0.0,0.0,0.0,0.0,0.0,-1.9436,-1.9877,-2.0651,-2.1388,-2.1446,0.0,0.0,0.0,0.0,0.0,0.0,0.0,0.0,0.0,-3.3626,-3.4353,-3.3897,0.0,-3.3981,-3.4287,-3.4731,-3.5357,-3.4806,-3.4608,-3.5311,-3.441,-3.3693,-3.3662,-3.3604,-3.3152,-3.2364,-3.3066,-3.314,-3.2347,-3.2811,-3.2811,-3.2138,-3.2123,-3.2063,-3.1928,-3.2706,-3.3245,-3.3499,-3.4577,-3.4797,-3.4215,-3.4493,-3.4259,-3.3754,-3.3754,-3.3547,-3.3171,-3.3171,-3.2961,-3.2593,-3.2593,-3.2593,-3.2593,-3.2593,-3.2745,-3.2922,0.0,0.0,-1.5599,-1.6465,0.0,0.0,0.0,0.0,0.0,0.0,-1.9904,-2.0417,0.0,0.0,0.0,0.0,0.0,0.0,0.0,0.0,0.0,0.0,0.0,0.0,0.0,0.0,0.0,0.0,0.0,0.0,0.0,0.0,-2.4186,-2.4225,0.0,-2.4795,0.0,-2.3052,-2.2177,-2.1331,-2.06,-2.0312,-2.0312,-2.0312,0.0,0.0,0.0,0.0,0.0,0.0,0.0,0.0,-1.935,0.0,-1.9381,-1.9308,-1.9877,-2.0618,-2.115,0.0,0.0,0.0,0.0,0.0,-2.955,0.0,-3.3795,-3.5131,0.0,-3.3728,-3.4455,-3.3998,-3.3508,-3.3508,-3.4015,-3.4167,-3.3491,-3.29,-3.2707,-3.3322,-3.2859,-3.2466,-3.2397,-3.2958,-3.2594,-3.0825,-3.2399,-3.2615,-3.0895,-3.1865,-3.2255,-3.1712,-3.164,-3.1867,-3.2466,-3.2526,-3.2871,-3.341,-3.4068,-3.4412,-3.4502,-3.519,-3.5504,-3.5504,-3.5504,-3.4986,-3.4163,-3.4163,-3.3602,-3.289,-3.289,-3.289,-3.289,-3.289,-3.3239,-3.3882,0.0,0.0,-1.6484,-1.7292,0.0,0.0,0.0,0.0,0.0,0.0,0.0,0.0,0.0,0.0,0.0,0.0,0.0,0.0,0.0,0.0,0.0,0.0,0.0,0.0,0.0,0.0,0.0,0.0,0.0,0.0,0.0,0.0,0.0,-2.4207,0.0,-2.3914,0.0,-2.2167,-2.1312,-2.0542,-2.0369,-2.0312,-2.0312,-2.0312,-2.0312,0.0,0.0,0.0,0.0,0.0,0.0,0.0,-1.9305,-1.973,-2.0134,-1.9491,-1.9877,-2.0618,0.0,-2.1359,0.0,0.0,0.0,0.0,-3.0548,-3.2239,-3.3491,-3.3812,-3.4083,-3.4489,-3.525,-3.4759,-3.4252,-3.4252,-3.3914,-3.3592,-3.3423,-3.3279,-3.322,-3.3364,-3.2796,-3.2403,-3.2393,-3.2064,-3.1924,-3.2035,-3.2487,-3.2762,-3.2945,-3.2687,-3.2726,-3.313,-3.2625,-3.2444,-3.2598,-3.3034,-3.3099,-3.2736,-3.3395,-3.3978,-3.4502,-3.519,-3.5504,-3.5504,-3.5504,-3.5359,-3.5213,-3.5213,-3.5067,-3.4854,-3.4854,-3.4854,-3.4854,-3.4854,-3.4942,-3.5066,0.0,0.0,0.0,0.0,0.0,0.0,0.0,0.0,0.0,0.0,0.0,0.0,0.0,0.0,0.0,0.0,0.0,0.0,-2.0605,-2.0605,-2.0599,-2.0558,0.0,0.0,0.0,0.0,0.0,0.0,0.0,0.0,0.0,0.0,0.0,-2.2929,0.0,-2.3041,0.0,-2.1716,-2.1043,-2.0312,-2.0312,-2.0312,-2.0312,-2.0312,-2.0241,-2.0152,-2.0031,0.0,0.0,0.0,0.0,0.0,0.0,0.0,-1.984,-1.9418,-1.9877,-2.0618,0.0,0.0,0.0,0.0,0.0,0.0,-2.9786,-3.0734,-3.1478,-3.2205,-3.322,-3.41,-3.4489,-3.4235,-3.3863,-3.3491,-3.3119,-3.2747,-3.2391,-3.2357,-3.2357,-3.2357,-3.2337,-3.2217,-3.1841,-3.2171,-3.2125,-3.1477,-3.2096,-3.2524,-3.2574,-3.257,-3.285,-3.3582,-3.3235,-3.3093,-3.3093,-3.3076,-3.2875,-3.254,-3.287,-3.3529,-3.4502,-3.519,-3.5504,-3.5504,-3.5504,-3.5504,-3.5504,-3.5504,-3.5504,-3.5504,-3.5504,-3.5504,-3.5504,-3.5504,-3.5699,-3.5947,0.0,0.0,0.0,0.0,0.0,0.0,0.0,0.0,0.0,0.0,0.0,0.0,0.0,0.0,0.0,0.0,0.0,0.0,-2.0597,-2.0596,-2.0555,-2.0494,0.0,0.0,0.0,0.0,0.0,0.0,0.0,0.0,0.0,0.0,0.0,-2.1562,0.0,0.0,0.0,-2.135,-2.0908,-2.0312,-2.0312,-2.0312,-2.0304,-2.0249,-2.0133,-1.9984,-1.9953,-1.9797,-1.9582,-1.9555,0.0,0.0,0.0,0.0,-1.9305,-1.9305,-1.9767,-2.0398,0.0,0.0,0.0,0.0,0.0,0.0,-2.8298,-2.8825,-2.9364,-3.0717,-3.2087,-3.3102,-3.3355,-3.3305,-3.3,-3.2374,-3.2171,-3.1884,-3.1275,-3.119,-3.119,-3.119,-3.1732,-3.185,-3.1258,-3.235,-3.242,-3.0791,-3.1776,-3.2321,-3.2013,-3.2305,-3.2949,-3.3921,-3.3724,-3.3558,-3.3558,-3.3187,-3.2833,-3.2578,-3.2787,-3.347,-3.4561,-3.5364,-3.5627,-3.5504,-3.5504,-3.5504,-3.5504,-3.5504,-3.5504,-3.5504,-3.5504,-3.5504,-3.5504,-3.5504,-3.5848,-3.6327,0.0,0.0,0.0,0.0,0.0,0.0,0.0,0.0,0.0,0.0,-2.0585,-2.0605,0.0,0.0,-2.0605,-2.0605,-2.0605,-2.0605,-2.0605,0.0,0.0,-2.0424,-2.036,0.0,0.0,0.0,0.0,0.0,0.0,0.0,0.0,0.0,0.0,-2.1583,0.0,0.0,0.0,0.0,-2.0408,-2.0312,-2.0312,-2.0312,-2.0277,-2.0106,-2.0022,-1.9983,-1.9738,-1.9636,-1.9569,-1.9394,-1.932,0.0,0.0,0.0,-1.9305,-1.9305,-1.9381,-1.9591,0.0,0.0,0.0,0.0,0.0,-2.6742,0.0,0.0,-2.9228,0.0,-3.092,-3.1884,-3.3169,-3.2882,-3.2391,-3.2347,-3.1749,-3.1309,-3.1207,-3.119,-3.119,-3.119,-3.1275,-3.1309,-3.1207,-3.1381,-3.1645,-3.2023,-3.2227,-3.2858,-3.4034,-3.3032,-3.3317,-3.5266,-3.4157,-3.3512,-3.3512,-3.4071,-3.3729,-3.2517,-3.3752,-3.4413,-3.4634,-3.595,-3.6149,-3.5504,-3.5504,-3.5504,-3.5504,-3.5504,-3.5504,-3.5504,-3.5504,-3.5504,-3.5504,-3.5504,-3.5564,-3.5714,0.0,0.0,0.0,0.0,0.0,0.0,0.0,0.0,0.0,0.0,0.0,-2.0605,0.0,0.0,-2.0598,-2.0597,-2.0565,-2.0527,-2.0485,-2.0448,-2.0407,-2.0353,-2.0318,-2.0312,0.0,0.0,0.0,0.0,0.0,0.0,0.0,-2.0658,-2.0842,0.0,0.0,0.0,0.0,0.0,0.0,-2.0312,-2.0312,-2.0312,-2.0277,-2.0078,-1.9944,-1.9869,-1.9669,-1.9527,-1.9427,-1.932,-1.9305,-1.9305,-1.9305,0.0,0.0,0.0,-1.9305,0.0,-2.0499,0.0,0.0,0.0,-2.4471,-2.4949,-2.5355,0.0,-2.73,-2.8044,-2.8789,-2.9888,-3.1816,-3.1901,-3.1664,-3.1664,-3.141,-3.119,-3.119,-3.119,-3.119,-3.119,-3.119,-3.119,-3.119,-3.1562,-3.1765,-3.1681,-3.2053,-3.256,-3.322,-3.2664,-3.2983,-3.4293,-3.4158,-3.3857,-3.3456,-3.422,-3.4072,-3.315,-3.4106,-3.4585,-3.4617,-3.5655,-3.5891,-3.5521,-3.595,-3.5894,-3.5504,-3.5504,-3.5504,-3.5504,-3.5504,-3.5504,-3.5504,-3.5504,-3.5504,-3.5549,0.0,0.0,0.0,0.0,0.0,0.0,0.0,0.0,0.0,0.0,0.0,0.0,0.0,0.0,0.0,0.0,-2.0511,-2.0444,-2.0381,-2.0372,-2.035,-2.0312,-2.0312,-2.0312,-2.0312,0.0,0.0,0.0,0.0,0.0,-2.0312,-2.0504,-2.0504,0.0,-2.0927,0.0,0.0,0.0,0.0,0.0,-2.0312,-2.0277,-2.0197,-2.0022,-1.9869,-1.9726,-1.9577,-1.9442,-1.9305,-1.9305,-1.9305,-1.9305,-1.9305,-1.9305,0.0,0.0,0.0,0.0,0.0,0.0,0.0,0.0,-2.3467,-2.3646,0.0,0.0,-2.5575,0.0,-2.7148,-2.8163,-3.0243,-3.0632,-3.0632,-3.0632,-3.0632,-3.0632,-3.0632,-3.0801,-3.092,-3.092,-3.1089,-3.119,-3.119,-3.1681,-3.1782,-3.1241,-3.1698,-3.2087,-3.2313,-3.2104,-3.2425,-3.3372,-3.3744,-3.3677,-3.3136,-3.3712,-3.395,-3.3827,-3.4363,-3.4653,-3.4864,-3.5594,-3.5796,-3.5593,-3.6338,-3.6414,-3.6085,-3.6085,-3.5958,-3.5782,-3.6022,-3.5958,-3.5782,-3.5782,-3.5782,-3.5718,0.0,0.0,0.0,0.0,0.0,0.0,0.0,0.0,0.0,0.0,0.0,0.0,0.0,-2.0542,-2.0508,-2.0512,-2.0446,-2.0371,-2.0315,-2.0312,-2.0312,-2.0312,-2.0312,0.0,0.0,0.0,0.0,0.0,0.0,0.0,-2.0331,-2.1081,-2.1023,-2.0312,-2.035,-2.035,-2.0312,0.0,0.0,0.0,-2.0312,-2.0188,-2.0003,-1.9858,-1.9726,-1.9582,-1.938,-1.9305,-1.9305,-1.9305,-1.9305,-1.9305,-1.9305,-1.9305,-1.9305,0.0,0.0,0.0,0.0,-2.0934,0.0,-2.1967,0.0,0.0,0.0,0.0,0.0,-2.6387,-2.6725,-2.7232,-2.8805,-2.9093,-2.9093,-2.9093,-2.9093,-2.9093,-2.9093,-2.9719,-3.0176,-3.0176,-3.0768,-3.119,-3.119,-3.1224,-3.1241,-3.119,-3.1241,-3.1546,-3.2239,-3.163,-3.1918,-3.3355,-3.2747,-3.2374,-3.2341,-3.2408,-3.3111,-3.4452,-3.4486,-3.4874,-3.5554,-3.6375,-3.6317,-3.5626,-3.6371,-3.7068,-3.7706,-3.7706,-3.7219,-3.6615,-3.7397,-3.7219,-3.6554,-3.6554,-3.6554,-3.6446,0.0,0.0,0.0,0.0,0.0,0.0,0.0,0.0,0.0,0.0,0.0,0.0,0.0,-2.0504,-2.0485,-2.0446,-2.0371,-2.0327,-2.0292,-2.0312,-2.0312,-2.0312,-2.0312,0.0,0.0,0.0,0.0,0.0,0.0,-2.0312,-2.0312,-2.06,-2.0581,-2.0331,-2.085,-2.0773,-2.0312,-2.0312,0.0,0.0,-2.0161,-2.0069,-1.9983,0.0,0.0,0.0,0.0,0.0,-1.9305,-1.9305,-1.9305,-1.9305,-1.9305,-1.9305,-1.9305,-1.9305,0.0,0.0,0.0,0.0,0.0,-2.1883,-2.2566,-2.3102,-2.2986,-2.338,-2.3934,-2.4458,-2.4949,-2.5592,-2.6623,-2.7994,-2.9011,-2.9011,-2.9011,-2.9011,-2.9011,-2.9211,-2.9381,-2.9381,-3.004,-3.0311,-2.982,-3.0632,-3.0801,-2.9854,-3.0666,-3.1106,-3.0903,-3.1089,-3.1427,-3.1968,-3.2171,-3.251,-3.3,-3.2527,-3.278,-3.3795,-3.4269,-3.4641,-3.4928,-3.569,-3.6144,-3.6396,-3.7137,-3.7327,-3.7109,-3.763,-3.7632,-3.7397,-3.769,-3.7632,-3.7397,-3.7397,-3.7397,-3.7338,0.0,0.0,0.0,0.0,0.0,-2.0605,0.0,0.0,0.0,0.0,0.0,0.0,0.0,0.0,-2.0408,-2.0369,-2.0331,-2.0312,-2.0312,-2.0312,-2.0312,-2.0312,-2.0312,0.0,0.0,0.0,0.0,0.0,0.0,0.0,0.0,-2.0312,-2.0312,-2.0331,-2.0869,-2.0812,0.0,0.0,0.0,-2.0277,-2.0078,-1.9964,-1.9931,0.0,0.0,0.0,0.0,0.0,-1.9656,-1.9381,-1.9305,-1.9305,-1.9305,-1.9305,-1.9344,0.0,0.0,0.0,-2.0063,0.0,0.0,0.0,0.0,-2.2972,-2.2746,0.0,-2.3198,-2.3371,-2.3782,-2.4357,-2.5084,-2.6454,-2.7673,-2.8129,-2.8213,-2.8213,-2.8213,-2.8433,-2.8602,-2.8602,-2.9262,-2.9533,-2.9025,-2.9871,-3.004,-2.9096,-2.9905,0.0,-2.9753,-3.0192,-3.0565,-3.0818,-3.1309,-3.1918,-3.2662,-3.2171,-3.229,-3.3034,-3.3525,-3.4015,-3.4506,-3.5013,-3.5673,-3.6451,-3.7466,-3.772,-3.753,-3.8248,-3.843,-3.8206,-3.8486,-3.843,-3.8149,-3.8149,-3.8149,-3.8133,0.0,-2.0561,-2.0605,-2.0605,-2.0605,-2.0605,0.0,0.0,0.0,0.0,0.0,0.0,0.0,0.0,0.0,-2.0369,-2.035,-2.035,-2.035,-2.0312,-2.0312,-2.0312,-2.0312,0.0,0.0,0.0,0.0,0.0,0.0,0.0,0.0,0.0,-2.0312,-2.0331,-2.0312,-2.0312,-2.0312,0.0,-2.0312,-2.0277,0.0,-1.9922,-1.9861,0.0,0.0,0.0,-2.0448,-2.0448,0.0,-1.9583,0.0,0.0,0.0,0.0,0.0,0.0,0.0,0.0,0.0,0.0,0.0,0.0,0.0,0.0,-2.2873,0.0,-2.2815,-2.3277,-2.3359,-2.3579,-2.4337,-2.4472,-2.4946,-2.6387,-2.6623,-2.6623,-2.6623,-2.7249,-2.7705,-2.7722,-2.8433,-2.8943,-2.8943,-2.8994,-2.8958,-2.896,-2.8958,-2.9011,-2.8994,-2.9011,-2.9313,-3.004,-3.0074,-3.0429,-3.1157,-3.1157,-3.1529,-3.2297,-3.2313,-3.3051,-3.4455,-3.4472,-3.4912,-3.574,-3.7246,-3.8328,-3.9056,-3.9783,-3.9662,-3.9016,-3.9782,-3.961,-3.8908,-3.8908,-3.8908,-3.8854,-2.0561,-2.0581,-2.0605,-2.0605,-2.0605,-2.0578,0.0,0.0,0.0,0.0,0.0,0.0,0.0,0.0,0.0,-2.21,-2.1523,-2.1177,-2.1177,-2.0619,-2.0312,-2.0312,-2.0312,0.0,0.0,0.0,0.0,0.0,0.0,0.0,0.0,0.0,0.0,0.0,-2.0562,-2.0312,-2.0312,-2.0312,0.0,-2.0277,-1.9972,-1.9836,0.0,0.0,0.0,0.0,0.0,-1.962,-1.9693,0.0,-2.017,-2.028,0.0,0.0,0.0,0.0,0.0,0.0,-2.1382,0.0,0.0,0.0,0.0,0.0,-2.3477,-2.3045,-2.2738,-2.2858,-2.2743,-2.2835,-2.3562,-2.3697,-2.4002,-2.498,-2.5133,-2.5133,-2.5133,-2.527,-2.5609,-2.6167,-2.6877,-2.7334,-2.7334,-2.8332,-2.8518,0.0,-2.8349,-2.8738,-2.8163,-2.867,-2.9076,-2.9296,-2.9296,-2.9651,-3.0395,-3.0412,-3.0768,-3.1495,-3.2036,-3.278,-3.3728,-3.4252,-3.5216,-3.6518,-3.7483,-3.8328,-3.9056,-3.9783,-3.9969,-3.9782,-4.002,-3.9952,-3.9782,-3.9782,-3.9782,-3.9731,-2.0584,-2.0605,-2.0605,-2.0605,-2.0872,-2.0954,0.0,0.0,0.0,0.0,0.0,0.0,0.0,0.0,0.0,-2.2793,-2.2331,-2.2043,-2.2043,-2.16,-2.1177,-2.0831,0.0,0.0,0.0,0.0,0.0,0.0,0.0,0.0,0.0,0.0,0.0,0.0,-2.0504,-2.0312,0.0,0.0,0.0,0.0,-2.0278,0.0,0.0,-2.0314,-2.0352,0.0,0.0,0.0,-2.0315,-2.0079,-2.0225,0.0,0.0,0.0,0.0,0.0,0.0,0.0,0.0,0.0,0.0,0.0,0.0,0.0,-2.3566,-2.3189,-2.2822,-2.259,-2.2398,-2.2446,-2.2868,-2.2936,-2.3088,-2.3511,-2.3579,-2.3799,-2.4421,-2.4506,-2.4675,-2.5084,-2.5507,-2.5896,-2.6201,-2.7046,-2.7334,-2.6742,-2.752,-2.7841,-2.7385,-2.7791,-2.8351,-2.8958,-2.867,-2.9161,-3.0548,-3.026,-3.048,-3.1207,-3.1935,-3.2679,-3.344,-3.4167,-3.5334,-3.6823,-3.7584,-3.8328,-3.9056,-3.9783,-4.007,-4.007,-4.007,-4.007,-4.007,-4.007,-4.007,-4.0121,0.0,-2.0585,-2.0621,-2.0717,-2.133,0.0,0.0,0.0,0.0,0.0,0.0,0.0,0.0,0.0,0.0,0.0,-2.3004,-2.2928,-2.2928,-2.2851,0.0,0.0,0.0,0.0,0.0,0.0,0.0,0.0,0.0,0.0,0.0,0.0,0.0,0.0,-2.035,-2.0285,-2.0249,0.0,0.0,-2.0124,-2.0644,-2.0875,0.0,0.0,-2.1729,-2.1711,-2.0923,-2.1143,-2.1601,-2.017,-2.0189,0.0,0.0,0.0,0.0,0.0,-2.263,0.0,0.0,0.0,0.0,0.0,-2.3749,0.0,-2.3455,-2.3353,-2.3193,-2.2525,-2.2405,-2.2405,-2.2349,-2.2349,-2.2349,-2.2349,-2.2338,-2.2767,-2.4052,-2.4269,-2.4303,-2.4388,-2.4388,-2.4661,-2.5423,-2.5558,-2.5879,-2.6522,-2.664,-2.6691,-2.6691,-2.6691,-2.7317,-2.8687,-2.8146,-2.8839,-3.0937,-3.0395,-3.0514,-3.1326,-3.1968,-3.2713,-3.3541,-3.4201,-3.5334,-3.6823,-3.7584,-3.8328,-3.9056,-3.9783,-4.007,-4.007,-4.007,-4.007,-4.007,-4.007,-4.007,-4.0189,-2.0605,-2.0565,-2.0733,-2.1448,0.0,0.0,0.0,0.0,0.0,0.0,0.0,0.0,0.0,0.0,0.0,0.0,-2.4216,-2.386,-2.386,0.0,0.0,0.0,0.0,0.0,0.0,0.0,0.0,0.0,0.0,0.0,0.0,0.0,0.0,0.0,0.0,-2.0205,0.0,0.0,0.0,-2.0605,-2.0079,-2.0634,-2.1696,-2.1007,-2.1198,-2.1784,-2.1602,-2.1674,-2.1858,-2.2171,-2.2391,-2.2666,0.0,0.0,0.0,-2.3731,0.0,0.0,0.0,0.0,0.0,0.0,-2.4557,0.0,-2.4182,-2.4302,-2.427,-2.3252,-2.3014,-2.2958,-2.2756,-2.2669,-2.2608,-2.2608,-2.2436,-2.2412,-2.2699,-2.2733,-2.2953,-2.3528,-2.3613,-2.39,-2.4628,-2.5253,-2.5659,-2.5812,-2.6353,-2.6691,-2.6691,-2.6691,-2.6826,-2.7131,-2.7588,-2.8332,-2.9397,-2.9871,-3.0768,-3.211,-3.2246,-3.2983,-3.4286,-3.4421,-3.5334,-3.6823,-3.7584,-3.8328,-3.9056,-3.9783,-4.007,-4.007,-4.007,-4.007,-4.007,-4.007,-4.007,-4.0189,-2.0565,-2.0514,-2.0757,-2.1597,0.0,0.0,0.0,0.0,0.0,0.0,0.0,0.0,0.0,0.0,0.0,0.0,0.0,0.0,0.0,0.0,0.0,0.0,0.0,0.0,0.0,0.0,0.0,0.0,0.0,0.0,0.0,0.0,0.0,0.0,0.0,0.0,0.0,0.0,-2.0414,-2.1354,-2.0964,0.0,-2.2439,-2.1948,-2.2024,-2.2354,-2.1932,-2.1803,-2.1986,-2.3199,-2.3327,0.0,-2.3951,-2.3914,-2.3676,0.0,-2.419,-2.419,0.0,0.0,0.0,-2.4685,0.0,0.0,0.0,-2.4414,-2.4096,-2.3348,-2.3189,-2.3159,-2.3032,-2.2965,-2.288,-2.2721,-2.2573,-2.2436,-2.2338,-2.231,-2.2446,-2.2818,-2.2852,-2.3139,-2.3866,-2.4289,-2.4814,-2.5558,-2.5947,-2.6302,-2.6674,-2.6691,-2.686,-2.7249,-2.7621,-2.8383,-2.9533,-2.9922,-3.0666,-3.1749,-3.2493,-3.3237,-3.3981,-3.4709,-3.5893,-3.7364,-3.7736,-3.8531,-3.9563,-3.9935,-4.007,-4.007,-4.007,-4.007,-4.007,-4.007,-4.007,-4.0189,-2.0539,-2.06,-2.0977,-2.1786,0.0,0.0,0.0,0.0,0.0,0.0,0.0,0.0,0.0,0.0,0.0,0.0,0.0,0.0,0.0,0.0,0.0,0.0,0.0,-2.3479,0.0,0.0,0.0,0.0,0.0,0.0,0.0,0.0,0.0,0.0,0.0,0.0,0.0,0.0,0.0,-2.1962,0.0,-2.2382,-2.2997,-2.2997,-2.3107,-2.3162,-2.2501,-2.2262,-2.2446,-2.3749,-2.3768,-2.3345,-2.4006,-2.419,0.0,0.0,0.0,0.0,0.0,0.0,0.0,0.0,0.0,-2.4681,0.0,0.0,0.0,-2.3405,0.0,0.0,0.0,0.0,0.0,0.0,0.0,0.0,0.0,-2.2368,0.0,-2.231,-2.231,-2.2547,-2.3122,-2.3308,-2.3951,-2.5287,-2.5524,-2.5862,-2.6454,-2.6623,-2.6962,-2.7588,-2.7892,-2.8636,-2.9888,-3.0176,-3.0683,-3.1427,-3.2763,-3.3474,-3.366,-3.5013,-3.6299,-3.7483,-3.7787,-3.8582,-3.9681,-3.9969,-4.007,-4.007,-4.007,-4.007,-4.007,-4.007,-4.007,-4.0189,-2.0646,-2.1034,-2.1756,-2.2612,0.0,0.0,0.0,0.0,0.0,0.0,0.0,0.0,0.0,0.0,0.0,0.0,0.0,0.0,-2.5303,0.0,0.0,0.0,0.0,0.0,-2.4357,0.0,0.0,0.0,0.0,0.0,0.0,0.0,0.0,0.0,-2.1713,0.0,0.0,0.0,-2.1384,0.0,-2.182,-2.2299,0.0,-2.2997,-2.3437,-2.4043,-2.3951,-2.3933,-2.3951,0.0,-2.4135,-2.408,0.0,-2.419,-2.419,-2.419,0.0,0.0,0.0,0.0,0.0,0.0,-2.586,0.0,0.0,0.0,-2.4915,-2.3858,0.0,0.0,0.0,0.0,0.0,0.0,0.0,0.0,-2.2125,-2.2664,-2.2908,-2.2349,-2.231,-2.2344,-2.2429,-2.3021,-2.3731,-2.4543,-2.522,-2.5642,-2.5727,-2.6336,-2.6725,-2.6826,-2.8146,-2.8941,-2.911,-3.0412,-3.1444,-3.2171,-3.3,-3.3744,-3.4387,-3.525,-3.5723,-3.596,-3.7313,-3.8007,-3.8261,-3.9546,-4.007,-4.007,-4.007,-4.007,-4.007,-4.007,-4.007,-4.0189,-2.1966,-2.2141,-2.2621,-2.3457,0.0,0.0,0.0,0.0,0.0,0.0,0.0,0.0,0.0,0.0,0.0,0.0,0.0,-2.5303,0.0,0.0,0.0,0.0,0.0,0.0,0.0,0.0,0.0,0.0,-2.4497,0.0,0.0,0.0,0.0,0.0,-2.2772,0.0,-2.2716,0.0,-2.1943,0.0,0.0,0.0,0.0,-2.3529,-2.3914,-2.419,-2.419,-2.419,-2.419,0.0,-2.419,0.0,0.0,0.0,0.0,-2.419,0.0,0.0,0.0,0.0,0.0,0.0,0.0,0.0,-2.4924,0.0,-2.4574,0.0,0.0,0.0,0.0,0.0,0.0,0.0,-2.335,0.0,0.0,0.0,-2.3111,0.0,0.0,0.0,-2.231,-2.2726,-2.3232,-2.3829,-2.433,-2.4893,-2.5558,-2.5896,-2.6251,-2.6674,-2.818,-2.9011,-2.9011,-3.0446,-3.1343,-3.1664,-3.2848,-3.3558,-3.3897,-3.5081,-3.5859,-3.6332,-3.6975,-3.7736,-3.8582,-3.9191,-3.9698,-4.007,-4.007,-4.007,-4.007,-4.007,-4.007,-4.0189,-2.3505,-2.339,-2.3419,0.0,0.0,0.0,0.0,0.0,0.0,0.0,0.0,0.0,-2.5303,-2.5303,0.0,0.0,-2.5303,-2.5303,0.0,0.0,-2.5072,0.0,0.0,0.0,0.0,0.0,0.0,0.0,0.0,0.0,0.0,0.0,0.0,0.0,0.0,-2.3529,-2.3786,0.0,-2.2391,-2.2997,-2.2997,-2.3144,-2.34,-2.3988,-2.419,-2.419,-2.419,-2.419,-2.419,-2.419,-2.419,0.0,-2.419,-2.419,-2.419,0.0,0.0,0.0,-2.5438,0.0,0.0,0.0,0.0,0.0,0.0,0.0,0.0,0.0,0.0,0.0,0.0,0.0,0.0,0.0,0.0,-2.3681,0.0,-2.3334,0.0,0.0,0.0,0.0,0.0,-2.273,-2.2937,-2.3176,-2.3639,-2.4213,-2.498,-2.5389,-2.5845,-2.6387,-2.8078,-2.9011,-2.9011,-3.0446,-3.119,-3.1207,-3.2696,-3.3406,-3.3457,-3.4945,-3.5926,-3.6485,-3.6907,-3.7702,-3.8717,-3.9123,-3.9597,-4.007,-4.007,-4.007,-4.007,-4.007,-4.007,-4.0189,-2.5072,-2.4601,0.0,0.0,0.0,0.0,0.0,0.0,0.0,0.0,0.0,0.0,0.0,0.0,0.0,0.0,0.0,-2.5303,-2.5303,0.0,-2.4697,0.0,0.0,-2.4209,0.0,0.0,0.0,0.0,0.0,0.0,0.0,0.0,0.0,0.0,0.0,-2.3749,-2.3033,-2.2703,-2.274,-2.2997,-2.2997,-2.3474,-2.4153,0.0,-2.419,-2.419,-2.419,0.0,0.0,-2.419,-2.419,0.0,0.0,0.0,0.0,0.0,0.0,0.0,0.0,0.0,0.0,-2.6594,0.0,0.0,0.0,0.0,-2.5146,0.0,0.0,0.0,0.0,0.0,0.0,0.0,0.0,0.0,0.0,0.0,0.0,0.0,0.0,0.0,0.0,-2.3165,-2.3063,-2.2755,-2.3448,-2.3777,-2.349,-2.4831,-2.5625,-2.5642,-2.7807,-2.9011,-2.9011,-3.0446,-3.119,-3.1207,-3.2696,-3.3406,-3.3457,-3.4945,-3.5639,-3.574,-3.7229,-3.7889,-3.8058,-3.9462,-4.0054,-4.007,-4.007,-4.007,-4.007,-4.007,-4.007,-4.0189,-2.5245,0.0,0.0,0.0,0.0,0.0,0.0,-2.5303,0.0,0.0,-2.5303,0.0,0.0,-2.5303,-2.5303,0.0,0.0,-2.5234,-2.5111,-2.4949,0.0,0.0,0.0,-2.4339,0.0,0.0,0.0,0.0,0.0,0.0,0.0,0.0,0.0,0.0,0.0,-2.4043,0.0,0.0,0.0,0.0,0.0,-2.3951,-2.419,0.0,-2.419,-2.419,-2.419,-2.419,0.0,-2.419,-2.419,-2.419,-2.419,-2.419,-2.419,-2.419,-2.419,-2.4428,0.0,0.0,-2.5273,-2.6337,0.0,0.0,0.0,0.0,0.0,0.0,0.0,0.0,0.0,0.0,0.0,0.0,0.0,0.0,0.0,0.0,-2.4132,0.0,0.0,0.0,0.0,0.0,-2.3392,-2.3069,-2.3284,-2.3519,-2.3715,-2.4723,-2.5377,-2.5592,-2.8015,-2.9211,-2.9011,-3.0446,-3.119,-3.1207,-3.2696,-3.3406,-3.3457,-3.4945,-3.591,-3.6417,-3.6941,-3.7719,-3.8667,-3.9157,-3.9648,-4.007,-4.007,-4.007,-4.007,-4.007,-4.007,-4.0257,-2.5303,-2.5303,0.0,0.0,0.0,0.0,0.0,0.0,0.0,0.0,-2.5303,0.0,-2.5303,0.0,-2.5303,0.0,-2.5224,-2.5141,-2.501,-2.4898,0.0,-2.4512,-2.4426,-2.4321,0.0,0.0,0.0,0.0,0.0,-2.419,0.0,0.0,0.0,0.0,0.0,-2.419,-2.419,-2.419,-2.419,0.0,0.0,-2.419,0.0,0.0,-2.419,-2.419,0.0,-2.419,-2.419,-2.419,-2.419,-2.419,-2.419,-2.419,-2.419,-2.419,-2.419,-2.4373,-2.5182,-2.5035,0.0,-2.5915,-2.5383,0.0,-2.4905,0.0,-2.5043,0.0,0.0,0.0,0.0,0.0,0.0,0.0,0.0,0.0,0.0,-2.419,-2.419,-2.419,-2.4016,-2.3753,0.0,-2.3566,-2.3566,-2.323,-2.3093,-2.3323,0.0,-2.4729,-2.534,-2.578,-2.8215,-2.942,-2.9228,-3.0544,-3.1252,-3.1428,-3.2946,-3.3598,-3.3457,-3.5129,-3.6208,-3.6789,-3.706,-3.7872,-3.9005,-3.9276,-3.9648,-4.007,-4.007,-4.007,-4.007,-4.007,-4.0409,-4.1001,-2.5303,-2.5303,-2.5303,0.0,-2.5303,0.0,0.0,0.0,-2.5303,0.0,-2.5303,-2.5303,-2.5303,-2.5303,-2.5303,-2.5293,-2.5111,-2.4979,-2.4986,-2.4678,0.0,0.0,-2.4303,-2.419,-2.419,0.0,0.0,0.0,0.0,0.0,0.0,0.0,0.0,0.0,-2.419,0.0,-2.419,-2.419,-2.419,-2.419,-2.419,-2.419,-2.419,-2.419,-2.419,-2.419,-2.419,-2.419,-2.419,-2.419,-2.419,-2.419,-2.419,-2.419,-2.419,-2.419,-2.419,-2.4373,-2.5146,-2.5348,-2.5348,-2.5403,-2.5384,0.0,0.0,0.0,-2.4795,0.0,0.0,0.0,0.0,0.0,0.0,0.0,0.0,0.0,0.0,0.0,-2.419,-2.419,-2.419,-2.4074,-2.3774,-2.3714,-2.3588,-2.3259,-2.2947,-2.323,0.0,-2.4901,-2.5466,-2.6189,-2.8377,-2.9589,-2.9589,-3.066,-3.1466,-3.193,-3.3457,-3.3945,-3.355,-3.5511,-3.656,-3.6874,-3.7601,-3.8345,-3.9106,-3.9783,-4.007,-4.007,-4.007,-4.007,-4.007,-4.0121,-4.1068,-4.2337,-2.5303,-2.5303,-2.5303,0.0,-2.5303,-2.5303,0.0,0.0,0.0,0.0,-2.5303,-2.5303,-2.5303,-2.5303,-2.5253,-2.5088,-2.5034,0.0,0.0,0.0,0.0,-2.4284,-2.4228,-2.419,-2.419,-2.419,-2.419,-2.419,0.0,0.0,-2.419,0.0,0.0,0.0,0.0,0.0,-2.419,-2.419,-2.419,-2.419,-2.419,-2.419,-2.419,0.0,-2.419,-2.419,-2.419,-2.419,-2.419,-2.419,-2.419,-2.419,-2.419,-2.419,-2.419,-2.419,-2.419,-2.4245,-2.4447,-2.4502,-2.4649,-2.5256,-2.4962,-2.4612,0.0,0.0,0.0,0.0,0.0,0.0,0.0,0.0,0.0,0.0,0.0,0.0,0.0,0.0,-2.419,-2.419,-2.419,-2.417,-2.4074,-2.4074,-2.4054,-2.3937,-2.3631,0.0,0.0,0.0,-2.5949,-2.6189,-2.8965,-3.0185,-2.9622,-3.0973,-3.2175,-3.323,-3.3888,-3.4419,-3.4869,-3.5901,-3.6852,-3.7635,-3.7821,-3.8633,-3.9817,-4.0003,-4.007,-4.007,-4.007,-4.007,-4.0155,-4.0713,-4.1847,-4.3132,-2.5303,-2.5303,0.0,-2.5303,0.0,0.0,-2.5303,-2.5303,0.0,-2.5303,-2.5303,0.0,-2.5173,-2.5163,-2.5107,-2.493,-2.4831,0.0,-2.4512,0.0,0.0,-2.419,-2.419,-2.419,-2.419,-2.419,0.0,-2.419,0.0,0.0,-2.419,0.0,0.0,0.0,0.0,-2.419,-2.419,-2.419,-2.419,-2.419,-2.419,-2.419,0.0,-2.419,-2.419,-2.419,-2.419,-2.419,-2.419,-2.419,-2.419,-2.419,-2.419,-2.419,-2.4263,-2.4612,-2.4722,-2.4795,-2.5144,-2.4979,-2.4814,-2.5293,-2.4795,-2.4318,-2.4759,-2.4752,-2.4584,0.0,-2.4441,-2.4504,0.0,0.0,0.0,0.0,0.0,0.0,0.0,0.0,-2.419,-2.419,-2.419,-2.419,-2.419,-2.4074,-2.3976,-2.3976,-2.3671,0.0,0.0,0.0,-2.6433,-2.7134,-3.0198,-3.1321,-3.0185,-3.2159,-3.3441,-3.402,-3.4552,-3.4969,-3.533,-3.6295,-3.718,-3.7905,-3.7905,-3.8734,-4.007,-4.007,-4.007,-4.007,-4.007,-4.029,-4.0663,-4.1407,-4.2202,-4.298,-2.5303,-2.5303,0.0,0.0,0.0,0.0,0.0,-2.5303,0.0,-2.5303,0.0,-2.5346,-2.5182,-2.5241,-2.524,-2.5096,-2.4928,-2.4794,-2.4796,-2.4617,-2.4465,-2.4355,-2.4355,-2.43,-2.419,-2.419,-2.419,0.0,0.0,0.0,0.0,0.0,0.0,0.0,0.0,0.0,0.0,-2.419,-2.419,-2.419,-2.419,-2.419,-2.419,-2.419,-2.419,-2.419,-2.419,-2.419,-2.419,-2.419,-2.419,-2.419,-2.419,-2.419,-2.4337,-2.5054,-2.5256,-2.5421,-2.6227,-2.5933,-2.5439,-2.5531,-2.4942,-2.4355,-2.4355,-2.4049,-2.3873,-2.4279,-2.4121,-2.4057,0.0,0.0,0.0,0.0,0.0,0.0,0.0,0.0,-2.419,-2.419,-2.419,0.0,-2.419,-2.3937,-2.3774,-2.3774,-2.35,0.0,0.0,0.0,-2.6868,-2.8366,-3.1363,-3.2405,-3.1237,-3.3609,-3.4876,-3.4956,-3.5503,-3.5685,-3.5588,-3.6682,-3.7481,-3.8014,-3.7953,-3.8783,-4.0204,-4.0121,-4.007,-4.007,-4.007,-4.0544,-4.1288,-4.2016,-4.2354,-4.254,-2.5303,0.0,0.0,0.0,0.0,-2.5303,-2.5303,-2.5303,-2.5303,-2.5303,-2.5723,-2.6028,-2.6003,-2.6479,-2.6744,-2.6542,-2.6507,0.0,0.0,0.0,0.0,-2.5219,-2.5201,-2.4869,-2.4208,-2.419,-2.419,0.0,0.0,0.0,0.0,0.0,0.0,0.0,0.0,0.0,-2.419,-2.419,0.0,-2.419,-2.419,-2.419,-2.419,-2.419,-2.419,-2.419,-2.419,-2.419,-2.419,-2.419,-2.419,-2.419,-2.419,-2.419,-2.4226,-2.4373,-2.441,-2.4575,-2.5383,-2.5513,-2.5568,-2.6227,-2.5768,-2.5201,-2.5201,-2.4629,-2.4315,-2.5034,-2.5142,-2.5324,-2.6062,0.0,0.0,0.0,0.0,0.0,0.0,0.0,-2.419,-2.419,-2.419,-2.419,-2.419,-2.4151,-2.4113,-2.4113,0.0,0.0,0.0,0.0,-2.7091,0.0,-3.0553,0.0,0.0,0.0,-3.5639,-3.7955,-3.7007,-3.6699,-3.6864,-3.7082,-3.7707,-3.8535,-3.8091,-3.8973,-4.075,-4.0286,-4.007,-4.007,-4.007,-4.0544,-4.1288,-4.2016,-4.2692,-4.3335,-2.5303,0.0,0.0,0.0,0.0,0.0,0.0,-2.6255,-2.5967,-2.5967,-2.5731,-2.5863,-2.6641,-2.6537,-2.6505,-2.6743,-2.6742,-2.67,-2.6612,-2.6612,-2.6429,-2.6043,-2.6025,-2.564,-2.4832,-2.4814,-2.4612,-2.419,0.0,0.0,0.0,0.0,0.0,0.0,0.0,-2.419,0.0,0.0,0.0,-2.419,-2.419,-2.419,-2.419,-2.419,-2.419,-2.419,-2.419,-2.419,-2.419,-2.419,-2.419,-2.419,-2.419,-2.419,-2.4355,-2.5199,-2.5438,-2.5713,-2.6943,-2.6961,-2.6722,-2.7126,-2.6612,-2.6025,-2.6025,-2.5713,-2.5548,-2.5933,-2.6025,-2.6007,-2.597,-2.5309,0.0,0.0,0.0,0.0,0.0,0.0,-2.419,-2.419,-2.419,-2.419,-2.419,-2.419,0.0,0.0,0.0,0.0,0.0,0.0,-2.7446,0.0,0.0,0.0,-3.2949,0.0,-3.6474,-3.7459,-3.7679,-3.792,-3.8186,-3.8616,-3.9153,-3.9701,-3.914,-3.9824,-4.1313,-4.075,-4.0319,-4.0121,-4.051,-4.0882,-4.1339,-4.2455,-4.3115,-4.3538,0.0,-2.5437,0.0,0.0,-2.6755,-2.7101,-2.7794,-2.7313,-2.689,-2.689,-2.6044,-2.5986,-2.7315,-2.6821,-2.6595,-2.7053,-2.7126,-2.7126,-2.7126,-2.7126,-2.7034,-2.6869,-2.6869,-2.6484,-2.5658,-2.5495,-2.509,0.0,0.0,0.0,0.0,0.0,0.0,0.0,0.0,0.0,0.0,0.0,-2.419,-2.419,-2.419,-2.419,-2.419,-2.419,-2.419,-2.419,-2.419,-2.419,-2.4226,-2.4392,-2.4337,-2.4226,-2.4392,-2.4447,-2.474,-2.619,-2.6612,-2.6924,-2.8356,-2.8282,-2.7842,-2.8007,-2.7457,-2.6869,-2.6869,-2.6722,-2.6649,-2.6833,-2.6998,-2.6869,-2.6043,-2.5383,0.0,0.0,0.0,0.0,0.0,0.0,-2.4575,-2.4245,-2.4355,-2.4392,-2.4208,-2.419,0.0,0.0,0.0,0.0,-2.6521,0.0,0.0,0.0,0.0,-3.333,-3.3403,0.0,-3.7165,-3.7074,-3.8358,-3.8998,-3.9138,-3.9932,-4.0504,-4.0829,-4.0262,-4.0613,-4.1578,-4.1087,-4.0577,-4.0155,-4.0916,-4.1305,-4.1593,-4.2929,-4.3521,-4.3775,0.0,0.0,0.0,0.0,0.0,-2.7813,-2.789,-2.7832,-2.7775,-2.7775,-2.7328,-2.732,-2.8188,-2.8532,-2.8727,-2.8755,-2.8773,-2.8773,-2.8773,-2.8773,-2.8466,-2.7714,-2.7677,-2.731,-2.6521,-2.5768,-2.5366,0.0,0.0,-2.419,0.0,0.0,0.0,0.0,0.0,0.0,0.0,-2.419,-2.419,-2.419,-2.419,-2.419,-2.419,-2.419,-2.419,-2.419,-2.419,-2.419,-2.43,-2.5054,-2.4795,-2.4318,-2.5072,-2.5293,-2.5476,-2.6337,-2.6612,-2.6796,-2.7677,-2.786,-2.797,-2.8723,-2.8282,-2.7677,-2.7677,-2.7126,-2.6814,-2.753,-2.8282,-2.8539,-2.7714,-2.7512,-2.7218,0.0,0.0,0.0,0.0,0.0,-2.5841,-2.4373,-2.4832,-2.5017,-2.4263,-2.419,0.0,0.0,-2.4612,0.0,0.0,0.0,0.0,-3.0118,-3.1127,-3.3018,-3.5936,-3.6248,-3.7459,-3.9551,-3.9717,-3.9528,-3.9138,-3.9932,-4.0727,-4.1393,-4.0869,-4.077,-4.0995,-4.0903,-4.0577,-4.0155,-4.0916,-4.161,-4.2286,-4.3115,-4.3859,-4.457,0.0,0.0,0.0,0.0,0.0,0.0,0.0,-2.8847,-2.8613,-2.9098,-2.8017,-2.7716,-2.9036,-2.8643,-2.8533,-2.9188,-2.9089,-2.8994,-2.8994,-2.8994,-2.8847,-2.8539,-2.8521,-2.8154,-2.7346,-2.6998,-2.6376,0.0,0.0,0.0,0.0,0.0,0.0,0.0,0.0,-2.564,-2.564,-2.564,-2.564,-2.5603,-2.5107,-2.4905,-2.4869,-2.4373,-2.419,-2.419,-2.419,-2.4502,-2.498,-2.5293,-2.5201,-2.5052,-2.586,-2.6117,-2.6282,-2.7071,-2.731,-2.7493,-2.8301,-2.8521,-2.8613,-2.892,-2.8778,-2.8521,-2.8521,-2.8282,-2.8136,-2.8466,-2.8393,-2.8172,-2.786,-2.7402,-2.6979,-2.6649,0.0,0.0,0.0,0.0,0.0,-2.4997,-2.5201,-2.5274,-2.4962,-2.5364,0.0,0.0,0.0,0.0,0.0,0.0,0.0,-3.0834,0.0,-3.2724,-3.5495,-3.6046,-3.7019,-3.8469,-3.9937,-4.05,-4.0333,-4.1645,-4.2214,-4.2244,-4.2339,-4.1823,-4.0949,-4.1313,-4.1087,-4.0697,-4.1982,-4.2602,-4.3014,-4.4215,-4.4633,-4.4621,-2.5303,0.0,-2.6871,0.0,-2.8563,-2.939,-3.0275,-2.9685,-2.9336,-2.9848,-2.8774,-2.8393,-2.9564,-2.8854,-2.8574,-2.9336,-2.9156,-2.8994,-2.8994,-2.8994,-2.8994,-2.8994,-2.8994,0.0,-2.8172,-2.7915,-2.7236,-2.6119,-2.586,0.0,0.0,0.0,0.0,0.0,-2.6612,-2.6612,-2.6612,-2.6612,-2.6612,-2.6557,-2.597,-2.575,-2.5676,-2.5126,-2.4905,-2.4905,-2.4905,-2.5273,-2.5786,-2.6046,-2.6119,-2.619,-2.6778,-2.6961,-2.7108,-2.7915,-2.8154,-2.8282,-2.8847,-2.8994,-2.8994,-2.8994,-2.8994,-2.8994,-2.8994,-2.8994,-2.8994,-2.8994,-2.8558,-2.8154,-2.8154,-2.7695,-2.731,-2.731,0.0,0.0,0.0,-2.6667,0.0,-2.5805,-2.5952,-2.6027,-2.5768,-2.6264,0.0,0.0,0.0,0.0,0.0,0.0,0.0,0.0,0.0,0.0,-3.5367,-3.6468,-3.7404,-3.8212,-4.0414,-4.146,-4.1515,-4.2873,-4.3286,-4.2939,-4.3339,-4.2621,-4.1223,-4.181,-4.178,-4.1388,-4.277,-4.338,-4.3677,-4.4802,-4.4961,-4.4637,-2.5303,-2.6005,-2.6871,-2.7755,-2.8563,-2.939,-3.0275,-3.0163,-2.992,-2.9731,-2.9677,-2.9677,-2.9696,-2.9494,-2.9373,-2.9412,-2.9156,-2.8994,-2.8994,-2.8994,-2.8994,0.0,0.0,-2.8994,-2.8975,-2.8209,-2.7787,-2.7769,0.0,0.0,-2.6594,0.0,-2.6594,-2.6612,-2.6612,-2.6612,-2.6612,-2.6612,-2.6612,-2.6612,-2.6594,-2.6594,-2.6594,-2.6576,-2.6576,-2.6576,-2.6576,-2.6594,-2.6722,-2.7493,-2.7769,-2.7769,-2.7769,-2.7787,-2.7934,-2.8737,-2.8975,-2.8975,-2.8994,-2.8994,-2.8994,-2.8994,-2.8994,-2.8994,-2.8994,-2.8994,-2.8994,-2.8994,-2.8975,-2.8975,-2.8975,-2.8975,-2.8957,-2.8957,0.0,0.0,0.0,-2.8466,0.0,-2.6778,-2.7291,-2.7457,-2.6667,-2.6594,0.0,0.0,0.0,0.0,0.0,0.0,0.0,-3.1347,-3.2944,0.0,-3.6266,-3.7863,-3.9074,-3.9882,-4.1515,-4.2286,-4.2304,-4.313,-4.3497,-4.3479,-4.3497,-4.2847,-4.1853,-4.244,-4.2477,-4.2233,-4.2947,-4.3692,-4.4386,-4.4579,-4.4643,-4.479,-2.5303,-2.6005,-2.6871,-2.7755,-2.8563,-2.9337,-3.0016,-2.9943,-2.9763,-2.9713,-2.9696,-2.9696,-2.9696,-2.9532,-2.9454,0.0,-2.9228,-2.8994,0.0,-2.8994,-2.8994,-2.8994,-2.8994,-2.8994,-2.8994,-2.8737,-2.8356,-2.7787,0.0,0.0,0.0,-2.7989,-2.8246,-2.8246,-2.8246,-2.8246,-2.8246,-2.8246,-2.8246,-2.8191,-2.764,-2.742,-2.7365,-2.6814,-2.6612,-2.6612,-2.6612,-2.6961,-2.7457,-2.7714,-2.8154,-2.8631,-2.8631,-2.8631,-2.8686,-2.892,-2.8994,-2.8994,-2.8994,-2.8994,-2.8994,-2.8994,-2.8994,-2.8994,-2.8994,-2.8994,-2.8994,-2.8994,-2.8994,-2.8994,-2.8994,-2.8994,-2.8994,-2.8994,-2.8994,0.0,-2.8668,0.0,-2.7989,-2.7475,-2.764,-2.7695,-2.7438,-2.7915,0.0,0.0,0.0,0.0,0.0,0.0,0.0,0.0,-3.3256,0.0,-3.6266,-3.79,-3.9093,-3.9918,-4.1534,-4.2598,-4.313,-4.3369,-4.3497,-4.3497,-4.3497,-4.3087,-4.244,-4.2616,-4.2641,-4.2614,-4.3482,-4.395,-4.4243,-4.4941,-4.5285,-4.5415,-2.5303,-2.5736,-2.6486,-2.7678,-2.8313,-2.8948,-2.9856,-2.9893,-2.9746,-2.9607,-2.9731,-2.9765,-2.9607,-2.9533,0.0,-2.9589,-2.9228,-2.8994,-2.8994,-2.8994,-2.8994,-2.8994,-2.8994,-2.8994,-2.8994,-2.8994,0.0,-2.8246,-2.8246,-2.8246,-2.8264,-2.8778,-2.8994,-2.8994,-2.8994,-2.8994,-2.8994,-2.8994,-2.8994,-2.8957,-2.8448,-2.8246,-2.8209,-2.7695,-2.7512,-2.7512,-2.7512,-2.7824,-2.8246,-2.8246,-2.8594,-2.8994,-2.8994,-2.8994,-2.8994,-2.8994,-2.8994,-2.8994,-2.8994,-2.8994,-2.8994,-2.8994,-2.8994,-2.8994,-2.8994,-2.9214,-2.9457,-2.9457,-2.9696,-2.9824,-2.9512,-2.9457,-2.9342,-2.9049,-2.8994,-2.8994,-2.8994,0.0,-2.8246,-2.8246,-2.8246,0.0,0.0,-2.8723,-2.9122,0.0,0.0,0.0,0.0,0.0,0.0,-3.2577,-3.399,-3.5238,-3.6285,-3.8505,-3.9863,-4.0377,-4.1974,-4.3002,-4.3497,-4.3497,-4.3497,-4.3497,-4.3497,-4.3214,-4.2711,-4.2902,-4.3246,-4.3628,-4.3916,-4.442,-4.4953,-4.539,-4.564,-4.5788,-2.5303,-2.5303,-2.5851,0.0,-2.7871,0.0,-2.978,-2.9999,-2.9861,-2.9455,-2.9765,-2.9829,-2.9474,-2.957,-2.9607,-2.9392,0.0,0.0,-2.8994,-2.8994,-2.8994,-2.8994,-2.8994,-2.8994,-2.8994,-2.8994,-2.8994,-2.8994,-2.8994,-2.8994,-2.8994,-2.8994,-2.8994,-2.8994,-2.8994,-2.8994,-2.8994,-2.8994,-2.8994,-2.8994,-2.8994,-2.8994,-2.8994,-2.8994,-2.8994,-2.8994,-2.8994,-2.8994,-2.8994,-2.8994,-2.8994,-2.8994,-2.8994,-2.903,-2.9067,-2.9012,-2.8994,-2.8994,-2.8994,-2.8994,-2.8994,-2.8994,-2.903,-2.9067,-2.9067,-2.9714,-3.0283,-3.0283,-3.087,-3.1164,-3.0411,-3.0246,-2.9953,-2.9195,-2.903,-2.8994,-2.8994,-2.9049,-2.9067,-2.9067,0.0,0.0,-2.9159,-2.9159,-2.9494,0.0,0.0,0.0,0.0,0.0,-3.1935,-3.2742,-3.5055,-3.6321,-3.6376,-3.9533,-4.1167,-4.1295,-4.2782,-4.3497,-4.3497,-4.3497,-4.3497,-4.3497,-4.3497,-4.3251,-4.286,-4.3377,-4.42,-4.508,-4.4343,-4.5022,-4.6305,-4.5891,-4.5737,-4.6031,0.0,0.0,-2.5687,-2.6986,-2.7582,-2.8361,-2.9722,-2.9969,-2.9908,-2.9661,-2.9713,-2.9729,-2.9625,-2.9514,-2.9373,-2.9112,-2.904,-2.8994,-2.8994,-2.8994,-2.8994,-2.8994,-2.8994,-2.8994,-2.8994,-2.8994,-2.8994,-2.8994,-2.8994,-2.8994,-2.8994,-2.8994,-2.8994,-2.8994,-2.8994,-2.8994,-2.8994,-2.8994,-2.8994,-2.8994,-2.8994,-2.8994,-2.8994,-2.8994,-2.8994,-2.8994,-2.8994,-2.8994,-2.8994,-2.8994,-2.8994,-2.8994,-2.8994,-2.9439,-2.9806,-2.9177,-2.8994,-2.8994,-2.8994,-2.8994,-2.8994,-2.8994,-2.9475,-2.9934,-2.9934,-3.054,-3.1109,-3.1109,-3.1256,-3.1329,-3.1146,-3.0613,-3.0136,-2.9953,-2.9402,-2.8994,-2.8994,-2.9549,-2.9934,0.0,-3.0467,-3.0834,-3.0834,-3.0834,-3.0907,0.0,0.0,-3.1549,-3.2559,-3.2999,-3.3605,-3.4403,-3.5661,-3.6578,-3.7202,-3.9808,-4.1735,-4.2928,-4.3314,-4.3497,-4.3497,-4.3497,-4.3497,-4.3497,-4.3497,-4.3776,-4.4218,-4.438,-4.493,-4.5659,-4.5106,-4.5454,-4.6195,-4.5849,-4.6351,-4.7292,-2.5832,-2.589,-2.6301,-2.7596,-2.8083,-2.8624,-2.9523,-2.978,-2.9746,-2.9436,-2.957,-2.9625,-2.9397,-2.9394,-2.9289,-2.9021,-2.8994,-2.8994,-2.8994,-2.8994,-2.8994,-2.8994,-2.9342,-2.936,-2.8994,-2.9365,-2.9384,-2.8994,-2.8994,-2.8994,-2.8994,-2.8994,-2.8994,-2.9012,-2.936,-2.9347,-2.9012,-2.9402,-2.9347,-2.8994,-2.8994,-2.8994,-2.8994,-2.8994,-2.8994,-2.8994,-2.8994,-2.8994,-2.8994,-2.8994,-2.8994,-2.9049,-2.9439,-2.9861,-3.0191,-3.0118,-3.0099,-3.0099,-3.0099,-3.0099,-3.0099,-3.0099,-3.043,-3.0742,-3.0742,-3.1366,-3.1953,-3.1953,-3.2247,-3.2375,-3.2027,-3.1586,-3.1072,-3.032,-2.9843,-2.9549,-2.9549,-2.9934,-3.0338,-3.0705,-3.1127,-3.1384,-3.1384,-3.1384,-3.1549,-3.1916,-3.1953,0.0,-3.3615,-3.4119,-3.4559,-3.4972,-3.656,-3.7606,-3.8028,-4.0451,-4.2268,-4.3497,-4.3497,-4.3497,-4.3497,-4.3497,-4.3497,-4.3497,-4.3497,-4.3956,-4.4709,-4.4709,-4.5406,-4.6415,-4.5845,-4.6327,-4.7266,-4.7141,-4.7605,-4.8277,-2.6447,-2.6717,-2.7193,-2.846,-2.8731,-2.8932,-2.9283,-2.957,-2.9588,-2.9115,-2.9436,-2.9533,-2.9112,-2.9225,-2.9246,-2.9017,-2.8994,-2.8994,-2.8994,-2.9104,-2.9122,-2.8994,-2.9769,-2.9824,-2.9012,-2.9677,-2.9696,-2.8994,-2.8994,-2.8994,-2.8994,-2.8994,-2.8994,-2.9012,-2.9714,-2.9714,-2.9214,-2.9916,-2.9879,-2.9342,-2.9214,-2.9177,-2.9177,-2.9177,-2.9177,-2.9195,-2.9305,-2.9365,-2.9365,-2.9365,-2.9365,-2.9494,-3.0173,-3.0467,-3.0705,-3.1384,-3.1659,-3.1696,-3.1458,-3.1384,-3.1384,-3.1384,-3.1476,-3.1568,-3.1568,-3.221,-3.2797,-3.2797,-3.333,-3.3587,-3.2926,-3.2687,-3.2155,-3.0779,-3.0467,-3.0375,-3.0375,0.0,-3.0815,-3.1494,-3.1678,-3.1806,-3.1935,-3.1935,-3.2284,-3.3109,-3.3164,-3.377,-3.51,-3.5412,-3.5559,-3.5559,-3.7606,-3.8872,-3.9239,-4.1277,-4.269,-4.3497,-4.3497,-4.3497,-4.3497,-4.3497,-4.3552,-4.3663,-4.3534,-4.4085,-4.5057,-4.4947,-4.5847,-4.7203,-4.6635,-4.7337,-4.8728,-4.8793,-4.8906,-4.9142,-2.6563,-2.7198,-2.7775,-2.7992,-2.8447,-2.885,-2.903,-2.957,-2.9813,-2.9394,-2.9551,-2.9626,-2.9353,-2.916,-2.9062,-2.9017,-2.8994,-2.8994,-2.8994,-2.9641,-2.9714,-2.9012,-2.9769,-2.9824,-2.9012,-2.9104,-2.9122,-2.8994,-2.8994,-2.8994,-2.8994,-2.8994,-2.8994,-2.8994,-2.9122,-2.9494,-3.0026,-3.0155,-3.0522,-3.0962,-3.0283,-3.0008,-3.0008,-3.0008,-3.0008,-3.0099,-3.0779,-3.1017,-3.1017,-3.1017,-3.1017,-3.1035,-3.1164,-3.1678,-3.2265,-3.2394,-3.2908,-3.3128,-3.177,-3.1384,-3.1384,-3.1384,-3.1916,-3.2412,-3.2412,-3.3036,-3.3605,-3.3605,-3.3715,-3.3752,-3.3642,-3.3073,-3.2522,-3.2284,-3.1659,-3.1201,-3.1201,0.0,-3.2284,-3.2412,-3.3018,-3.3697,-3.4367,-3.4422,-3.4816,-3.5661,-3.5734,-3.5826,-3.6083,-3.7386,-3.8138,-3.8138,-3.8505,-3.968,-4.1717,-4.2103,-4.269,-4.3497,-4.3497,-4.3497,-4.3497,-4.3497,-4.3864,-4.4488,-4.3791,-4.4727,-4.6691,-4.5993,-4.6654,-4.8027,-4.7433,-4.8115,-4.9387,-4.8936,-4.923,-4.9749,-2.7486,-2.7813,-2.8179,-2.9083,-2.9327,-2.9292,-2.9038,-2.9377,-2.957,-2.9225,-2.9375,-2.9455,-2.9203,-2.9067,-2.9159,-2.9622,-2.9659,-2.9843,-3.0265,-3.0228,-3.0228,-3.0283,-3.1072,-3.1127,-3.032,-3.0283,-3.0081,-2.9659,-2.9659,-2.9879,-3.0283,-2.9861,-2.9879,-3.032,-3.076,-3.0907,-3.087,-3.1311,-3.1458,-3.1366,-3.0999,-3.0852,-3.0852,-3.0852,-3.0852,-3.0889,-3.1256,-3.1384,-3.1384,-3.1384,-3.1384,-3.1476,-3.1916,-3.2302,-3.2706,-3.3128,-3.3513,-3.3642,-3.2889,-3.2687,-3.2687,-3.2687,-3.2963,-3.3256,-3.3256,-3.3532,-3.3807,-3.3807,-3.3807,-3.3807,-3.3807,-3.3495,-3.3109,-3.2687,-3.2302,0.0,-3.2045,-3.2375,-3.2761,-3.3201,-3.3972,-3.4596,-3.4954,-3.544,-3.5881,-3.6266,-3.6303,-3.667,-3.7551,-3.8303,-3.9313,-4.0598,-4.0634,-4.1387,-4.2928,-4.2947,-4.313,-4.3497,-4.3497,-4.3497,-4.3497,-4.3497,-4.3938,-4.469,-4.4305,-4.5278,-4.7095,-4.6709,-4.7241,-4.8267,-4.7977,-4.8861,-5.023,-4.996,-5.0152,-5.0556,-2.8179,-2.8506,-2.889,-3.0179,-3.008,-2.9624,-2.9071,-2.9246,-2.9353,-2.9138,-2.931,-2.933,-2.904,-2.8994,-2.9305,-3.0136,-3.021,-3.0613,-3.1604,-3.1109,-3.0944,-3.1366,-3.199,-3.2027,-3.1403,-3.1384,-3.1091,-3.0485,-3.0485,-3.0797,-3.1384,-3.076,-3.0797,-3.1421,-3.2045,-3.2082,-3.1715,-3.2339,-3.2357,-3.1935,-3.1751,-3.1678,-3.1678,-3.1678,-3.1678,-3.1696,-3.188,-3.1953,-3.1953,-3.1953,-3.1953,-3.2063,-3.2687,-3.2889,-3.2999,-3.3623,-3.3807,-3.3807,-3.3807,-3.3807,-3.3807,-3.3807,-3.3807,-3.3807,-3.3807,-3.3807,-3.3807,-3.3807,-3.3807,-3.3807,-3.3807,-3.3807,-3.3605,-3.2981,0.0,-3.2889,-3.2889,-3.3054,-3.3403,-3.4009,-3.4816,-3.5385,-3.5569,-3.6358,-3.6945,-3.711,-3.7312,-3.7955,-3.9203,-3.9441,-4.0469,-4.2506,-4.258,-4.2873,-4.3479,-4.3497,-4.3497,-4.3497,-4.3681,-4.3773,-4.3791,-4.3956,-4.4507,-4.5259,-4.5076,-4.5902,-4.737,-4.7205,-4.759,-4.8324,-4.8526,-4.9499,-5.082,-5.1004,-5.1095,-5.1086,-2.7928,-2.9179,-3.0244,-3.0379,-2.9931,-2.9397,-2.9044,-2.9291,-2.9494,-2.9474,-2.9475,-2.9375,-2.904,-2.8994,-2.9305,-3.0136,-3.021,-3.087,-3.2412,-3.2467,-3.2118,-3.1421,-3.1458,-3.1458,-3.1384,-3.1384,-3.1366,-3.1311,-3.1311,-3.1329,-3.1384,-3.1329,-3.1329,-3.1384,-3.1458,-3.1861,-3.2522,-3.2577,-3.2999,-3.355,-3.2816,-3.2522,-3.2522,-3.2522,-3.2522,-3.2614,-3.3366,-3.3623,-3.3623,-3.3623,-3.3623,-3.3623,-3.3697,-3.3715,-3.3715,-3.377,-3.3807,-3.3807,-3.3807,-3.3807,-3.3807,-3.3807,-3.3807,-3.3807,-3.3807,-3.3807,-3.3807,-3.3807,-3.3807,-3.3807,-3.3807,-3.3807,-3.377,-3.3715,0.0,0.0,-3.3715,-3.4357,-3.4844,-3.4899,-3.5679,-3.6486,-3.7221,-3.8046,-3.8836,-3.957,-4.0341,-4.0818,-4.0928,-4.1644,-4.2451,-4.3369,-4.3406,-4.3424,-4.3497,-4.3497,-4.3497,-4.3497,-4.4268,-4.4617,-4.4654,-4.5388,-4.6159,-4.6893,-4.614,-4.6728,-4.8159,-4.7425,-4.759,-4.8379,-4.9187,-5.0031,-5.0894,-5.1628,-5.1565,-5.1086,-2.9448,-2.9967,-3.0398,-3.0398,-2.9731,-2.916,-2.9017,-2.9093,-2.9185,-2.9185,-2.9436,-2.9475,-2.9044,-2.8994,-2.9104,-2.9439,-3.0668,-3.1971,-3.3256,-3.3348,-3.322,-3.2889,-3.2889,-3.2651,-3.2155,-3.2632,-3.2632,-3.2137,-3.2137,-3.2394,-3.2871,-3.2375,-3.2412,-3.2889,-3.2889,-3.3054,-3.3348,-3.3348,-3.3532,-3.377,-3.3476,-3.3348,-3.3348,-3.3348,-3.3348,-3.3385,-3.3697,-3.3807,-3.3807,-3.3807,-3.3807,-3.3807,-3.3807,-3.3807,-3.3807,-3.3807,-3.3807,-3.3917,-3.4412,-3.4559,-3.4559,-3.4559,-3.4559,-3.4412,-3.3917,-3.3807,-3.3807,-3.3807,-3.4211,-3.4559,-3.4559,-3.5,-3.5349,-3.5349,0.0,-3.5349,-3.5349,-3.5605,-3.5807,-3.5807,-3.6541,-3.7349,-3.8175,-3.8964,-3.9772,-4.0579,-4.0946,-4.1332,-4.1827,-4.2598,-4.3167,-4.3479,-4.3497,-4.3497,-4.3497,-4.3497,-4.3497,-4.3497,-4.4323,-4.4709,-4.4745,-4.5535,-4.6342,-4.7095,-4.6801,-4.7278,-4.8324,-4.8545,-4.882,-4.9187,-5.0013,-5.0839,-5.1573,-5.1885,-5.1619,-5.1157,-3.0398,-3.0398,-3.0318,-3.0007,-2.9436,-2.8994,-2.8994,-2.8994,-2.8994,-2.8994,-2.9272,-2.9357,-2.904,-2.8994,-2.9195,-2.9714,-3.1091,-3.2467,-3.3715,-3.3807,-3.3807,-3.3807,-3.3807,-3.3532,-3.2999,-3.3532,-3.3532,-3.2981,-3.2981,-3.3256,-3.3788,-3.3238,-3.3275,-3.3807,-3.3807,-3.3807,-3.3807,-3.3807,-3.3807,-3.3807,-3.3807,-3.3807,-3.3807,-3.3807,-3.3807,-3.3807,-3.3807,-3.3807,-3.3807,-3.3807,-3.3807,-3.3807,-3.3807,-3.3807,-3.3807,-3.3807,-3.3972,-3.433,-3.4976,-3.5454,-3.5734,-3.5477,-3.5422,-3.5202,-3.4376,-3.4394,-3.4504,-3.4229,-3.4835,-3.5422,-3.5422,-3.5899,-3.6303,-3.6303,-3.6303,-3.6303,-3.6303,-3.6505,-3.667,-3.667,-3.7606,-3.8469,-3.9019,-4.0029,-4.0873,-4.1442,-4.1717,-4.2084,-4.2653,-4.3185,-4.3497,-4.3497,-4.3497,-4.3497,-4.3497,-4.3497,-4.3497,-4.3497,-4.458,-4.5094,-4.5112,-4.6177,-4.6948,-4.7498,-4.7498,-4.781,-4.8361,-4.8948,-4.9334,-4.9664,-5.049,-5.1279,-5.2013,-5.227,-5.1836,-5.1174,-3.0398,-3.0398,-3.0114,-2.9163,-2.8994,-2.8994,-2.8994,-2.8994,-2.8994,-2.8994,-2.8994,-2.8994,-2.8994,-2.9012,-2.9696,-3.1274,-3.1403,-3.21,-3.3697,-3.3807,-3.3807,-3.3807,-3.3807,-3.3807,-3.3807,-3.3807,-3.3807,-3.3807,-3.3807,-3.3807,-3.3807,-3.3807,-3.3807,-3.3807,-3.3807,-3.3807,-3.3807,-3.3807,-3.3807,-3.3807,-3.3807,-3.3807,-3.3807,-3.3807,-3.3807,-3.3807,-3.3807,-3.3807,-3.3807,-3.3807,-3.3807,-3.3807,-3.3807,-3.3807,-3.3807,-3.3807,-3.4367,-3.507,-3.5395,-3.6448,-3.7294,-3.6505,-3.6303,-3.6083,-3.5192,-3.5679,-3.6046,-3.5174,-3.5716,-3.6303,-3.6321,-3.6321,-3.6321,-3.6321,-3.6321,-3.634,-3.6321,-3.7,-3.7544,-3.7544,-3.8927,-3.99,-3.9918,-4.135,-4.2304,-4.2304,-4.3039,-4.3497,-4.3497,-4.3497,-4.3497,-4.3497,-4.3497,-4.3497,-4.3497,-4.3497,-4.3497,-4.3516,-4.5131,-4.5902,-4.5957,-4.7572,-4.8306,-4.8306,-4.8306,-4.8306,-4.8324,-4.8324,-4.882,-4.9682,-5.0508,-5.1298,-5.2105,-5.2913,-5.2307,-5.1086,-3.0398,-3.0398,-3.0114,-2.9163,-2.8994,-2.8994,-2.8994,-2.8994,-2.8994,-2.8994,-2.8994,-2.8994,-2.8994,-3.1017,-3.2559,-3.3036,-3.3073,-3.3293,-3.377,-3.3807,-3.3807,-3.3807,-3.3807,-3.3807,-3.3807,-3.3807,-3.3807,-3.3807,-3.3807,-3.3807,-3.3807,-3.3807,-3.3807,-3.3807,-3.3807,-3.3807,-3.3807,-3.3807,-3.3807,-3.3807,-3.3807,-3.3807,-3.3807,-3.3807,-3.3807,-3.3807,-3.3807,-3.4174,-3.4596,-3.4273,-3.4546,-3.4999,-3.4999,-3.4845,-3.4706,-3.4927,-3.5162,-3.5413,-3.5703,-3.6078,-3.6412,-3.6548,-3.6863,-3.6927,-3.6101,-3.6101,-3.6229,-3.5973,-3.656,-3.7294,-3.7881,-3.845,-3.8817,-3.8817,-3.9294,-3.9478,-3.8909,-3.9515,-4.0029,-4.0029,-4.0451,-4.0965,-4.1534,-4.2011,-4.2525,-4.3094,-4.3351,-4.3497,-4.3497,-4.3497,-4.3497,-4.3497,-4.3497,-4.3497,-4.3497,-4.3497,-4.3773,-4.436,-4.5406,-4.6195,-4.6783,-4.7829,-4.8306,-4.8306,-4.8306,-4.8655,-4.9242,-4.9811,-5.0227,-5.0657,-5.1956,-5.2309,-5.2164,-5.2907,-5.2307,-5.1174,-3.0398,-3.0398,-3.0114,-2.9163,-2.8994,-2.8994,-2.8994,-2.8994,-2.8994,-2.8994,-2.8994,-2.947,-3.076,-3.2632,-3.3807,-3.3807,-3.3807,-3.3807,-3.3807,-3.3807,-3.3807,-3.3807,-3.3807,-3.3807,-3.3807,-3.3807,-3.3807,-3.3807,-3.3807,-3.3807,-3.3807,-3.3807,-3.3807,-3.3807,-3.3807,-3.3807,-3.3807,-3.3807,-3.3807,-3.3807,-3.3807,-3.3807,-3.3807,-3.3807,-3.4009,-3.4284,-3.4284,-3.4816,-3.5428,-3.4938,-3.5119,-3.5497,-3.5497,-3.538,-3.523,-3.5435,-3.5582,-3.5667,-3.5623,-3.6013,-3.6484,-3.6809,-3.7275,-3.7515,-3.6916,-3.7257,-3.7624,-3.7312,-3.7948,-3.878,-3.952,-3.9849,-4.0093,-4.0345,-4.0781,-4.0946,-4.0451,-4.0598,-4.0737,-4.0737,-4.0817,-4.1162,-4.1866,-4.2266,-4.2739,-4.3461,-4.3497,-4.341,-4.3214,-4.3178,-4.3178,-4.3178,-4.3178,-4.3304,-4.3497,-4.3286,-4.3706,-4.4727,-4.5516,-4.6324,-4.715,-4.7939,-4.8306,-4.8306,-4.8306,-4.86,-4.915,-4.9976,-5.0362,-5.0588,-5.2133,-5.2477,-5.2159,-5.2937,-5.2307,-5.1157,-3.0398,-3.0398,-3.0114,-2.9163,-2.8994,-2.8994,-2.8994,-2.8994,-2.8994,-2.8994,-2.9232,-3.0558,-3.3476,-3.3807,-3.3678,-3.3403,-3.3623,-3.3807,-3.3807,-3.3807,-3.3807,-3.3807,-3.3807,-3.3807,-3.3807,-3.3807,-3.3807,-3.3807,-3.3807,-3.3807,-3.3807,-3.3807,-3.3807,-3.3807,-3.3807,-3.3807,-3.3807,-3.3807,-3.3807,-3.3807,-3.388,-3.3917,-3.3917,-3.399,-3.4486,-3.5119,-3.5119,-3.565,-3.6259,-3.5728,-3.5562,-3.554,-3.558,-3.5594,-3.5609,-3.5669,-3.5794,-3.5887,-3.5532,-3.626,-3.7182,-3.7291,-3.7629,-3.7911,-3.7674,-3.8779,-3.9644,-3.8912,-3.9476,-4.033,-4.1001,-4.0671,-4.0492,-4.1052,-4.1192,-4.1196,-4.1071,-4.0636,-4.0345,-4.0345,-4.0606,-4.0953,-4.1463,-4.2242,-4.2902,-4.341,-4.3375,-4.3124,-4.2655,-4.2655,-4.2711,-4.2711,-4.275,-4.3013,-4.352,-4.3048,-4.3485,-4.4837,-4.5498,-4.6324,-4.7204,-4.7919,-4.8267,-4.8306,-4.8249,-4.8304,-4.8489,-4.9334,-4.97,-4.9884,-5.1408,-5.2007,-5.2112,-5.2831,-5.2242,-5.1104,-3.0398,-3.0398,-3.0114,-2.9163,-2.8994,-2.8994,-2.8994,-2.8994,-2.8994,-2.8994,-3.1201,-3.3036,-3.3715,-3.3807,-3.2797,-3.0265,-3.2357,-3.3807,-3.3807,-3.3807,-3.3807,-3.3807,-3.3807,-3.3807,-3.3807,-3.3807,-3.3807,-3.3807,-3.3807,-3.3807,-3.3807,-3.3807,-3.3807,-3.3807,-3.3807,-3.3807,-3.3807,-3.3807,-3.3807,-3.3862,-3.4504,-3.4734,-3.4816,-3.5495,-3.5862,-3.6028,-3.6028,-3.6279,-3.6576,-3.6315,-3.6028,-3.5864,-3.6124,-3.6326,-3.6534,-3.6939,-3.6673,-3.6416,-3.7126,-3.7098,-3.71,-3.8053,-3.8345,-3.8508,-3.8653,-3.9121,-3.9465,-3.9305,-3.9402,-3.9946,-4.1106,-4.1215,-4.1178,-4.1306,-4.1904,-4.1971,-4.0864,-4.1131,-4.1464,-4.1464,-4.1944,-4.2268,-4.2423,-4.2603,-4.275,-4.2864,-4.2444,-4.2103,-4.1979,-4.244,-4.2711,-4.2711,-4.3105,-4.347,-4.3713,-4.3614,-4.4263,-4.5645,-4.5381,-4.6257,-4.8011,-4.7725,-4.7838,-4.8267,-4.7797,-4.8261,-4.937,-5.0196,-5.026,-5.0008,-5.1506,-5.176,-5.1393,-5.2083,-5.1808,-5.1017,-3.0398,-3.0398,-3.0114,-2.9163,-2.8994,-2.8994,-2.8994,-2.8994,-2.8994,-2.8994,-3.0485,-3.1513,-3.1513,-3.1513,-3.1458,-3.1311,-3.2834,-3.3807,-3.3807,-3.3807,-3.3807,-3.3807,-3.3807,-3.3972,-3.4376,-3.4376,-3.4376,-3.4376,-3.399,-3.4211,-3.4981,-3.4174,-3.4009,-3.4376,-3.3972,-3.3807,-3.3807,-3.3807,-3.4027,-3.4412,-3.4825,-3.5247,-3.5679,-3.6138,-3.6541,-3.6824,-3.6577,-3.653,-3.6549,-3.6441,-3.6284,-3.6164,-3.6318,-3.6484,-3.6688,-3.7304,-3.7068,-3.6789,-3.7678,-3.7618,-3.7522,-3.8387,-3.8677,-3.8836,-3.911,-3.9593,-3.9958,-3.9958,-4.0032,-4.0401,-4.1431,-4.1362,-4.1239,-4.1542,-4.1958,-4.2019,-4.1262,-4.1288,-4.1358,-4.1358,-4.142,-4.1569,-4.181,-4.2121,-4.2262,-4.2262,-4.1979,-4.1664,-4.1402,-4.1664,-4.203,-4.2395,-4.2692,-4.3173,-4.3875,-4.3659,-4.4353,-4.6036,-4.578,-4.6535,-4.8267,-4.7674,-4.7715,-4.8267,-4.7656,-4.8229,-4.9646,-5.0094,-5.0145,-5.0024,-5.1141,-5.1393,-5.1138,-5.1494,-5.1189,-5.046,-3.0398,-3.0273,-3.0086,-2.9857,-2.936,-2.8994,-2.8994,-2.8994,-2.8994,-2.8994,-2.8994,-2.8994,-2.8994,-2.947,-3.0907,-3.3568,-3.3807,-3.3807,-3.3807,-3.3807,-3.3807,-3.3807,-3.3807,-3.4192,-3.4972,-3.499,-3.5064,-3.521,-3.4559,-3.4945,-3.6266,-3.4724,-3.4376,-3.4954,-3.4174,-3.388,-3.4009,-3.4009,-3.4412,-3.5107,-3.5357,-3.5805,-3.6399,-3.6622,-3.7081,-3.7491,-3.7054,-3.6787,-3.6582,-3.6498,-3.654,-3.6599,-3.6654,-3.6644,-3.6738,-3.7551,-3.7376,-3.7161,-3.8041,-3.8176,-3.8187,-3.8734,-3.9033,-3.9279,-3.9451,-4.0059,-4.0516,-4.0516,-4.0669,-4.0949,-4.1534,-4.1223,-4.1087,-4.1578,-4.1664,-4.1621,-4.1508,-4.1105,-4.078,-4.078,-4.0449,-4.0449,-4.0995,-4.1402,-4.1664,-4.1664,-4.1534,-4.1268,-4.078,-4.0856,-4.1284,-4.205,-4.2163,-4.28,-4.4032,-4.361,-4.4378,-4.6241,-4.6137,-4.6813,-4.8132,-4.7512,-4.7512,-4.7937,-4.7428,-4.791,-4.909,-4.9521,-4.9645,-4.9642,-5.0524,-5.0981,-5.1086,-5.1086,-5.0608,-4.9936,-3.0398,-2.9748,-3.0028,-3.2695,-3.0852,-2.8994,-2.8994,-2.8994,-2.8994,-2.8994,-2.8994,-2.8994,-2.8994,-3.1494,-3.333,-3.3752,-3.3807,-3.3807,-3.3807,-3.3807,-3.3807,-3.3807,-3.3807,-3.4192,-3.4972,-3.499,-3.5385,-3.6119,-3.6009,-3.6083,-3.6266,-3.5312,-3.4899,-3.4954,-3.4174,-3.4192,-3.4825,-3.4825,-3.5064,-3.5535,-3.6687,-3.6955,-3.6765,-3.7911,-3.8159,-3.7817,-3.7783,-3.7567,-3.7301,-3.6904,-3.7004,-3.7379,-3.7626,-3.7535,-3.7534,-3.8529,-3.8275,-3.8058,-3.9411,-3.9326,-3.9037,-3.9696,-3.9934,-3.9952,-4.0031,-4.0082,-4.015,-4.015,-4.0186,-4.0368,-4.0903,-4.0949,-4.0949,-4.0995,-4.1041,-4.0874,-4.0385,-4.0254,-4.0204,-4.0204,-4.0528,-4.1059,-4.1621,-4.1268,-4.1041,-4.1041,-4.0577,-4.0286,-4.0204,-4.0655,-4.1284,-4.205,-4.2531,-4.3261,-4.4262,-4.4179,-4.4876,-4.6365,-4.5856,-4.6247,-4.7488,-4.6864,-4.6571,-4.6664,-4.6571,-4.6624,-4.6977,-4.8892,-4.9017,-4.8167,-4.959,-5.0554,-5.1086,-5.1086,-5.0608,-5.0022,-3.2411,-3.0941,-3.0058,-3.0973,-2.9953,-2.9622,-3.1421,-3.0173,-2.8994,-2.8994,-3.0577,-3.1017,-2.9195,-3.188,-3.3807,-3.3807,-3.3807,-3.3807,-3.3807,-3.3807,-3.3807,-3.3807,-3.3807,-3.4394,-3.5697,-3.5734,-3.6358,-3.7643,-3.6743,-3.6762,-3.7606,-3.634,-3.5973,-3.6358,-3.555,-3.5385,-3.5705,-3.5399,-3.562,-3.62,-3.6808,-3.7192,-3.7424,-3.8023,-3.837,-3.8492,-3.8348,-3.8042,-3.7672,-3.7492,-3.7568,-3.7723,-3.7882,-3.784,-3.7877,-3.8764,-3.8768,-3.8751,-3.9783,-3.9834,-3.9681,-4.0003,-4.007,-4.007,-4.007,-4.007,-4.007,-4.007,-4.007,-4.0154,-4.0417,-4.0449,-4.0449,-4.0449,-4.0449,-4.0368,-4.0121,-4.007,-4.007,-4.007,-4.0336,-4.0546,-4.0814,-4.0625,-4.0449,-4.0449,-4.0254,-4.007,-4.007,-4.0728,-4.1441,-4.2159,-4.2857,-4.3614,-4.4448,-4.4465,-4.4957,-4.5865,-4.5648,-4.6161,-4.7403,-4.6777,-4.6695,-4.7073,-4.7563,-4.7988,-4.8448,-4.9386,-4.9466,-4.9003,-4.9306,-4.9622,-4.9993,-5.0352,-5.0033,-4.9522]}]]